[[[{"header":{"parameterUnit":"kt","parameterCategory":2,"dx":1,"dy":1,"la1":29.587661999999998,"la2":31.0,"lo1":-88.76705300000003,"lo2":-86.6583820000003,"nx":115,"ny":88,"refTime":"2022-10-07T00:00:00:Z","depth":0,"parameterNumber":1,"parameterNumberName":"U-component_of_WINDS"},"data":[4.9356,4.9356,4.9356,4.9379,4.9426,4.9777,5.0035,5.0269,5.1136,5.1628,5.1792,5.2143,5.2401,5.2536,5.2536,5.2536,5.2536,5.2536,5.2536,5.2536,5.2536,5.2536,5.2536,5.2536,5.2536,5.2536,5.2536,5.2536,5.2536,5.2536,5.2536,5.2536,5.2536,5.2536,5.2536,5.2536,5.2536,5.2536,5.2536,5.2536,5.2536,5.2536,5.2536,5.2536,5.2536,5.2536,5.2536,5.2536,5.2536,5.163,4.964,4.7755,4.5421,4.3099,3.9239,3.6072,3.4471,3.3063,3.1058,3.0527,3.0777,3.0923,3.1068,3.1227,3.1346,3.1346,3.1346,3.1346,3.1359,3.1359,3.1359,3.1359,3.1359,3.1359,3.1359,3.1359,3.1359,3.1359,3.1359,3.1359,3.1359,3.1359,3.1359,3.1359,3.1359,3.1359,3.1359,3.1359,3.1359,3.1359,3.1359,3.1359,3.1359,3.1359,3.1359,3.1359,3.1359,3.1359,3.1359,3.1359,3.1359,3.1359,3.1359,3.1359,3.1359,3.1359,3.1359,3.1359,3.1359,3.1359,3.1359,3.1306,3.1117,3.088,3.0443,4.9379,4.9379,4.9379,4.9379,4.9379,4.9449,4.9707,5.0152,5.0823,5.123,5.1605,5.1722,5.2073,5.2331,5.2536,5.2536,5.2536,5.2536,5.2536,5.2536,5.2536,5.2536,5.2536,5.2536,5.2536,5.2536,5.2536,5.2536,5.2536,5.2536,5.2536,5.2536,5.2536,5.2536,5.2536,5.2536,5.2536,5.2536,5.2536,5.2536,5.2536,5.2536,5.2536,5.2536,5.2536,5.2536,5.2536,5.2536,5.2536,5.2007,5.163,4.975,4.7844,4.6599,4.2114,3.8446,3.6846,3.4183,3.1263,3.0448,3.0379,3.0751,3.0883,3.1068,3.1183,3.1236,3.1249,3.1249,3.1346,3.1359,3.1359,3.1359,3.1359,3.1359,3.1359,3.1359,3.1359,3.1359,3.1359,3.1359,3.1359,3.1359,3.1359,3.1359,3.1359,3.1359,3.1359,3.1359,3.1359,3.1359,3.1359,3.1359,3.1359,3.1359,3.1359,3.1359,3.1359,3.1359,3.1359,3.1359,3.1359,3.1359,3.1359,3.1359,3.1359,3.1359,3.1359,3.1359,3.1359,3.1359,3.1306,3.1227,3.1012,3.0761,3.039,4.9777,4.9777,4.9777,4.9637,4.9403,4.9356,4.9473,4.9777,5.0246,5.0597,5.0855,5.1417,5.1815,5.1979,5.2419,5.2536,5.2536,5.2536,5.2536,5.2536,5.2536,5.2536,5.2536,5.2536,5.2536,5.2536,5.2536,5.2536,5.2536,5.2536,5.2536,5.2536,5.2536,5.2536,5.2536,5.2536,5.2536,5.2536,5.2536,5.2536,5.2536,5.2536,5.2536,5.2536,5.2536,5.2536,5.2536,5.2536,5.2536,5.2536,5.2536,5.0901,5.037,4.9662,4.6688,4.2651,3.8987,3.6797,3.3604,3.1434,3.0089,3.0353,3.0537,3.0883,3.1108,3.1161,3.1065,3.1249,3.1359,3.1359,3.1359,3.1359,3.1359,3.1359,3.1359,3.1359,3.1359,3.1359,3.1359,3.1359,3.1359,3.1359,3.1359,3.1359,3.1359,3.1359,3.1359,3.1359,3.1359,3.1359,3.1359,3.1359,3.1359,3.1359,3.1359,3.1359,3.1359,3.1359,3.1359,3.1359,3.1359,3.1359,3.1359,3.1359,3.1359,3.1359,3.1359,3.1359,3.1359,3.128,3.1214,3.1121,3.0896,3.055,3.0287,4.9941,4.9941,5.0058,4.9988,4.9731,4.959,4.9567,4.959,5.0166,5.0363,5.0457,5.1113,5.1558,5.1745,5.2096,5.2331,5.2401,5.2536,5.2536,5.2536,5.2536,5.2536,5.2536,5.2536,5.2536,5.2536,5.2536,5.2536,5.2536,5.2536,5.2536,5.2536,5.2536,5.2536,5.2536,5.2536,5.2536,5.2536,5.2536,5.2536,5.2536,5.2536,5.2536,5.2536,5.2536,5.2536,5.2536,5.2536,5.2536,5.2536,5.2536,5.2536,5.2536,5.2448,5.037,4.6955,4.2562,3.8717,3.5122,3.1803,3.0248,3.0102,3.03,3.0671,3.0857,3.0896,3.1015,3.124,3.1359,3.1359,3.1359,3.1359,3.1359,3.1359,3.1359,3.1359,3.1359,3.1359,3.1359,3.1359,3.1359,3.1359,3.1359,3.1359,3.1359,3.1359,3.1359,3.1359,3.1359,3.1359,3.1359,3.1359,3.1359,3.1359,3.1359,3.1359,3.1359,3.1359,3.1359,3.1359,3.1359,3.1359,3.1359,3.1359,3.1333,3.1359,3.1359,3.1319,3.1214,3.1147,3.1055,3.0761,3.055,3.026,3.0036,4.9426,4.9496,4.9918,5.034,5.0644,5.033,5.0082,5.0129,5.0659,5.0808,5.0894,5.0925,5.1323,5.1675,5.1909,5.2167,5.2354,5.2536,5.2536,5.2536,5.2536,5.2536,5.2536,5.2536,5.2536,5.2536,5.2536,5.2536,5.2536,5.2536,5.2536,5.2536,5.2536,5.2536,5.2536,5.2536,5.2536,5.2536,5.2536,5.2536,5.2536,5.2536,5.2536,5.2536,5.2536,5.2536,5.2536,5.2536,5.2536,5.2536,5.2536,5.2536,5.2536,5.2448,5.0547,4.74,4.4082,4.0498,3.7307,3.3015,3.1267,3.0405,3.001,3.03,3.0658,3.0777,3.0962,3.1174,3.1333,3.1359,3.1359,3.1359,3.1359,3.1359,3.1359,3.1359,3.1359,3.1359,3.1359,3.1359,3.1359,3.1359,3.1359,3.1359,3.1359,3.1359,3.1359,3.1359,3.1359,3.1359,3.1359,3.1359,3.1359,3.1359,3.1359,3.1359,3.1359,3.1346,3.1359,3.1359,3.1359,3.1359,3.1359,3.1157,3.1065,3.1144,3.1104,3.0959,3.084,3.0801,3.0682,3.0498,3.0234,2.9917,2.9733,4.9824,4.9848,5.0035,5.041,5.0894,5.0668,5.0785,5.1019,5.1011,5.0878,5.0925,5.123,5.1487,5.1722,5.1979,5.2237,5.2536,5.2536,5.2536,5.2536,5.2536,5.2536,5.2536,5.2536,5.2536,5.2536,5.2536,5.2536,5.2536,5.2536,5.2536,5.2536,5.2536,5.2536,5.2536,5.2536,5.2536,5.2536,5.2536,5.2536,5.2536,5.2536,5.2536,5.2536,5.2536,5.2536,5.2536,5.2536,5.2536,5.2536,5.2536,5.2536,5.2536,5.2536,5.11,5.0105,4.6421,4.3367,4.0588,3.6008,3.3728,3.2599,3.1328,3.0541,3.0287,3.0511,3.0735,3.0986,3.1227,3.1346,3.1359,3.1359,3.1359,3.1359,3.1359,3.1359,3.1359,3.1359,3.1359,3.1359,3.1359,3.1359,3.1359,3.1359,3.1359,3.1359,3.1359,3.1359,3.1359,3.1359,3.1359,3.1359,3.1359,3.1359,3.1359,3.1359,3.1333,3.1319,3.1306,3.1293,3.1359,3.1306,3.1078,3.0986,3.0893,3.0788,3.0709,3.0603,3.055,3.0458,3.0366,3.0142,2.9878,2.9654,2.9601,4.9895,4.9918,5.0058,5.0424,5.0644,5.0644,5.1066,5.1651,5.1487,5.1316,5.1136,5.1534,5.1651,5.1722,5.2073,5.2284,5.2489,5.2536,5.2536,5.2536,5.2536,5.2536,5.2536,5.2536,5.2536,5.2536,5.2536,5.2536,5.2536,5.2536,5.2536,5.2536,5.2536,5.2536,5.2536,5.2536,5.2536,5.2536,5.2536,5.2536,5.2536,5.2536,5.2536,5.2536,5.2536,5.2536,5.2536,5.2536,5.2536,5.2536,5.2536,5.2536,5.2536,5.2536,5.2448,5.2095,4.9307,4.6154,4.4261,3.8879,3.4303,3.2483,3.1056,2.9917,2.9983,3.0194,3.0458,3.0748,3.1081,3.1253,3.1319,3.1333,3.1359,3.1359,3.1359,3.1359,3.1359,3.1359,3.1359,3.1359,3.1359,3.1359,3.1359,3.1359,3.1359,3.1359,3.1359,3.1359,3.1359,3.1359,3.1359,3.1359,3.1359,3.1359,3.1359,3.128,3.128,3.124,3.1187,3.1161,3.0999,3.0906,3.0867,3.0775,3.0669,3.043,3.0272,3.0206,3.026,3.0181,3.0063,2.9799,2.9601,2.9561,2.9522,4.9379,4.9449,4.9918,5.0129,5.0152,5.0199,5.0738,5.1651,5.2143,5.205,5.1675,5.1722,5.1792,5.1768,5.1768,5.205,5.2401,5.2536,5.2536,5.2536,5.2536,5.2536,5.2536,5.2536,5.2536,5.2536,5.2536,5.2536,5.2536,5.2536,5.2536,5.2536,5.2536,5.2536,5.2536,5.2536,5.2536,5.2536,5.2536,5.2536,5.2536,5.2536,5.2536,5.2536,5.2536,5.2536,5.2536,5.2536,5.2536,5.2536,5.2536,5.2536,5.2536,5.2536,5.2536,5.1542,4.9108,4.5798,4.283,3.9239,3.5103,3.1227,2.9927,2.9785,2.9852,2.9997,3.0287,3.059,3.0949,3.1121,3.1293,3.1333,3.1359,3.1359,3.1359,3.1359,3.1359,3.1359,3.1359,3.1359,3.1359,3.1359,3.1359,3.1359,3.1359,3.1359,3.1359,3.1359,3.1359,3.1359,3.1359,3.1346,3.1319,3.1333,3.1267,3.1091,3.1025,3.0854,3.0827,3.0801,3.0616,3.0403,3.0498,3.0484,3.0311,3.0206,3.0048,3.0049,2.9997,2.9891,2.9786,2.9601,2.9561,2.9522,2.9482,4.9356,4.9379,4.9567,4.9908,5.0105,5.0129,5.0293,5.0761,5.1558,5.2073,5.2143,5.2167,5.2167,5.2167,5.219,5.2354,5.2424,5.2536,5.2536,5.2536,5.2536,5.2536,5.2536,5.2536,5.2536,5.2536,5.2536,5.2536,5.2536,5.2536,5.2536,5.2536,5.2536,5.2536,5.2536,5.2536,5.2536,5.2536,5.2536,5.2536,5.2536,5.2536,5.2536,5.2536,5.2536,5.2536,5.2536,5.2536,5.2536,5.2536,5.2536,5.2536,5.2536,5.2536,5.2536,5.2448,5.0835,4.8753,4.4906,4.1127,3.5646,3.0681,2.9691,2.9561,2.9641,2.9838,3.0155,3.0445,3.0709,3.1042,3.128,3.1333,3.1359,3.1359,3.1359,3.1359,3.1359,3.1359,3.1359,3.1359,3.1359,3.1359,3.1359,3.1359,3.1319,3.1333,3.1346,3.1359,3.1359,3.1359,3.1359,3.1183,3.1131,3.1012,3.092,3.0893,3.0761,3.0577,3.0537,3.0443,3.0272,3.0127,3.0101,3.0075,3.0022,3.0036,2.9891,2.9799,2.9746,2.9654,2.9575,2.9561,2.9522,2.9469,2.9416,4.9356,4.9356,4.9356,4.9567,4.9848,4.9871,4.9988,5.0246,5.0832,5.1441,5.1886,5.2143,5.219,5.2284,5.2284,5.2424,5.2536,5.2536,5.2536,5.2536,5.2536,5.2536,5.2536,5.2536,5.2536,5.2536,5.2536,5.2536,5.2536,5.2536,5.2536,5.2536,5.2536,5.2536,5.2536,5.2536,5.2536,5.2536,5.2536,5.2536,5.2536,5.2536,5.2536,5.2536,5.2536,5.2536,5.2536,5.2536,5.2536,5.2536,5.2536,5.2536,5.2536,5.2536,5.2536,5.2448,5.236,5.11,4.8665,4.3457,3.8068,3.3562,3.059,2.9509,2.9522,2.972,2.9944,3.0208,3.0471,3.0775,3.1187,3.1253,3.1319,3.1319,3.1319,3.1333,3.1293,3.1293,3.1183,3.117,3.1346,3.1359,3.1359,3.1359,3.1253,3.1227,3.1196,3.1223,3.1174,3.1187,3.1078,3.0986,3.088,3.0748,3.0656,3.063,3.043,3.0313,3.0247,3.0127,3.0128,2.9997,2.9931,2.9865,2.9812,2.9759,2.9707,2.9641,2.9548,2.9509,2.9522,2.9522,2.9377,2.9388,2.9245,4.9356,4.9356,4.9356,4.9379,4.9426,4.9379,4.9637,5.0035,5.0222,5.055,5.1089,5.1558,5.1768,5.1862,5.2284,5.2424,5.2536,5.2536,5.2536,5.2536,5.2536,5.2536,5.2536,5.2536,5.2536,5.2536,5.2536,5.2536,5.2536,5.2536,5.2536,5.2536,5.2536,5.2536,5.2536,5.2536,5.2536,5.2536,5.2536,5.2536,5.2536,5.2536,5.2536,5.2536,5.2536,5.2536,5.2536,5.2536,5.2536,5.2536,5.2536,5.2536,5.2536,5.2536,5.2536,5.2536,5.2536,5.2448,5.183,4.5174,3.9689,3.5103,3.0863,2.9691,2.9522,2.9548,2.9693,3.0036,3.0234,3.0498,3.0788,3.1121,3.1104,3.1144,3.1253,3.124,3.1065,3.1038,3.0999,3.0972,3.1117,3.1319,3.1306,3.1267,3.1025,3.1012,3.1131,3.1051,3.0949,3.0883,3.0748,3.0656,3.0416,3.0419,3.0379,3.0259,3.0154,3.0063,2.9917,2.9865,2.9772,2.9759,2.9693,2.9575,2.9575,2.9627,2.9575,2.9509,2.9509,2.9509,2.9509,2.9364,2.9296,2.9137,2.8915,4.9356,4.9356,4.9356,4.9356,4.9356,4.9356,4.9449,4.9637,4.9941,5.0495,5.1011,5.1441,5.1698,5.1839,5.2214,5.2424,5.2448,5.2536,5.2536,5.2536,5.2536,5.2536,5.2536,5.2536,5.2536,5.2536,5.2536,5.2536,5.2536,5.2536,5.2536,5.2536,5.2536,5.2536,5.2536,5.2536,5.2536,5.2536,5.2536,5.2536,5.2536,5.2536,5.2536,5.2536,5.2536,5.2536,5.2536,5.2536,5.2536,5.2536,5.2536,5.2536,5.2536,5.2536,5.2536,5.2536,5.2536,5.2536,5.1365,4.7421,4.2293,3.6263,3.1956,2.9965,2.9509,2.9522,2.9627,2.9904,3.0023,3.0208,3.0498,3.0761,3.0893,3.084,3.088,3.0906,3.084,3.0814,3.0788,3.0666,3.06,3.0709,3.0722,3.0761,3.0643,3.063,3.0695,3.063,3.0511,3.0484,3.0432,3.03,3.0075,3.0035,3.0089,2.9997,2.9904,2.9733,2.9707,2.9601,2.9588,2.9575,2.9535,2.9509,2.9509,2.9509,2.9496,2.9456,2.9469,2.9482,2.9298,2.9113,2.8955,2.881,2.8639,4.9356,4.9356,4.9356,4.9356,4.9356,4.9356,4.9356,4.9426,4.9684,5.0035,5.0293,5.0832,5.1183,5.1464,5.1886,5.2237,5.2448,5.2536,5.2536,5.2536,5.2536,5.2536,5.2536,5.2536,5.2536,5.2536,5.2536,5.2536,5.2536,5.2536,5.2536,5.2536,5.2536,5.2536,5.2536,5.2536,5.2536,5.2536,5.2536,5.2536,5.2536,5.2536,5.2536,5.2536,5.2536,5.2536,5.2536,5.2536,5.2536,5.2536,5.2536,5.2536,5.2536,5.2536,5.2536,5.2536,5.2536,5.2536,5.1719,4.8665,4.4172,3.7798,3.276,2.9509,2.9509,2.9509,2.9627,2.9746,2.9891,3.0023,3.0154,3.0458,3.0603,3.0511,3.0498,3.0537,3.0443,3.0443,3.043,3.0456,3.0364,3.0232,3.0246,3.0259,3.0206,3.0247,3.0234,3.0221,3.0221,3.0208,3.0089,2.9957,2.9852,2.9799,2.9786,2.9667,2.9535,2.9535,2.9548,2.9535,2.9535,2.9509,2.9509,2.9509,2.9509,2.9509,2.9482,2.9416,2.9337,2.9258,2.9087,2.8876,2.8718,2.8573,2.8362,4.9688,4.9936,4.9771,4.9771,4.9771,4.9439,4.9356,4.9356,4.9379,4.9426,4.959,4.9895,5.041,5.0878,5.1464,5.2003,5.2378,5.2536,5.2536,5.2536,5.2536,5.2536,5.2536,5.2536,5.2536,5.2536,5.2536,5.2536,5.2536,5.2536,5.2536,5.2536,5.2536,5.2536,5.2536,5.2536,5.2536,5.2536,5.2536,5.2536,5.2536,5.2536,5.2536,5.2536,5.2536,5.2536,5.2536,5.2536,5.2536,5.2536,5.2536,5.2536,5.2536,5.2536,5.2536,5.2536,5.2536,5.2536,5.163,4.8931,4.4995,4.0229,3.5012,3.0512,2.9691,2.9509,2.9509,2.9561,2.9733,2.9878,2.9983,3.0062,3.0287,3.0247,3.0221,3.0127,3.0181,3.0101,3.014,3.0219,3.018,3.0062,3.0035,2.9983,3.0023,2.9944,2.9917,2.9917,2.9931,2.9917,2.9786,2.9707,2.9601,2.9561,2.9626,2.9626,2.9509,2.9509,2.9509,2.9509,2.9509,2.9509,2.9509,2.9509,2.9509,2.9509,2.9482,2.9232,2.9047,2.8995,2.8876,2.8678,2.8493,2.8309,2.8085,5.3493,5.5132,5.319,5.2284,5.212,5.0185,4.9439,4.9356,4.9356,4.9356,4.9403,4.952,4.9848,5.041,5.1183,5.1675,5.1909,5.2284,5.2424,5.2536,5.2536,5.2536,5.2536,5.2536,5.2536,5.2536,5.2536,5.2536,5.2536,5.2536,5.2536,5.2536,5.2536,5.2536,5.2536,5.2536,5.2536,5.2536,5.2536,5.2536,5.2536,5.2536,5.2536,5.2536,5.2536,5.2536,5.2536,5.2536,5.2536,5.2536,5.2536,5.2536,5.2536,5.2536,5.2536,5.2536,5.2536,5.2536,5.1454,4.8576,4.5174,4.1037,3.646,3.1774,3.0147,2.9509,2.9509,2.9509,2.9627,2.9627,2.968,2.9891,2.9957,2.9944,2.9957,2.9865,2.9799,2.9799,2.9825,2.9904,2.9917,2.9852,2.9865,2.9799,2.9733,2.9654,2.9614,2.9614,2.9627,2.9641,2.9588,2.9601,2.9535,2.9535,2.9522,2.9522,2.9509,2.9509,2.9509,2.9509,2.9509,2.9509,2.9509,2.9509,2.9509,2.9443,2.9285,2.9008,2.8757,2.8665,2.8559,2.8401,2.8256,2.8045,2.7861,5.7659,5.8795,5.6112,5.505,5.4723,5.2202,5.1071,5.0823,4.9936,4.9356,4.9356,4.9356,4.9496,4.9895,5.0597,5.1136,5.1417,5.1862,5.212,5.2096,5.2331,5.2536,5.2536,5.2536,5.2536,5.2536,5.2536,5.2536,5.2536,5.2536,5.2536,5.2536,5.2536,5.2536,5.2536,5.2536,5.2536,5.2536,5.2536,5.2536,5.2536,5.2536,5.2536,5.2536,5.2536,5.2536,5.2536,5.2536,5.2536,5.2536,5.2536,5.2536,5.2536,5.2536,5.2536,5.2536,5.2536,5.2536,5.183,4.7065,4.3744,4.0337,3.5917,3.2305,3.0316,2.9509,2.9509,2.9509,2.9509,2.9522,2.9575,2.9667,2.9627,2.9614,2.9693,2.9641,2.9614,2.9522,2.9509,2.9509,2.9535,2.9601,2.9641,2.9627,2.9614,2.9575,2.9561,2.9548,2.9535,2.9509,2.9509,2.9509,2.9509,2.9509,2.9509,2.9509,2.9509,2.9509,2.9509,2.9509,2.9509,2.9496,2.9509,2.9509,2.9351,2.9192,2.9087,2.8721,2.8507,2.8348,2.8142,2.8124,2.8019,2.7834,2.7834,6.1679,6.1518,5.8904,5.7822,5.7415,5.4886,5.3739,5.3411,5.1071,4.9854,5.0185,4.9628,4.9379,4.952,4.9918,5.0424,5.0808,5.1323,5.1651,5.1839,5.212,5.2307,5.2424,5.2536,5.2536,5.2536,5.2536,5.2536,5.2536,5.2536,5.2536,5.2536,5.2536,5.2536,5.2536,5.2536,5.2536,5.2536,5.2536,5.2536,5.2536,5.2536,5.2536,5.2536,5.2536,5.2536,5.2536,5.2536,5.2536,5.2536,5.2536,5.2536,5.2536,5.2536,5.2536,5.2536,5.2536,5.2448,5.1454,4.6866,4.267,4.1486,3.5465,3.1318,3.0512,3.0421,2.9509,2.9509,2.9509,2.9509,2.9509,2.9522,2.9522,2.9535,2.9548,2.9535,2.9522,2.9509,2.9509,2.9509,2.9509,2.9509,2.9509,2.9509,2.9509,2.9509,2.9509,2.9509,2.9509,2.9509,2.9509,2.9509,2.9509,2.9509,2.9509,2.9509,2.9509,2.9509,2.9496,2.9587,2.9521,2.9441,2.9403,2.9232,2.9047,2.8863,2.8704,2.8493,2.8256,2.8111,2.8032,2.7913,2.7808,2.7795,2.7808,6.4354,6.4115,6.1518,6.0469,6.0037,5.7659,5.652,5.5949,5.3657,5.2449,5.2202,5.0492,4.9522,4.9403,4.9626,4.9801,5.0293,5.0808,5.1253,5.1558,5.1815,5.2096,5.2331,5.2536,5.2536,5.2536,5.2536,5.2536,5.2536,5.2536,5.2536,5.2536,5.2536,5.2536,5.2536,5.2536,5.2536,5.2536,5.2536,5.2536,5.2536,5.2536,5.2536,5.2536,5.2536,5.2536,5.2536,5.2536,5.2536,5.2536,5.2536,5.2536,5.2536,5.2536,5.2536,5.2536,5.2536,5.2536,5.1365,4.7599,4.444,4.3993,3.7978,3.4831,3.3214,3.0863,2.9509,2.9509,2.9509,2.9509,2.9509,2.9509,2.9509,2.9509,2.9509,2.9509,2.9509,2.9509,2.9509,2.9509,2.9509,2.9509,2.9509,2.9509,2.9509,2.9509,2.9509,2.9509,2.9509,2.9509,2.9509,2.9509,2.9509,2.9509,2.9509,2.9509,2.9416,2.939,2.9364,2.9285,2.9219,2.9179,2.8968,2.8797,2.8625,2.848,2.8296,2.8111,2.8019,2.7953,2.7861,2.7808,2.7795,2.7795,2.7709,6.5183,6.4993,6.3715,6.3124,6.2643,6.0279,5.9228,5.8823,5.6438,5.5214,5.4477,5.2532,5.1237,5.0906,5.0078,4.9473,4.9848,5.0269,5.0644,5.1019,5.1464,5.1886,5.205,5.2354,5.2424,5.2448,5.2536,5.2536,5.2536,5.2536,5.2536,5.2536,5.2536,5.2536,5.2536,5.2536,5.2536,5.2536,5.2536,5.2536,5.2536,5.2536,5.2536,5.2536,5.2536,5.2536,5.2536,5.2536,5.2536,5.2536,5.2536,5.2536,5.2536,5.2536,5.2536,5.2536,5.2536,5.2536,5.1895,4.7133,4.4529,4.3367,3.6715,3.2941,3.185,3.1045,2.9691,2.9509,2.9509,2.9509,2.9509,2.9509,2.9509,2.9509,2.9509,2.9509,2.9509,2.9509,2.9509,2.9509,2.9509,2.9509,2.9509,2.9509,2.9509,2.9509,2.9509,2.9509,2.9509,2.9509,2.9509,2.9509,2.9509,2.9509,2.9509,2.939,2.9245,2.9205,2.9153,2.9008,2.8915,2.8889,2.8603,2.834,2.823,2.8085,2.7966,2.7966,2.7887,2.7808,2.7709,2.7709,2.7795,2.7709,2.7451,6.5183,6.5183,6.5183,6.5183,6.4754,6.2803,6.1839,6.1437,5.9066,5.7984,5.7578,5.5214,5.3985,5.3329,5.1237,5.0102,5.0304,5.0052,5.0082,5.0386,5.0902,5.1558,5.1745,5.2096,5.226,5.2331,5.2424,5.2448,5.2536,5.2536,5.2536,5.2536,5.2536,5.2536,5.2536,5.2536,5.2536,5.2536,5.2536,5.2536,5.2536,5.2536,5.2536,5.2536,5.2536,5.2536,5.2536,5.2536,5.2536,5.2536,5.2536,5.2536,5.2536,5.2536,5.2536,5.2536,5.2536,5.2536,5.2007,4.6887,4.3655,4.0498,3.6534,3.2669,3.0954,2.9965,2.9235,2.9144,2.9144,2.9326,2.9509,2.9509,2.9509,2.9509,2.9509,2.9509,2.9509,2.9509,2.9509,2.9509,2.9509,2.9509,2.9509,2.9509,2.9509,2.9509,2.9509,2.9509,2.9509,2.9509,2.9482,2.9482,2.9469,2.9443,2.9443,2.9219,2.9034,2.8981,2.8902,2.8668,2.8537,2.851,2.8353,2.7976,2.784,2.7688,2.7761,2.7834,2.7795,2.7709,2.7623,2.7537,2.7193,2.6762,2.6676,6.5183,6.5183,6.5183,6.5183,6.5073,6.4674,6.4354,6.4115,6.1759,6.0602,6.0118,5.7903,5.6683,5.6112,5.3903,5.2778,5.2062,5.0992,5.0339,5.0432,5.0664,5.0878,5.1441,5.1675,5.1768,5.1862,5.219,5.2424,5.2448,5.2536,5.2536,5.2536,5.2536,5.2536,5.2536,5.2536,5.2536,5.2536,5.2536,5.2536,5.2536,5.2536,5.2536,5.2536,5.2536,5.2536,5.2536,5.2536,5.2536,5.2536,5.2536,5.2536,5.2536,5.2536,5.2536,5.2536,5.2536,5.2536,5.1918,5.0393,4.7954,4.5866,4.1037,3.7527,3.3758,3.0772,2.8948,2.8413,2.8596,2.8778,2.9417,2.9509,2.9509,2.9509,2.9509,2.9509,2.9509,2.9509,2.9509,2.9509,2.9509,2.9509,2.9509,2.9509,2.9509,2.9509,2.9509,2.9509,2.9509,2.9496,2.943,2.9403,2.9232,2.9166,2.9126,2.8955,2.8797,2.8642,2.8576,2.8405,2.8322,2.7933,2.7492,2.7369,2.7279,2.7292,2.7279,2.7193,2.7279,2.7623,2.7365,2.6848,2.6332,2.5975,2.5631,6.5183,6.5183,6.5183,6.5183,6.5183,6.5183,6.5183,6.4833,6.3715,6.3314,6.2723,6.0521,5.9471,5.9119,5.6683,5.4559,5.3493,5.3272,5.3011,5.1602,5.0624,5.0471,5.0855,5.0878,5.1206,5.1722,5.1979,5.2237,5.2401,5.2536,5.2536,5.2536,5.2536,5.2536,5.2536,5.2536,5.2536,5.2536,5.2536,5.2536,5.2536,5.2536,5.2536,5.2536,5.2536,5.2536,5.2536,5.2536,5.2536,5.2536,5.2536,5.2536,5.2536,5.2536,5.2536,5.2536,5.2536,5.2536,5.1012,4.8931,4.6332,4.5064,3.8051,3.5012,3.2941,3.0303,2.84,2.8687,2.887,2.8961,2.9417,2.96,2.9509,2.9509,2.9509,2.9509,2.9509,2.9509,2.9509,2.9509,2.9509,2.9509,2.9509,2.9509,2.9509,2.9274,2.9274,2.9273,2.9286,2.9103,2.9155,2.8972,2.8879,2.8773,2.8734,2.8629,2.8357,2.8366,2.8199,2.7942,2.765,2.7152,2.6655,2.6321,2.5987,2.6147,2.6504,2.6233,2.6233,2.6332,2.6332,2.5901,2.5557,2.52,2.4855,6.5183,6.5183,6.5183,6.5183,6.5183,6.5183,6.5183,6.5183,6.5104,6.4913,6.4594,6.2994,6.2081,6.192,5.9309,5.709,5.5867,5.6194,5.5867,5.324,5.1031,5.0277,5.0888,5.0405,5.0753,5.1323,5.1628,5.1979,5.2442,5.2536,5.2536,5.2536,5.2536,5.2536,5.2536,5.2536,5.2536,5.2536,5.2536,5.2536,5.2536,5.2536,5.2536,5.2536,5.2536,5.2536,5.2536,5.2536,5.2536,5.2536,5.2536,5.2536,5.2536,5.2536,5.2536,5.2536,5.2536,5.2536,5.1454,4.7044,4.3099,4.3904,3.7059,3.0576,3.2683,3.0134,2.8583,2.9052,3.0043,3.0667,3.1045,3.141,3.2669,3.276,3.1941,3.1045,3.0695,3.0056,2.96,2.9509,2.9509,2.9417,2.9235,2.9105,2.9026,2.9039,2.8961,2.8947,2.8753,2.8559,2.8392,2.8225,2.8146,2.8118,2.8066,2.7949,2.7981,2.7976,2.7598,2.7283,2.6679,2.6111,2.5704,2.5236,2.4855,2.5114,2.5544,2.5372,2.5458,2.52,2.5028,2.4855,2.4694,2.4424,2.4079,6.5183,6.5183,6.5183,6.5183,6.5183,6.5183,6.5183,6.5183,6.5183,6.5183,6.5024,6.4833,6.4354,6.4514,6.192,6.0521,6.0065,5.8633,5.6275,5.3708,5.1971,5.13,5.2839,5.1414,5.0956,5.1353,5.1574,5.1909,5.226,5.2513,5.2536,5.2536,5.2536,5.2536,5.2536,5.2536,5.2536,5.2536,5.2536,5.2536,5.2536,5.2536,5.2536,5.2536,5.2536,5.2536,5.2536,5.2536,5.2536,5.2536,5.2536,5.2536,5.2536,5.2536,5.2536,5.2536,5.2536,5.2536,5.1719,4.8487,4.6154,4.4797,3.8699,3.4831,3.3653,3.1031,2.8583,2.8583,3.1381,3.2472,3.338,3.6986,3.8159,3.8068,3.6066,3.4816,3.4015,3.1592,2.9509,2.9509,2.9496,2.9052,2.8441,2.8041,2.7967,2.7852,2.7738,2.7625,2.7524,2.7461,2.7398,2.7284,2.7233,2.7382,2.7305,2.7303,2.7299,2.7309,2.6788,2.6332,2.5729,2.5028,2.4683,2.4338,2.3993,2.4079,2.4424,2.4769,2.4941,2.4683,2.4079,2.3906,2.382,2.3561,2.3389,6.5183,6.5183,6.5183,6.5183,6.5183,6.5183,6.5183,6.5183,6.5183,6.5183,6.5183,6.5183,6.5183,6.5073,6.3955,6.2723,6.1518,6.1649,5.9471,5.6275,5.5922,5.5759,5.4913,5.3119,5.2238,5.2609,5.1719,5.1661,5.2043,5.2331,5.2424,5.2401,5.2536,5.2536,5.2489,5.2536,5.2536,5.2536,5.2536,5.2536,5.2536,5.2536,5.2536,5.2536,5.2536,5.2536,5.2536,5.2536,5.2536,5.2448,5.2448,5.2536,5.2536,5.2536,5.2536,5.2536,5.2536,5.2448,5.183,4.9019,4.649,4.444,4.1019,3.6895,3.394,3.2563,3.0394,2.9131,3.0225,3.2291,3.4287,3.6263,3.8519,4.048,3.8939,3.7191,3.5849,3.0974,2.7943,2.7391,2.7391,2.7211,2.684,2.6665,2.6616,2.6567,2.6458,2.6348,2.6227,2.6215,2.6154,2.5971,2.5912,2.6086,2.6049,2.6024,2.6049,2.6037,2.5631,2.5286,2.451,2.3648,2.3389,2.3216,2.3043,2.3043,2.313,2.3302,2.3648,2.3734,2.3216,2.2957,2.2957,2.2784,2.2698,6.4719,6.4826,6.4826,6.4998,6.5152,6.5183,6.5183,6.5183,6.5183,6.5183,6.5183,6.5183,6.5183,6.5104,6.5104,6.4115,6.3154,6.4115,6.2482,5.9253,6.0715,6.0193,5.7677,5.5092,5.3969,5.437,5.3489,5.2441,5.231,5.2938,5.2765,5.2114,5.2043,5.2003,5.205,5.1979,5.2096,5.2237,5.2237,5.2372,5.2489,5.2536,5.2536,5.2536,5.2536,5.2536,5.2536,5.2536,5.2313,5.1756,5.1649,5.1542,5.0835,5.0746,5.0658,5.0658,5.0835,5.0923,5.0215,4.7243,4.5352,4.437,3.9779,3.6353,3.3592,3.2669,3.0758,2.9678,2.9952,3.1668,3.4287,3.6444,3.9059,4.1609,4.0915,3.8837,3.5815,3.0773,2.651,2.5977,2.6001,2.5847,2.5657,2.551,2.535,2.5339,2.5257,2.5239,2.511,2.4976,2.4952,2.4839,2.4781,2.4867,2.4855,2.4781,2.4781,2.4769,2.4596,2.4252,2.3561,2.2871,2.2611,2.2352,2.2611,2.2698,2.2525,2.2439,2.2352,2.2784,2.2525,2.2611,2.2439,2.2352,2.2352,6.3528,6.4163,6.4194,6.4534,6.4949,6.506,6.4998,6.509,6.509,6.4949,6.506,6.4887,6.4949,6.509,6.4856,6.4698,6.4882,6.4918,6.3233,6.1768,6.1906,6.1601,5.9254,5.697,5.5896,5.6009,5.5951,5.5134,5.3496,5.3839,5.3427,5.1347,5.1113,5.0995,5.1113,5.0995,5.13,5.1675,5.1745,5.1956,5.2307,5.2378,5.2378,5.2354,5.2331,5.2243,5.2108,5.1844,5.1067,4.9522,4.9527,4.9087,4.7666,4.7175,4.7425,4.7581,4.7222,4.7446,4.651,4.4429,4.3289,4.4785,3.8398,3.2578,3.5099,3.2085,2.9208,2.7856,2.9935,3.2385,3.4286,3.7516,4.1822,4.5101,4.2717,3.948,3.6118,3.1866,2.7827,2.5994,2.5788,2.5521,2.4565,2.4318,2.4162,2.4094,2.3959,2.3978,2.3899,2.3911,2.3854,2.3831,2.3831,2.3906,2.4165,2.4079,2.3906,2.3906,2.3648,2.3302,2.2698,2.2525,2.2352,2.2352,2.2439,2.2439,2.2352,2.2352,2.2352,2.2352,2.2352,2.2352,2.2352,2.2352,2.2352,6.3158,6.3374,6.3405,6.3559,6.3776,6.3776,6.3776,6.3776,6.3776,6.3776,6.3776,6.3776,6.3776,6.3776,6.3776,6.3776,6.3776,6.3776,6.3228,6.2558,6.2848,6.254,6.1534,6.0417,5.955,5.7929,5.5578,5.4139,5.332,5.2718,5.1904,5.1049,5.0878,5.0855,5.0878,5.0878,5.0949,5.1136,5.1183,5.1277,5.1504,5.1551,5.1464,5.1464,5.1464,5.0944,4.9904,4.8752,4.7794,4.7164,4.7076,4.6922,4.6223,4.607,4.6136,4.6136,4.6136,4.607,4.5961,4.4426,4.3839,4.261,4.1096,3.9049,3.5452,3.6074,3.2516,2.9671,3.0029,3.1238,3.2397,3.4783,3.7618,4.1888,4.1145,3.8899,3.4677,2.9135,2.515,2.4638,2.4027,2.348,2.3218,2.3033,2.3023,2.3001,2.2925,2.2871,2.2871,2.2871,2.2871,2.2881,2.2957,2.313,2.3389,2.3302,2.313,2.3043,2.2957,2.2611,2.2352,2.2352,2.2352,2.2352,2.2352,2.2352,2.2352,2.2352,2.2352,2.2352,2.2352,2.2352,2.2352,2.2352,2.232,6.2509,6.2695,6.2695,6.2818,6.3003,6.3003,6.3003,6.3003,6.3003,6.3003,6.3003,6.3003,6.3003,6.3003,6.3003,6.3003,6.2942,6.254,6.2386,6.2309,6.2278,6.2248,6.2278,6.2278,6.1437,5.9461,5.7006,5.5151,5.372,5.2997,5.15,5.0476,5.0293,5.041,5.0363,5.041,5.0504,5.0621,5.0729,5.0482,5.0085,5.0108,4.9765,4.9422,4.9336,4.8298,4.6431,4.5767,4.5229,4.4647,4.4664,4.4486,4.3987,4.39,4.3814,4.39,4.3814,4.39,4.3814,4.364,4.2463,4.0858,4.1206,3.9513,3.5767,3.5871,3.4537,3.1189,3.0292,3.0734,3.1866,3.2483,3.4689,3.7886,3.8233,3.7209,3.5403,3.0371,2.6307,2.5176,2.4929,2.4929,2.4929,2.3993,2.4004,2.3918,2.2968,2.2439,2.2352,2.2439,2.2352,2.2352,2.2352,2.2525,2.2784,2.2784,2.2698,2.2698,2.2611,2.2352,2.2352,2.2352,2.2352,2.2352,2.2352,2.2352,2.2352,2.2352,2.2352,2.2352,2.232,2.232,2.2352,2.232,2.2257,6.1428,6.2015,6.197,6.2355,6.2787,6.2818,6.2911,6.2849,6.288,6.2787,6.2725,6.288,6.2787,6.288,6.2756,6.288,6.2633,6.1706,6.1243,6.1243,6.1181,6.1181,6.1212,6.1243,6.1018,6.0823,6.1344,5.9127,5.4834,5.5098,5.3365,4.9695,4.97,4.9876,4.9426,4.9376,4.9624,4.9783,4.9707,4.9238,4.8365,4.8171,4.7549,4.613,4.5678,4.4378,4.1864,4.3541,4.3745,4.2438,4.2563,4.1864,4.0521,4.026,4.0054,4.026,4.0054,3.9986,4.0142,4.0192,4.031,3.9614,3.7556,3.6684,3.5619,3.3972,3.2393,3.15,3.1426,3.1455,3.2599,3.4251,3.5595,3.4947,3.5682,3.6553,3.7146,3.5819,3.3317,3.0498,2.9642,3.0241,2.9727,2.7498,2.5606,2.5016,2.3723,2.2352,2.2352,2.2352,2.2352,2.2352,2.2352,2.2352,2.2352,2.2352,2.2342,2.2331,2.2299,2.2331,2.232,2.2352,2.2352,2.2342,2.2331,2.2246,2.2246,2.2172,2.2204,2.2193,2.2257,2.2236,2.2193,2.214,2.2119,6.0792,6.1305,6.1367,6.1459,6.1645,6.1645,6.1645,6.1675,6.1645,6.1645,6.1645,6.1675,6.1675,6.1675,6.1645,6.1675,6.1583,6.1243,6.1027,6.1027,6.1027,6.1027,6.1027,6.1027,6.1027,6.1058,6.1243,5.9889,5.7222,5.6417,5.4428,5.1246,5.1683,5.1154,4.9439,4.8192,4.7761,4.7539,4.6662,4.5887,4.5511,4.5469,4.5194,4.4368,4.2246,4.0494,3.9673,4.0275,4.0333,3.9946,3.9955,3.9688,3.9109,3.9109,3.9023,3.9023,3.9023,3.9023,3.9023,3.9023,3.9041,3.8937,3.8149,3.7635,3.7635,3.6846,3.53,3.3908,3.3477,3.2615,3.2529,3.5128,3.7546,3.7419,3.7348,3.7094,3.5972,3.5122,3.3471,3.1394,3.0782,2.9785,2.8098,2.7141,2.5766,2.3809,2.3032,2.2352,2.2352,2.2352,2.2352,2.2352,2.232,2.231,2.2289,2.2076,2.197,2.2076,2.2087,2.2204,2.2267,2.2331,2.2352,2.232,2.2257,2.2151,2.2055,2.197,2.1917,2.179,2.1949,2.2023,2.196,2.1928,2.179,5.9884,6.0255,6.0255,6.0255,6.0255,6.0255,6.0255,6.0255,6.0286,6.0286,6.0255,6.0255,6.0409,6.07,6.0378,6.0255,6.0255,6.0286,6.0255,6.0255,6.0255,6.0255,6.0255,6.0286,6.0255,6.0286,6.0255,5.933,5.7527,5.6175,5.3983,5.1425,5.0604,4.932,4.7314,4.5995,4.5504,4.5491,4.4597,4.3659,4.3259,4.3175,4.2676,4.1726,3.9453,3.8282,3.8282,3.8282,3.83,3.8282,3.8282,3.8198,3.83,3.841,3.8557,3.862,3.8723,3.8723,3.8723,3.8723,3.8723,3.8723,3.8723,3.8572,3.8723,3.8638,3.796,3.6499,3.6074,3.5294,3.4231,3.6083,3.8282,3.8282,3.818,3.7492,3.6167,3.5663,3.5058,3.3527,3.3037,3.2431,3.112,2.8711,2.6929,2.5156,2.3208,2.2258,2.2098,2.2108,2.2076,2.2098,2.2108,2.2108,2.2023,2.1727,2.1611,2.1738,2.1812,2.1981,2.2013,2.2045,2.2076,2.2023,2.197,2.1801,2.179,2.1706,2.1695,2.1653,2.1642,2.1685,2.1579,2.1685,2.1621,5.8824,5.8958,5.8927,5.9019,5.8958,5.8988,5.8958,5.9081,5.8988,5.8958,5.905,5.9019,5.9328,5.9865,5.9236,5.8927,5.8958,5.9019,5.905,5.905,5.8947,5.8958,5.8927,5.8927,5.8916,5.9112,5.9143,5.8266,5.6727,5.5414,5.2563,4.8882,4.7585,4.545,4.3918,4.3696,4.3274,4.3303,4.3036,4.2476,4.1418,4.1225,4.0083,3.8151,3.7529,3.7565,3.7547,3.7529,3.7529,3.7529,3.7565,3.7547,3.7565,3.7878,3.8227,3.8576,3.8631,3.8631,3.8613,3.8594,3.8594,3.8631,3.8473,3.8546,3.8557,3.8473,3.8389,3.8462,3.8136,3.7965,3.7135,3.7328,3.7538,3.7602,3.7565,3.7565,3.7401,3.7227,3.7447,3.7154,3.6861,3.6485,3.6825,3.2949,3.003,2.8284,2.4936,2.2041,2.2241,2.1789,2.1632,2.1642,2.1632,2.1579,2.1547,2.1442,2.1473,2.1558,2.1558,2.159,2.1579,2.159,2.1611,2.1611,2.159,2.1568,2.1568,2.1537,2.1484,2.1463,2.1442,2.1452,2.1368,2.1494,2.1442,5.8494,5.8896,5.8927,5.8927,5.8927,5.8927,5.8927,5.8927,5.8927,5.8927,5.8927,5.8927,5.8803,5.8525,5.834,5.8454,5.8896,5.8927,5.8927,5.8927,5.8927,5.8927,5.8927,5.8927,5.8927,5.8927,5.8896,5.8658,5.8248,5.7765,5.6054,5.345,5.3005,5.0776,4.6809,4.5082,4.3388,4.1251,3.9795,3.9031,3.8631,3.8586,3.8226,3.7611,3.751,3.751,3.751,3.751,3.751,3.751,3.751,3.751,3.751,3.7602,3.7712,3.7823,3.7841,3.7841,3.7841,3.7841,3.7841,3.7841,3.7841,3.7841,3.7841,3.7841,3.7841,3.7841,3.7841,3.7786,3.7529,3.751,3.751,3.751,3.751,3.751,3.7492,3.751,3.7474,3.751,3.7437,3.751,3.7,3.4646,3.1565,2.9664,2.6622,2.4399,2.4244,2.2729,2.1568,2.159,2.1579,2.1442,2.1053,2.1022,2.1074,2.1148,2.1243,2.1378,2.1547,2.1568,2.1579,2.1431,2.1368,2.1336,2.1243,2.1085,2.1061,2.0979,2.0979,2.1061,2.1043,2.1082,2.104,5.7105,5.7691,5.7691,5.7846,5.8093,5.8124,5.8124,5.8124,5.8124,5.8124,5.8062,5.7506,5.7043,5.6664,5.7012,5.7321,5.7691,5.8,5.8124,5.8124,5.8124,5.8124,5.8124,5.8124,5.791,5.7666,5.7666,5.7676,5.7622,5.7655,5.6184,5.3734,5.2745,5.0026,4.5452,4.4065,4.2012,3.8943,3.7823,3.7014,3.6592,3.6439,3.6518,3.6518,3.6518,3.6439,3.6439,3.6439,3.6592,3.6819,3.6776,3.6831,3.7014,3.7161,3.7253,3.7272,3.7419,3.751,3.751,3.751,3.751,3.751,3.751,3.751,3.751,3.751,3.7363,3.7106,3.7014,3.7014,3.7014,3.7014,3.7014,3.7014,3.7014,3.7014,3.7014,3.7014,3.7014,3.7014,3.7014,3.7014,3.6771,3.5619,3.3571,3.0948,2.7349,2.5108,2.4968,2.2934,2.1459,2.1294,2.1294,2.1074,2.0885,2.079,2.0853,2.0958,2.1001,2.1022,2.1241,2.1283,2.1294,2.1283,2.1167,2.1001,2.099,2.0864,2.079,2.0811,2.079,2.079,2.079,2.079,2.0755,5.5282,5.5845,5.5969,5.6178,5.6734,5.6765,5.6734,5.6765,5.6765,5.6765,5.6502,5.5369,5.4943,5.4875,5.556,5.5938,5.5999,5.6487,5.6765,5.6765,5.6765,5.6765,5.6734,5.6734,5.6386,5.5829,5.575,5.5833,5.5807,5.5742,5.4354,5.1711,4.9471,4.6355,4.2156,4.1674,3.9997,3.6863,3.672,3.6188,3.5082,3.5009,3.5009,3.5009,3.5027,3.5009,3.5101,3.5009,3.5174,3.5659,3.5715,3.588,3.6169,3.6598,3.6782,3.672,3.7051,3.729,3.7253,3.729,3.7216,3.729,3.7253,3.7272,3.729,3.7272,3.6959,3.639,3.6188,3.6267,3.6188,3.6188,3.6188,3.6188,3.6188,3.6188,3.6188,3.6267,3.6188,3.6267,3.6188,3.6188,3.6188,3.5633,3.4585,3.2104,2.7755,2.4658,2.4497,2.2524,2.0853,2.0758,2.0727,2.0716,2.0695,2.0716,2.0685,2.0695,2.0716,2.0716,2.0716,2.0727,2.0727,2.0818,2.0706,2.0695,2.0786,2.0727,2.0776,2.0712,2.0723,2.0776,2.0716,2.0685,2.0916,5.4906,5.5097,5.5097,5.519,5.5313,5.5276,5.5276,5.5246,5.5246,5.5005,5.4597,5.4766,5.4783,5.4814,5.4968,5.5097,5.506,5.5252,5.5344,5.5276,5.5276,5.5344,5.5344,5.5276,5.5178,5.5036,5.5008,5.5066,5.5,5.4398,5.3789,5.3192,5.2519,4.9417,4.4044,4.3915,4.1089,3.5782,3.5412,3.5284,3.5009,3.5009,3.5009,3.5009,3.4991,3.5009,3.5009,3.5009,3.5046,3.5137,3.5137,3.5174,3.5343,3.5357,3.5412,3.5412,3.5504,3.5559,3.5559,3.5559,3.5559,3.5559,3.5912,3.6175,3.6138,3.582,3.5467,3.532,3.532,3.5302,3.532,3.5302,3.5284,3.5284,3.5284,3.532,3.5284,3.5284,3.5284,3.5284,3.5284,3.5302,3.4974,3.3699,3.2631,3.1513,2.7513,2.4559,2.4119,2.2364,2.0772,2.0469,2.0343,2.0364,2.0343,2.0353,2.0364,2.0343,2.0353,2.0385,2.0374,2.0353,2.0353,2.0374,2.0364,2.0385,2.0364,2.0364,2.0374,2.0385,2.0395,2.0374,2.0385,2.0464,2.0797,5.4073,5.4351,5.4351,5.4536,5.4783,5.4477,5.4208,5.3877,5.3234,5.2696,5.246,5.2792,5.2895,5.2991,5.3361,5.3483,5.3483,5.3786,5.3938,5.3938,5.3938,5.3938,5.3938,5.3938,5.3736,5.3398,5.338,5.3217,5.2835,5.2467,5.2368,5.2685,5.2935,5.0976,4.6969,4.5473,4.2238,3.7248,3.5383,3.4459,3.4459,3.4257,3.4166,3.4241,3.3982,3.3891,3.3909,3.3909,3.4074,3.4441,3.4459,3.4624,3.4972,3.4826,3.4716,3.4716,3.4716,3.4642,3.4459,3.4789,3.5009,3.5009,3.5288,3.5251,3.496,3.4917,3.5009,3.5009,3.5009,3.5009,3.5009,3.5009,3.5009,3.5009,3.5009,3.5009,3.5009,3.5009,3.5009,3.5009,3.5009,3.5009,3.5009,3.3915,3.3129,3.2838,3.0093,2.6701,2.453,2.2136,2.0459,2.0247,2.0262,2.0262,2.0195,2.0262,2.0262,2.0262,2.0262,2.0262,2.0262,2.0273,2.0273,2.0262,2.0273,2.0262,2.0273,2.0262,2.0262,2.0262,2.0262,2.0262,2.0419,2.1124,2.1601,5.2887,5.3374,5.3374,5.368,5.4201,5.3628,5.309,5.2462,5.1033,5.0466,5.0627,5.0692,5.0728,5.0787,5.1452,5.169,5.172,5.2351,5.2551,5.2551,5.2551,5.2619,5.2619,5.2551,5.2185,5.1644,5.1597,5.1306,5.0779,5.0756,5.1029,5.1655,5.2195,5.1602,4.9703,4.6301,4.3021,4.0029,3.6272,3.4188,3.3781,3.3524,3.3341,3.3322,3.3047,3.2808,3.2753,3.2771,3.3065,3.3671,3.3652,3.3964,3.4679,3.4331,3.4204,3.4129,3.4129,3.4057,3.3671,3.4276,3.4661,3.4679,3.4771,3.4496,3.3744,3.4276,3.4661,3.4661,3.4661,3.4752,3.4752,3.4771,3.4789,3.4807,3.4826,3.4826,3.4789,3.4789,3.4771,3.4771,3.4844,3.4807,3.4676,3.4313,3.3684,3.3338,3.0268,2.827,2.4057,2.1503,2.0245,2.0089,2.0167,2.0089,2.0036,2.0078,2.0047,2.0089,2.0057,2.0026,2.0026,2.0026,2.0026,2.0068,2.0036,2.0047,2.0057,2.0089,2.0047,2.0026,2.0026,2.0036,2.0114,2.1708,2.2619,5.1209,5.1298,5.1233,5.1388,5.1412,5.1346,5.1215,5.0988,0.0,0.0,0.0,5.0496,5.0728,5.0757,5.0846,5.0971,5.0935,5.1024,5.1083,5.1149,5.1083,5.1083,5.1083,5.1083,5.1017,5.0915,5.0914,5.1103,5.1489,5.139,5.1655,5.2252,5.2423,5.2352,5.1595,4.6265,4.2835,4.1647,3.8514,3.5846,3.3929,3.3726,3.3763,3.3689,3.3616,3.3506,3.3157,3.3138,3.3212,3.3341,3.2974,3.3083,3.3524,3.3194,3.2973,3.2992,3.2992,3.2955,3.2881,3.301,3.3102,3.3083,3.3634,3.3745,3.2936,3.2938,3.3102,3.3011,3.3377,3.3579,3.3506,3.3799,3.4019,3.4019,3.4019,3.4019,3.4019,3.4019,3.4037,3.4019,3.4037,3.4019,3.4056,3.245,3.0453,2.8427,2.6603,2.3538,2.1121,2.0134,1.9645,1.9645,1.9666,1.9548,1.9613,1.9624,1.9603,1.9569,1.9635,1.9603,1.9603,1.9603,1.9603,1.9645,1.9603,1.9613,1.9613,1.9613,1.9603,1.9603,1.9603,1.9527,1.9723,2.1167,2.235,5.0253,5.0283,5.0609,5.0728,0.0,5.0401,5.0038,4.9681,4.9025,4.896,4.9317,4.9616,4.9776,4.9747,4.9747,4.9776,4.9776,4.9776,4.9747,4.9747,4.9776,4.9747,4.9747,4.9747,4.9776,4.9776,4.9765,4.9921,5.02,5.015,5.0403,5.1029,5.1029,5.12,5.1415,4.8428,4.5649,4.3159,3.9283,3.6679,3.5387,3.3769,3.2936,3.2936,3.2753,0.0,0.0,0.0,0.0,0.0,0.0,0.0,0.0,0.0,0.0,3.2073,3.2055,3.1871,3.1504,3.2,3.2257,3.2073,3.2808,3.2918,3.211,3.244,3.2661,3.2661,3.2845,3.2955,3.2955,3.3138,3.3194,3.3194,3.3194,3.3176,3.3213,3.3432,3.3469,3.3579,3.3671,3.3799,3.3799,3.176,2.9809,2.8542,2.5413,2.2845,2.1666,2.0308,1.9476,1.9476,1.9476,1.9476,1.9476,1.9476,1.9476,1.9476,1.9476,1.9476,1.9476,1.9476,1.9476,1.9465,1.9295,1.9222,1.9222,1.9201,1.9127,1.9138,1.9138,1.9138,1.9191,2.0773,2.2245,4.9454,4.9665,5.013,5.0365,5.0336,4.955,4.9,4.8592,4.8592,4.8649,4.8762,4.8649,4.8592,4.8592,4.8592,4.8743,4.8762,4.8791,4.8791,4.8791,4.8791,4.8791,4.8791,4.8791,4.8791,4.8791,4.8791,4.8819,4.8962,4.8962,4.9209,4.971,4.9739,4.9938,5.0307,0.0,0.0,0.0,4.0671,3.7911,3.6938,3.4338,3.2709,3.2147,3.1922,0.0,3.1646,3.1646,3.1706,3.2088,3.1963,0.0,0.0,0.0,0.0,0.0,0.0,0.0,0.0,0.0,0.0,0.0,3.154,3.1632,3.1081,3.1669,3.2128,3.2202,3.2349,3.244,3.244,3.2569,3.2661,3.2661,3.2661,3.2661,3.2661,3.2863,3.3047,3.312,3.3359,3.3561,3.3542,3.2101,3.0767,3.0016,2.6523,2.3598,2.2421,2.023,1.8971,1.8947,1.8493,1.8569,1.8947,1.9249,1.939,1.9337,1.9337,1.9381,1.9339,1.9328,1.9339,1.9328,1.9191,1.9064,1.899,1.8916,1.8894,1.8873,1.8873,1.8685,1.8403,1.9443,2.0511,4.8395,4.8911,4.8997,4.9054,4.8939,4.7723,4.7488,4.7936,4.7936,4.825,4.8734,4.8193,4.7965,4.7936,4.7936,4.825,4.8762,4.8791,4.8791,4.8791,4.8791,4.8791,4.8791,4.8791,4.8791,4.8791,4.8791,4.9047,4.9493,4.9455,4.9834,5.0432,5.0392,5.0165,4.9682,4.9209,4.8735,4.817,4.5302,4.157,3.7058,3.6543,3.5108,3.273,3.2532,3.2349,3.1981,3.2033,3.1981,3.2088,3.1724,3.1559,3.1595,3.1278,3.0707,0.0,2.9785,0.0,0.0,0.0,0.0,0.0,0.0,0.0,0.0,2.9675,3.0163,3.0597,3.126,3.1614,3.1614,3.2238,3.2661,3.2661,3.2661,3.2661,3.2642,3.2385,3.233,3.2698,3.2459,3.2569,3.3194,3.3103,3.2132,3.0199,2.7555,2.4537,2.053,1.8321,1.7271,1.7348,1.6145,1.5973,1.7131,1.8453,1.9134,1.9042,1.8841,1.9032,1.8769,1.8822,1.8895,1.8895,1.8874,1.8905,1.8915,1.8883,1.8851,1.883,1.8653,1.8042,1.6597,1.5755,1.4596,4.6626,4.7224,4.7566,4.731,4.6655,4.6364,4.645,4.6734,4.7139,4.7253,4.7167,4.6819,4.6769,4.6706,4.6706,4.7139,4.7709,4.7709,4.7908,4.825,4.825,4.8421,4.8762,4.8791,4.8791,4.8791,4.8791,4.8905,4.9095,4.9123,4.9266,4.9588,4.9522,4.8867,4.7587,4.6905,4.7025,4.7709,4.6539,4.3564,3.8792,3.5565,3.3309,3.2051,3.2,3.1908,3.1724,3.1724,3.1614,3.1444,3.1278,3.0965,3.0457,3.0052,2.9465,0.0,0.0,0.0,0.0,0.0,0.0,0.0,0.0,0.0,0.0,0.0,2.9042,2.9226,2.9777,3.0199,3.042,3.0769,3.1063,3.137,3.1388,3.1228,3.0921,3.1412,3.1683,3.1425,3.1742,3.2091,3.222,3.1304,2.9762,2.7658,2.6958,2.5213,2.1205,1.8751,1.6928,1.5642,1.4713,1.4567,1.5223,1.5951,1.6342,1.6268,1.624,1.6259,1.6277,1.6928,1.7483,1.7582,1.8176,1.8599,1.8671,1.8504,1.8409,1.8153,1.6996,1.5546,1.4535,1.4747,1.5147,4.5198,4.5625,4.5539,4.5027,4.4316,4.48,4.517,4.5454,4.5938,4.5881,4.5397,4.5283,4.5141,4.4999,4.5141,4.5568,4.6137,4.6279,4.6769,4.7367,4.7367,4.7709,4.8307,4.8307,4.8307,4.8335,4.8307,4.8335,4.8307,4.8164,4.8164,4.8307,4.8022,4.7139,4.5682,4.5312,4.5625,4.6626,4.6797,4.4785,4.0519,3.4862,3.1644,3.1114,3.1046,3.0991,3.0968,3.1105,3.0903,3.0366,3.0415,2.9928,2.897,2.8516,0.0,0.0,0.0,0.0,0.0,0.0,0.0,0.0,0.0,2.63,2.6314,0.0,2.7378,0.0,2.8088,2.8669,2.9089,2.9162,0.0,0.0,2.9698,2.9506,2.9261,2.9953,3.0396,3.0016,3.075,3.1283,3.1241,2.9916,2.7448,2.3426,2.3689,2.3247,2.0193,1.7777,1.5637,1.3808,1.3047,1.2953,1.3329,1.3377,1.3612,1.387,1.406,1.403,1.4048,1.4993,1.5744,1.5825,1.6673,1.7126,1.7128,1.7068,1.6879,1.6779,1.4645,1.2656,1.2723,1.4197,1.5533,4.4942,4.48,4.261,4.1955,4.2382,4.2439,4.3035,4.4058,4.4114,4.4114,4.4029,4.3577,4.3066,4.2524,4.3065,0.0,4.4171,4.48,4.5397,4.6023,4.6023,4.6336,4.6962,4.7025,4.6962,4.7025,4.6962,4.7025,4.6997,4.6455,4.6393,4.6968,4.5795,4.5141,4.5027,4.5511,4.5824,4.5938,4.6507,4.5108,4.1681,3.5928,3.1921,2.995,2.9883,2.9705,2.9416,3.0014,2.9899,2.8846,2.8894,2.844,2.7252,0.0,0.0,0.0,0.0,0.0,0.0,0.0,0.0,0.0,0.0,0.0,0.0,0.0,0.0,0.0,2.6168,0.0,2.7897,2.8136,0.0,0.0,0.0,2.7695,2.8187,2.7956,2.8092,2.897,0.0,0.0,3.0321,3.061,2.7248,1.7716,1.7018,1.6617,1.4562,1.3119,1.1658,1.1909,1.054,1.0046,1.1411,1.1769,1.2253,1.3298,1.3929,1.3691,1.3525,1.3721,1.3735,1.3708,1.3729,1.3879,1.3697,1.3724,1.364,1.3623,1.2191,1.1074,1.106,1.2049,1.2845,4.2012,4.0883,3.9601,3.9209,3.9396,3.9787,4.0374,4.116,4.1529,4.17,4.1728,4.15,4.1074,4.045,4.1131,0.0,0.0,0.0,4.3235,4.4203,4.4203,4.4743,4.5625,4.5653,4.5682,4.5653,4.5653,4.5682,4.5653,4.5397,4.4686,4.3435,0.0,0.0,4.2233,4.2766,4.3262,4.3714,4.4633,4.3813,4.1106,3.7218,3.312,2.9006,2.8805,2.8614,2.825,2.8495,2.8174,2.708,2.7108,2.6584,0.0,0.0,0.0,0.0,0.0,0.0,0.0,0.0,0.0,0.0,0.0,2.2497,2.2651,0.0,0.0,0.0,2.446,2.5177,2.5656,2.5778,0.0,0.0,0.0,0.0,0.0,0.0,0.0,2.6503,2.7235,2.7237,2.5593,2.668,2.6188,2.2115,2.1752,2.0847,1.7967,0.0,1.3925,1.2258,1.0127,0.8919,0.9526,1.0935,1.164,1.0621,1.0383,1.0383,1.0499,1.1211,1.1793,1.1962,1.2681,1.3272,1.3208,1.1454,1.004,1.0034,0.9539,0.9124,0.9118,0.9502,0.9854,3.9178,0.0,0.0,0.0,0.0,3.7751,3.8399,3.9073,3.9525,3.9746,3.9765,3.9737,0.0,0.0,0.0,0.0,0.0,0.0,4.1217,4.2297,4.2325,4.2866,4.3833,4.3861,4.3861,4.3861,4.3802,4.3861,4.3774,4.3139,4.1923,4.0209,0.0,0.0,0.0,0.0,4.098,4.1424,4.2547,4.1629,3.8506,3.6669,3.2998,2.738,2.7361,2.7189,2.6817,2.6907,2.6475,2.5466,2.5313,0.0,0.0,0.0,0.0,0.0,0.0,0.0,0.0,0.0,0.0,0.0,0.0,0.0,0.0,0.0,0.0,0.0,0.0,0.0,2.3489,2.3727,2.3947,0.0,0.0,0.0,0.0,0.0,0.0,0.0,0.0,0.0,2.1474,2.1939,2.2269,0.0,0.0,1.9589,1.7128,1.5943,1.4675,1.2574,1.1217,0.0,1.0388,1.1474,1.1596,0.9655,0.8625,0.8135,0.8432,0.9335,1.0069,1.0186,1.1062,1.1732,1.1564,1.013,0.9195,0.8924,0.8936,0.901,0.8912,0.8962,0.9382,0.0,0.0,0.0,0.0,0.0,0.0,0.0,0.0,3.8457,3.8467,0.0,3.8457,0.0,0.0,0.0,0.0,0.0,3.9058,0.0,0.0,4.0308,4.0677,4.133,4.1387,4.1358,4.1358,4.1302,4.1302,4.1133,3.9021,0.0,0.0,0.0,0.0,0.0,0.0,3.9569,3.9594,4.0711,3.8687,3.3709,3.3607,3.0968,2.5423,2.5418,2.5371,2.4993,2.5345,2.4956,2.383,2.3559,0.0,0.0,0.0,0.0,0.0,0.0,0.0,0.0,0.0,0.0,0.0,0.0,0.0,0.0,0.0,0.0,0.0,0.0,0.0,0.0,2.2428,0.0,0.0,0.0,0.0,0.0,0.0,0.0,0.0,0.0,0.0,1.8964,1.6963,1.4719,1.2364,0.0,0.0,0.0,0.0,1.2207,1.2048,1.3823,1.5264,1.5192,1.3325,1.1939,1.1993,0.0,0.0,0.865,0.8578,0.8494,0.8445,0.8483,0.8268,0.8104,0.9907,1.1242,1.0904,1.1017,1.1319,1.1061,1.1202,1.2336,0.0,0.0,0.0,0.0,0.0,0.0,0.0,0.0,0.0,3.5297,0.0,3.5689,0.0,0.0,0.0,0.0,0.0,0.0,0.0,0.0,3.8273,3.8997,3.9939,3.9939,3.9777,0.0,3.9424,3.8477,0.0,0.0,0.0,0.0,0.0,0.0,0.0,0.0,3.7684,3.7751,3.883,3.8701,3.7088,3.4027,3.1352,2.9348,2.6178,2.4189,2.3612,2.3494,2.2911,0.0,0.0,0.0,0.0,0.0,0.0,0.0,0.0,0.0,0.0,0.0,0.0,0.0,0.0,0.0,0.0,0.0,0.0,0.0,0.0,0.0,0.0,0.0,2.0827,0.0,0.0,0.0,0.0,0.0,0.0,0.0,0.0,0.0,2.067,1.8471,1.7354,1.8356,1.6548,1.5874,1.7782,0.0,0.0,0.0,0.0,0.0,0.0,0.0,1.1493,0.9483,1.0005,1.0072,0.8295,0.7924,0.7904,0.8051,0.0,0.0,0.7564,0.8301,0.8889,0.8679,0.9913,1.0974,1.0854,1.2175,1.3714,0.0,0.0,0.0,0.0,0.0,0.0,0.0,0.0,0.0,3.3062,3.3585,0.0,0.0,0.0,0.0,0.0,0.0,0.0,0.0,0.0,0.0,0.0,3.7544,3.7572,0.0,0.0,0.0,0.0,0.0,0.0,0.0,0.0,0.0,0.0,0.0,0.0,3.6293,3.6514,3.6645,3.6588,3.6292,3.2289,2.9719,2.8878,2.5475,2.3302,2.2792,0.0,0.0,0.0,0.0,0.0,0.0,0.0,0.0,0.0,0.0,0.0,0.0,0.0,0.0,0.0,0.0,0.0,0.0,0.0,0.0,0.0,0.0,0.0,0.0,0.0,1.9547,0.0,0.0,0.0,0.0,0.0,0.0,0.0,0.0,0.0,0.0,0.0,1.8223,1.9458,1.7645,1.6612,1.7841,1.7449,1.7104,0.0,0.0,0.0,0.0,0.0,0.0,0.0,0.0,0.0,0.0,0.0,0.0,0.0,0.0,0.7772,0.8386,0.9226,1.0021,1.0586,0.0,0.0,0.0,0.0,0.0,0.0,0.0,0.0,0.0,0.0,0.0,0.0,0.0,0.0,0.0,3.2356,0.0,0.0,3.1546,0.0,0.0,0.0,0.0,0.0,0.0,0.0,0.0,0.0,0.0,0.0,0.0,0.0,0.0,0.0,0.0,0.0,0.0,0.0,0.0,0.0,0.0,3.5266,3.5863,3.4219,3.255,3.0967,2.8395,2.6097,2.3692,2.3108,2.2717,2.2323,0.0,0.0,0.0,0.0,0.0,0.0,0.0,0.0,0.0,0.0,0.0,0.0,0.0,0.0,0.0,0.0,0.0,0.0,0.0,0.0,0.0,0.0,0.0,0.0,0.0,0.0,1.9642,1.9769,1.9769,0.0,0.0,0.0,0.0,0.0,0.0,0.0,0.0,0.0,0.0,1.2402,1.0203,0.8488,0.9999,1.1821,1.1482,1.3617,1.5185,1.5117,1.3134,1.2302,0.0,0.0,0.0,0.0,0.0,0.0,0.0,0.0,0.0,0.0,0.0,0.0,0.0,0.0,0.0,0.0,0.0,0.0,0.0,0.0,0.0,0.0,0.0,0.0,0.0,0.0,0.0,0.0,0.0,0.0,0.0,0.0,0.0,0.0,0.0,0.0,0.0,0.0,0.0,0.0,0.0,0.0,0.0,0.0,0.0,0.0,0.0,0.0,0.0,0.0,0.0,0.0,0.0,0.0,3.4358,3.5266,3.519,3.4182,3.2335,3.0421,2.8051,2.5343,2.3469,2.2228,0.0,0.0,0.0,0.0,0.0,0.0,0.0,0.0,0.0,0.0,0.0,0.0,0.0,0.0,0.0,0.0,0.0,0.0,0.0,0.0,0.0,0.0,0.0,0.0,0.0,0.0,0.0,0.0,1.8566,1.8898,1.9373,0.0,0.0,0.0,0.0,0.0,0.0,0.0,0.0,0.0,0.0,1.2486,1.4254,1.5145,1.5358,1.4571,1.5943,1.6565,1.5235,1.4186,1.3656,1.4093,0.0,0.0,0.0,0.0,0.0,0.0,0.0,0.0,0.0,0.0,0.0,0.0,0.0,0.0,0.0,0.0,0.0,0.0,0.0,0.0,0.0,0.0,0.0,0.0,0.0,0.0,0.0,0.0,0.0,0.0,0.0,0.0,0.0,0.0,0.0,0.0,0.0,0.0,0.0,0.0,0.0,0.0,0.0,0.0,0.0,0.0,0.0,0.0,0.0,0.0,0.0,0.0,0.0,3.3683,3.4954,3.4722,3.3593,3.1648,2.9842,2.7569,2.4722,2.305,2.1897,0.0,0.0,0.0,0.0,0.0,0.0,0.0,0.0,0.0,0.0,0.0,0.0,0.0,0.0,0.0,0.0,0.0,0.0,0.0,0.0,0.0,0.0,0.0,0.0,0.0,0.0,0.0,0.0,1.7917,1.8265,1.8803,0.0,0.0,0.0,0.0,0.0,0.0,0.0,0.0,0.0,0.0,1.2709,1.3958,1.4152,0.0,0.0,1.3607,1.4075,1.2236,1.18,1.2238,1.3659,1.391,0.0,0.0,0.0,0.0,0.0,0.0,0.0,0.0,0.0,0.0,0.0,0.0,0.0,0.0,0.0,0.0,0.0,0.0,0.0,0.0,0.0,0.0,0.0,0.0,0.0,0.0,0.0,0.0,0.0,0.0,0.0,0.0,0.0,0.0,0.0,0.0,0.0,0.0,0.0,0.0,0.0,0.0,0.0,0.0,0.0,0.0,0.0,0.0,0.0,0.0,0.0,0.0,0.0,3.4589,3.3121,3.1253,2.9138,2.7435,2.5228,2.2437,2.196,2.1612,0.0,0.0,0.0,0.0,0.0,0.0,0.0,0.0,0.0,0.0,0.0,0.0,0.0,0.0,0.0,0.0,0.0,0.0,0.0,0.0,0.0,0.0,0.0,0.0,0.0,0.0,0.0,0.0,0.0,0.0,0.0,0.0,0.0,0.0,0.0,0.0,0.0,0.0,0.0,0.0,0.0,1.1306,0.9082,0.8872,0.8329,0.0,0.843,0.9567,0.808,0.8019,0.9462,1.3581,0.0,0.0,0.0,0.0,0.0,0.0,0.0,0.0,0.0,0.0,0.0,0.0,0.0,0.0,0.0,0.0,0.0,0.0,0.0,0.0,0.0,0.0,0.0,0.0,0.0,0.0,0.0,0.0,0.0,0.0,0.0,0.0,0.0,0.0,0.0,0.0,0.0,0.0,0.0,0.0,0.0,0.0,0.0,0.0,0.0,0.0,0.0,0.0,0.0,0.0,0.0,0.0,0.0,0.0,3.1879,3.1853,3.0033,2.6425,2.5943,2.4559,2.2,2.1612,0.0,0.0,0.0,0.0,0.0,0.0,0.0,0.0,0.0,0.0,0.0,0.0,0.0,0.0,0.0,0.0,0.0,0.0,0.0,0.0,0.0,0.0,0.0,0.0,0.0,0.0,0.0,1.6403,0.0,0.0,0.0,0.0,0.0,0.0,0.0,0.0,0.0,0.0,0.0,0.0,0.0,0.0,1.0192,0.9419,1.0112,1.0166,0.0,0.0,1.4133,1.4198,1.4513,1.5188,0.0,0.0,0.0,0.0,0.0,0.0,0.0,0.0,0.0,0.0,0.0,0.0,0.0,0.0,0.0,0.0,0.0,0.0,0.0,0.0,0.0,0.0,0.0,0.0,0.0,0.0,0.0,0.0,0.0,0.0,0.0,0.0,0.0,0.0,0.0,0.0,0.0,0.0,0.0,0.0,0.0,0.0,0.0,0.0,0.0,0.0,0.0,0.0,0.0,0.0,0.0,0.0,0.0,0.0,3.1799,3.2011,3.2719,3.0946,2.6662,2.6802,2.5276,2.1668,2.132,2.076,0.0,0.0,0.0,0.0,0.0,0.0,0.0,0.0,0.0,0.0,0.0,0.0,0.0,0.0,0.0,0.0,0.0,0.0,0.0,0.0,0.0,0.0,0.0,0.0,0.0,0.0,0.0,0.0,0.0,0.0,0.0,0.0,0.0,0.0,0.0,0.0,0.0,0.0,0.0,0.0,0.0,0.0,0.9905,1.0647,0.0,0.0,0.0,1.5447,1.5082,0.0,0.0,0.0,0.0,0.0,0.0,0.0,0.0,0.0,0.0,0.0,0.0,0.0,0.0,0.0,0.0,0.0,0.0,0.0,0.0,0.0,0.0,0.0,0.0,0.0,0.0,0.0,0.0,0.0,0.0,0.0,0.0,0.0,0.0,0.0,0.0,0.0,0.0,0.0,0.0,0.0,0.0,0.0,0.0,0.0,0.0,0.0,0.0,0.0,0.0,0.0,0.0,0.0,0.0,0.0,0.0,0.0,3.2814,3.3869,3.2122,2.7808,2.8343,2.6404,2.1483,2.1186,2.0711,0.0,0.0,0.0,0.0,0.0,0.0,0.0,0.0,0.0,0.0,0.0,0.0,0.0,0.0,0.0,0.0,0.0,0.0,0.0,0.0,0.0,0.0,0.0,0.0,0.0,0.0,0.0,0.0,0.0,0.0,0.0,0.0,0.0,0.0,0.0,0.0,0.0,0.0,0.0,0.0,0.0,1.0521,1.0443,1.0739,1.1116,0.0,0.0,1.4917,1.3544,1.1602,0.0,0.0,0.0,0.0,0.0,0.0,0.0,0.0,0.0,0.0,0.0,0.0,0.0,0.0,0.0,0.0,0.0,0.0,0.0,0.0,0.0,0.0,0.0,0.0,0.0,0.0,0.0,0.0,0.0,0.0,0.0,0.0,0.0,0.0,0.0,0.0,0.0,0.0,0.0,0.0,0.0,0.0,0.0,0.0,0.0,0.0,0.0,0.0,0.0,0.0,0.0,0.0,0.0,0.0,0.0,0.0,2.949,3.0397,2.8853,2.4902,2.6655,2.5562,2.1154,2.238,2.1932,0.0,0.0,0.0,0.0,0.0,0.0,0.0,0.0,0.0,0.0,0.0,0.0,0.0,0.0,0.0,0.0,0.0,0.0,0.0,0.0,0.0,0.0,0.0,0.0,0.0,0.0,0.0,0.0,0.0,0.0,0.0,0.0,0.0,0.0,0.0,0.0,0.0,0.0,0.0,0.0,0.0,1.0066,1.0977,1.0716,0.0,0.0,0.0,0.0,1.5181,1.4721,0.0,0.0,0.0,0.0,0.0,0.0,0.0,0.0,0.0,0.0,0.0,0.0,0.0,0.0,0.0,0.0,0.0,0.0,0.0,0.0,0.0,0.0,0.0,0.0,0.0,0.0,0.0,0.0,0.0,0.0,0.0,0.0,0.0,0.0,0.0,0.0,0.0,0.0,0.0,0.0,0.0,0.0,0.0,0.0,0.0,0.0,0.0,0.0,0.0,0.0,0.0,0.0,0.0,0.0,0.0,0.0,2.7214,2.8658,2.7582,2.3948,2.5724,2.4777,2.0734,2.1214,2.0763,0.0,0.0,0.0,0.0,0.0,0.0,0.0,0.0,0.0,0.0,0.0,0.0,0.0,0.0,0.0,0.0,0.0,0.0,0.0,0.0,0.0,0.0,0.0,0.0,0.0,0.0,0.0,0.0,0.0,0.0,0.0,0.0,0.0,0.0,0.0,0.0,0.0,0.0,0.0,0.0,1.1628,1.1576,1.1382,0.0,0.0,0.0,0.0,0.0,0.0,1.4109,1.3802,0.0,0.0,0.0,0.0,0.0,0.0,0.0,0.0,0.0,0.0,0.0,0.0,0.0,0.0,0.0,0.0,0.0,0.0,0.0,0.0,0.0,0.0,0.0,0.0,0.0,0.0,0.0,0.0,0.0,0.0,0.0,0.0,0.0,0.0,0.0,0.0,0.0,0.0,0.0,0.0,0.0,0.0,0.0,0.0,0.0,0.0,0.0,0.0,0.0,0.0,0.0,0.0,0.0,0.0,0.0,2.6238,2.8274,2.7696,2.4603,2.5887,2.4683,2.0734,2.0014,1.9365,1.8629,0.0,0.0,0.0,0.0,0.0,0.0,0.0,0.0,0.0,0.0,0.0,0.0,0.0,0.0,0.0,0.0,0.0,0.0,0.0,0.0,0.0,0.0,0.0,0.0,0.0,0.0,0.0,0.0,0.0,0.0,0.0,0.0,0.0,0.0,0.0,0.0,0.0,0.0,0.0,1.3517,1.33,0.0,0.0,0.0,0.0,0.0,0.0,0.0,0.0,1.225,0.0,0.0,0.0,0.0,0.0,0.0,0.0,0.0,0.0,0.0,0.0,0.0,0.0,0.0,0.0,0.0,0.0,0.0,0.0,0.0,0.0,0.0,0.0,0.0,0.0,0.0,0.0,0.0,0.0,0.0,0.0,0.0,0.0,0.0,0.0,0.0,0.0,0.0,0.0,0.0,0.0,0.0,0.0,0.0,0.0,0.0,0.0,0.0,0.0,0.0,0.0,0.0,0.0,0.0,0.0,0.0,2.9863,2.9549,2.7825,2.8532,2.6735,2.2028,2.179,2.0644,1.8406,0.0,0.0,0.0,0.0,0.0,0.0,0.0,0.0,0.0,0.0,0.0,0.0,0.0,0.0,0.0,0.0,0.0,0.0,0.0,0.0,0.0,0.0,0.0,0.0,0.0,0.0,0.0,0.0,0.0,0.0,0.0,0.0,0.0,0.0,0.0,0.0,0.0,0.0,1.3902,1.3515,0.0,0.0,0.0,0.0,0.0,0.0,0.0,0.0,1.0893,0.0,0.0,0.0,0.0,0.0,0.0,0.0,0.0,0.0,0.0,0.0,0.0,0.0,0.0,0.0,0.0,0.0,0.0,0.0,0.0,0.0,0.0,0.0,0.0,0.0,0.0,0.0,0.0,0.0,0.0,0.0,0.0,0.0,0.0,0.0,0.0,0.0,0.0,0.0,0.0,0.0,0.0,0.0,0.0,0.0,0.0,0.0,0.0,0.0,0.0,0.0,0.0,0.0,0.0,0.0,0.0,0.0,0.0,2.5657,2.338,2.4657,2.3907,2.0851,2.104,2.0278,0.0,0.0,0.0,0.0,0.0,0.0,0.0,0.0,0.0,0.0,0.0,0.0,0.0,0.0,0.0,0.0,0.0,0.0,0.0,0.0,0.0,0.0,0.0,0.0,0.0,0.0,0.0,0.0,0.0,0.0,0.0,0.0,0.0,0.0,0.0,0.0,0.0,0.0,0.0,0.0,0.0,0.0,0.0,0.0,0.0,0.0,0.0,0.0,0.0,0.0,0.0,0.0,0.0,0.0,0.0,0.0,0.0,0.0,0.0,0.0,0.0,0.0,0.0,0.0,0.0,0.0,0.0,0.0,0.0,0.0,0.0,0.0,0.0,0.0,0.0,0.0,0.0,0.0,0.0,0.0,0.0,0.0,0.0,0.0,0.0,0.0,0.0,0.0,0.0,0.0,0.0,0.0,0.0,0.0,0.0,0.0,0.0,0.0,0.0,0.0,0.0,0.0,0.0,0.0,0.0,0.0,0.0,0.0,2.3258,2.0609,2.215,2.2194,2.0456,2.0065,1.9104,0.0,0.0,0.0,0.0,0.0,0.0,0.0,0.0,0.0,0.0,0.0,0.0,0.0,0.0,0.0,0.0,0.0,0.0,0.0,0.0,0.0,0.0,0.0,0.0,0.0,0.0,0.0,0.0,0.0,0.0,0.0,0.0,0.0,0.0,0.0,0.0,0.0,0.0,0.0,0.0,0.0,0.0,0.0,0.0,0.0,0.0,0.0,0.0,0.9074,0.0,0.0,0.0,0.0,0.0,0.0,0.0,0.0,0.0,0.0,0.0,0.0,0.0,0.0,0.0,0.0,0.0,0.0,0.0,0.0,0.0,0.0,0.0,0.0,0.0,0.0,0.0,0.0,0.0,0.0,0.0,0.0,0.0,0.0,0.0,0.0,0.0,0.0,0.0,0.0,0.0,0.0,0.0,0.0,0.0,0.0,0.0,0.0,0.0,0.0,0.0,0.0,0.0,0.0,0.0,0.0,0.0,0.0,0.0,2.7802,2.6326,2.6876,2.6144,2.412,1.9816,1.7225,0.0,0.0,0.0,0.0,0.0,0.0,0.0,0.0,0.0,0.0,0.0,0.0,0.0,0.0,0.0,0.0,0.0,0.0,0.0,0.0,0.0,0.0,0.0,0.0,0.0,0.0,0.0,0.0,0.0,0.0,0.0,0.0,0.0,0.0,0.0,0.0,0.0,0.0,0.0,0.0,0.0,0.0,0.0,0.0,0.0,0.0,0.0,0.0,0.0,0.0,0.0,0.0,0.0,0.0,0.0,0.0,0.0,0.0,0.0,0.0,0.0,0.0,0.0,0.0,0.0,0.0,0.0,0.0,0.0,0.0,0.0,0.0,0.0,0.0,0.0,0.0,0.0,0.0,0.0,0.0,0.0,0.0,0.0,0.0,0.0,0.0,0.0,0.0,0.0,0.0,0.0,0.0,0.0,0.0,0.0,0.0,0.0,0.0,0.0,0.0,0.0,0.0,0.0,0.0,0.0,0.0,0.0,0.0,2.5348,2.5486,2.435,2.3723,2.3722,2.1021,1.8489,0.0,0.0,0.0,0.0,0.0,0.0,0.0,0.0,0.0,0.0,0.0,0.0,0.0,0.0,0.0,0.0,0.0,0.0,0.0,0.0,0.0,0.0,0.0,0.0,0.0,0.0,0.0,0.0,0.0,0.0,0.0,0.0,0.0,0.0,0.0,0.0,0.0,0.0,0.0,0.0,0.0,0.0,0.0,0.0,0.0,0.0,0.0,0.0,0.0,0.0,0.0,0.0,0.0,0.0,0.0,0.0,0.0,0.0,0.0,0.0,0.0,0.0,0.0,0.0,0.0,0.0,0.0,0.0,0.0,0.0,0.0,0.0,0.0,0.0,0.0,0.0,0.0,0.0,0.0,0.0,0.0,0.0,0.0,0.0,0.0,0.0,0.0,0.0,0.0,0.0,0.0,0.0,0.0,0.0,0.0,0.0,0.0,0.0,0.0,0.0,0.0,0.0,0.0,0.0,0.0,0.0,0.0,0.0,0.0,2.3875,2.2084,2.142,2.2026,2.0611,1.8471,0.0,0.0,0.0,0.0,0.0,0.0,0.0,0.0,0.0,0.0,0.0,0.0,0.0,0.0,0.0,0.0,0.0,0.0,0.0,0.0,0.0,0.0,0.0,0.0,0.0,0.0,0.0,0.0,0.0,0.0,0.0,0.0,0.0,0.0,0.0,0.0,0.0,0.0,0.0,0.0,0.0,0.0,0.0,0.0,0.0,0.0,0.0,0.0,0.0,0.0,0.0,0.0,0.0,0.0,0.0,0.0,0.0,0.0,0.0,0.0,0.0,0.0,0.0,0.0,0.0,0.0,0.0,0.0,0.0,0.0,0.0,0.0,0.0,0.0,0.0,0.0,0.0,0.0,0.0,0.0,0.0,0.0,0.0,0.0,0.0,0.0,0.0,0.0,0.0,0.0,0.0,0.0,0.0,0.0,0.0,0.0,0.0,0.0,0.0,0.0,0.0,0.0,0.0,0.0,0.0,0.0,0.0,0.0,0.0,2.3031,2.231,2.1281,1.9916,1.7333,1.5654,0.0,0.0,0.0,0.0,0.0,0.0,0.0,0.0,0.0,0.0,0.0,0.0,0.0,0.0,0.0,0.0,0.0,0.0,0.0,0.0,0.0,0.0,0.0,0.0,0.0,0.0,0.0,0.0,0.0,0.0,0.0,0.0,0.0,0.0,0.0,0.0,0.0,0.0,0.0,0.0,0.0,0.0,0.0,0.0,0.0,0.0,0.0,0.0,0.0,0.0,0.0,0.0,0.0,0.0,0.0,0.0,0.0,0.0,0.0,0.0,0.0,0.0,0.0,0.0,0.0,0.0,0.0,0.0,0.0,0.0,0.0,0.0,0.0,0.0,0.0,0.0,0.0,0.0,0.0,0.0,0.0,0.0,0.0,0.0,0.0,0.0,0.0,0.0,0.0,0.0,0.0,0.0,0.0,0.0,0.0,0.0,0.0,0.0,0.0,0.0,0.0,0.0,0.0,0.0,0.0,0.0,0.0,0.0,0.0,2.2017,2.3439,2.2885,1.993,1.8578,1.6889,1.4934,0.0,0.0,0.0,0.0,0.0,0.0,0.0,0.0,0.0,0.0,0.0,0.0,0.0,0.0,0.0,0.0,0.0,0.0,0.0,0.0,0.0,0.0,0.0,0.0,0.0,0.0,0.0,0.0,0.0,0.0,0.0,0.0,0.0,0.0,0.0,0.0,0.0,0.0,0.0,0.0,0.0,0.0,0.0,0.0,0.0,0.0,0.0,0.0,0.0,0.0,0.0,0.0,0.0,0.0,0.0,0.0,0.0,0.0,0.0,0.0,0.0,0.0,0.0,0.0,0.0,0.0,0.0,0.0,0.0,0.0,0.0,0.0,0.0,0.0,0.0,0.0,0.0,0.0,0.0,0.0,0.0,0.0,0.0,0.0,0.0,0.0,0.0,0.0,0.0,0.0,0.0,0.0,0.0,0.0,0.0,0.0,0.0,0.0,0.0,0.0,0.0,0.0,0.0,0.0,0.0,0.0,0.0,0.0,2.0616,2.2393,2.18,1.8709,1.8073,1.6789,0.0,0.0,0.0,0.0,0.0,0.0,0.0,0.0,0.0,0.0,0.0,0.0,0.0,0.0,0.0,0.0,0.0,0.0,0.0,0.0,0.0,0.0,0.0,0.0,0.0,0.0,0.0,0.0,0.0,0.0,0.0,0.0,0.0,0.0,0.0,0.0,0.0,0.0,0.0,0.0,0.0,0.0,0.0,0.0,0.0,0.0,0.0,0.0,0.0,0.0,0.0,0.0,0.0,0.0,0.0,0.0,0.0,0.0,0.0,0.0,0.0,0.0,0.0,0.0,0.0,0.0,0.0,0.0,0.0,0.0,0.0,0.0,0.0,0.0,0.0,0.0,0.0,0.0,0.0,0.0,0.0,0.0,0.0,0.0,0.0,0.0,0.0,0.0,0.0,0.0,0.0,0.0,0.0,0.0,0.0,0.0,0.0,0.0,0.0,0.0,0.0,0.0,0.0,0.0,0.0,0.0,0.0,0.0,2.1041,1.9046,1.8755,1.7832,1.5363,1.5069,1.4689,0.0,0.0,0.0,0.0,0.0,0.0,0.0,0.0,0.0,0.0,0.0,0.0,0.0,0.0,0.0,0.0,0.0,0.0,0.0,0.0,0.0,0.0,0.0,0.0,0.0,0.0,0.0,0.0,0.0,0.0,0.0,0.0,0.0,0.0,0.0,0.0,0.0,0.0,0.0,0.0,0.0,0.0,0.0,0.0,0.0,0.0,0.0,0.0,0.0,0.0,0.0,0.0,0.0,0.0,0.0,0.0,0.0,0.0,0.0,0.0,0.0,0.0,0.0,0.0,0.0,0.0,0.0,0.0,0.0,0.0,0.0,0.0,0.0,0.0,0.0,0.0,0.0,0.0,0.0,0.0,0.0,0.0,0.0,0.0,0.0,0.0,0.0,0.0,0.0,0.0,0.0,0.0,0.0,0.0,0.0,0.0,0.0,0.0,0.0,0.0,0.0,0.0,0.0,0.0,0.0,0.0,0.0,0.0,0.0,2.2758,0.0,2.0618,0.0,1.697,1.5657,0.0,0.0,0.0,0.0,0.0,0.0,0.0,0.0,0.0,0.0,0.0,0.0,0.0,0.0,0.0,0.0,0.0,0.0,0.0,0.0,0.0,0.0,0.0,0.0,0.0,0.0,0.0,0.0,0.0,0.0,0.0,0.0,0.0,0.0,0.0,0.0,0.0,0.0,0.0,0.0,0.0,0.0,0.0,0.0,0.0,0.0,0.0,0.0,0.0,0.0,0.0,0.0,0.0,0.0,0.0,0.0,0.0,0.0,0.0,0.0,0.0,0.0,0.0,0.0,0.0,0.0,0.0,0.0,0.0,0.0,0.0,0.0,0.0,0.0,0.0,0.0,0.0,0.0,0.0,0.0,0.0,0.0,0.0,0.0,0.0,0.0,0.0,0.0,0.0,0.0,0.0,0.0,0.0,0.0,0.0,0.0,0.0,0.0,0.0,0.0,0.0,0.0,0.0,0.0,0.0,0.0,0.0,0.0,0.0,2.3395,2.2346,2.0652,1.8385,1.7233,1.6,0.0,0.0,0.0,0.0,0.0,0.0,0.0,0.0,0.0,0.0,0.0,0.0,0.0,0.0,0.0,0.0,0.0,0.0,0.0,0.0,0.0,0.0,0.0,0.0,0.0,0.0,0.0,0.0,0.0,0.0,0.0,0.0,0.0,0.0,0.0,0.0,0.0,0.0,0.0,0.0,0.0,0.0,0.0,0.0,0.0,0.0,0.0,0.0,0.0,0.0,0.0,0.0,0.0,0.0,0.0,0.0,0.0,0.0,0.0,0.0,0.0,0.0,0.0,0.0,0.0,0.0,0.0,0.0,0.0,0.0,0.0,0.0,0.0,0.0,0.0,0.0,0.0,0.0,0.0,0.0,0.0,0.0,0.0,0.0,0.0,0.0,0.0,0.0,0.0,0.0,0.0,0.0,0.0,0.0,0.0,0.0,0.0,0.0,0.0,0.0,0.0,0.0,0.0,0.0,0.0,0.0,0.0,0.0,0.0,0.0,1.9884,1.7811,1.5518,1.5781,1.5539,0.0,0.0,0.0,0.0,0.0,0.0,0.0,0.0,0.0,0.0,0.0,0.0,0.0,0.0,0.0,0.0,0.0,0.0,0.0,0.0,0.0,0.0,0.0,0.0,0.0,0.0,0.0,0.0,0.0,0.0,0.0,0.0,0.0,0.0,0.0,0.0,0.0,0.0,0.0,0.0,0.0,0.0,0.0,0.0,0.0,0.0,0.0,0.0,0.0,0.0,0.0,0.0,0.0,0.0,0.0,0.0,0.0,0.0,0.0,0.0,0.0,0.0,0.0,0.0,0.0,0.0,0.0,0.0,0.0,0.0,0.0,0.0,0.0,0.0,0.0,0.0,0.0,0.0,0.0,0.0,0.0,0.0,0.0,0.0,0.0,0.0,0.0,0.0,0.0,0.0,0.0,0.0,0.0,0.0,0.0,0.0,0.0,0.0,0.0,0.0,0.0,0.0,0.0,0.0,0.0,0.0,0.0,0.0,0.0,0.0,2.0941,0.0,1.7102,1.5268,1.416,1.3904,0.0,0.0,0.0,0.0,0.0,0.0,0.0,0.0,0.0,0.0,0.0,0.0,0.0,0.0,0.0,0.0,0.0,0.0,0.0,0.0,0.0,0.0,0.0,0.0,0.0,0.0,0.0,0.0,0.0,0.0,0.0,0.0,0.0,0.0,0.0,0.0,0.0,0.0,0.0,0.0,0.0,0.0,0.0,0.0,0.0,0.0,0.0,0.0,0.0,0.0,0.0,0.0,0.0,0.0,0.0,0.0,0.0,0.0,0.0,0.0,0.0,0.0,0.0,0.0,0.0,0.0,0.0,0.0,0.0,0.0,0.0,0.0,0.0,0.0,0.0,0.0,0.0,0.0,0.0,0.0,0.0,0.0,0.0,0.0,0.0,0.0,0.0,0.0,0.0,0.0,0.0,0.0,0.0,0.0,0.0,0.0,0.0,0.0,0.0,0.0,0.0,0.0,0.0,0.0,0.0,0.0,0.0,0.0,0.0,0.0,0.0,1.836,1.5552,1.3869,0.0,0.0,0.0,0.0,0.0,0.0,0.0,0.0,0.0,0.0,0.0,0.0,0.0,0.0,0.0,0.0,0.0,0.0,0.0,0.0,0.0,0.0,0.0,0.0,0.0,0.0,0.0,0.0,0.0,0.0,0.0,0.0,0.0,0.0,0.0,0.0,0.0,0.0,0.0,0.0,0.0,0.0,0.0,0.0,0.0,0.0,0.0,0.0,0.0,0.0,0.0,0.0,0.0,0.0,0.0,0.0,0.0,0.0,0.0,0.0,0.0,0.0,0.0,0.0,0.0,0.0,0.0,0.0,0.0,0.0,0.0,0.0,0.0,0.0,0.0,0.0,0.0,0.0,0.0,0.0,0.0,0.0,0.0,0.0,0.0,0.0,0.0,0.0,0.0,0.0,0.0,0.0,0.0,0.0,0.0,0.0,0.0,0.0,0.0,0.0,0.0,0.0,0.0,0.0,0.0,0.0,0.0,0.0,0.0,0.0,0.0,2.0376,1.8994,1.6218,0.0,1.3535,0.0,0.0,0.0,0.0,0.0,0.0,0.0,0.0,0.0,0.0,0.0,0.0,0.0,0.0,0.0,0.0,0.0,0.0,0.0,0.0,0.0,0.0,0.0,0.0,0.0,0.0,0.0,0.0,0.0,0.0,0.0,0.0,0.0,0.0,0.0,0.0,0.0,0.0,0.0,0.0,0.0,0.0,0.0,0.0,0.0,0.0,0.0,0.0,0.0,0.0,0.0,0.0,0.0,0.0,0.0,0.0,0.0,0.0,0.0,0.0,0.0,0.0,0.0,0.0,0.0,0.0,0.0,0.0,0.0,0.0,0.0,0.0,0.0,0.0,0.0,0.0,0.0,0.0,0.0,0.0,0.0,0.0,0.0,0.0,0.0,0.0,0.0,0.0,0.0,0.0,0.0,0.0,0.0,0.0,0.0,0.0,0.0,0.0,0.0,0.0,0.0,0.0,0.0,0.0,0.0,0.0,0.0,0.0,0.0,0.0,0.0,0.0,1.6279,1.4932,1.2837,0.0,0.0,0.0,0.0,0.0,0.0,0.0,0.0,0.0,0.0,0.0,0.0,0.0,0.0,0.0,0.0,0.0,0.0,0.0,0.0,0.0,0.0,0.0,0.0,0.0,0.0,0.0,0.0,0.0,0.0,0.0,0.0,0.0,0.0,0.0,0.0,0.0,0.0,0.0,0.0,0.0,0.0,0.0,0.0,0.0,0.0,0.0,0.0,0.0,0.0,0.0,0.0,0.0,0.0,0.0,0.0,0.0,0.0,0.0,0.0,0.0,0.0,0.0,0.0,0.0,0.0,0.0,0.0,0.0,0.0,0.0,0.0,0.0,0.0,0.0,0.0,0.0,0.0,0.0,0.0,0.0,0.0,0.0,0.0,0.0,0.0,0.0,0.0,0.0,0.0,0.0,0.0,0.0,0.0,0.0,0.0,0.0,0.0,0.0,0.0,0.0,0.0,0.0,0.0,0.0,0.0,0.0,0.0,0.0,0.0,1.6751,1.5328,1.4983,1.4094,1.2519,0.0,0.0,0.0,0.0,0.0,0.0,0.0,0.0,0.0,0.0,0.0,0.0,0.0,0.0,0.0,0.0,0.0,0.0,0.0,0.0,0.0,0.0,0.0,0.0,0.0,0.0,0.0,0.0,0.0,0.0,0.0,0.0,0.0,0.0,0.0,0.0,0.0,0.0,0.0,0.0,0.0,0.0,0.0,0.0,0.0,0.0,0.0,0.0,0.0,0.0,0.0,0.0,0.0,0.0,0.0,0.0,0.0,0.0,0.0,0.0,0.0,0.0,0.0,0.0,0.0,0.0,0.0,0.0,0.0,0.0,0.0,0.0,0.0,0.0,0.0,0.0,0.0,0.0,0.0,0.0,0.0,0.0,0.0,0.0,0.0,0.0,0.0,0.0,0.0,0.0,0.0,0.0,0.0,0.0,0.0,0.0,0.0,0.0,0.0,0.0,0.0,0.0,0.0,0.0,0.0,0.0,0.0,0.0,0.0,0.0,0.0,0.0,0.0,0.0,1.2566,0.0,0.0,0.0,0.0,0.0,0.0,0.0,0.0,0.0,0.0,0.0,0.0,0.0,0.0,0.0,0.0,0.0,0.0,0.0,0.0,0.0,0.0,0.0,0.0,0.0,0.0,0.0,0.0,0.0,0.0,0.0,0.0,0.0,0.0,0.0,0.0,0.0,0.0,0.0,0.0,0.0,0.0,0.0,0.0,0.0,0.0,0.0,0.0,0.0,0.0,0.0,0.0,0.0,0.0,0.0,0.0,0.0,0.0,0.0,0.0,0.0,0.0,0.0,0.0,0.0,0.0,0.0,0.0,0.0,0.0,0.0,0.0,0.0,0.0,0.0,0.0,0.0,0.0,0.0,0.0,0.0,0.0,0.0,0.0,0.0,0.0,0.0,0.0,0.0,0.0,0.0,0.0,0.0,0.0,0.0,0.0,0.0,0.0,0.0,0.0,0.0,0.0,0.0,0.0,0.0,0.0,0.0,0.0,0.0,0.0,0.0,0.0,0.0,0.0,0.0,0.0,0.0,0.0,0.0,0.0,0.0,0.0,0.0,0.0,0.0,0.0,0.0,0.0,0.0,0.0,0.0,0.0,0.0,0.0,0.0,0.0,0.0,0.0,0.0,0.0,0.0,0.0,0.0,0.0,0.0,0.0,0.0,0.0,0.0,0.0,0.0,0.0,0.0,0.0,0.0,0.0,0.0,0.0,0.0,0.0,0.0,0.0,0.0,0.0,0.0,0.0,0.0,0.0,0.0,0.0,0.0,0.0,0.0,0.0,0.0,0.0,0.0,0.0,0.0,0.0,0.0,0.0,0.0,0.0,0.0,0.0,0.0,0.0,0.0,0.0,0.0,0.0,0.0,0.0,0.0,0.0,0.0,0.0,0.0,0.0,0.0,0.0,0.0,0.0,0.0,0.0,0.0,0.0,0.0,0.0,0.0,0.0,0.0,0.0,0.0,0.0,0.0,0.0,0.0,0.0,0.0,0.0,0.0,0.0,0.0,0.0,0.0,0.0,0.0,0.0,0.0,0.0,0.0,0.0,0.0,0.0,0.0,0.0,0.0,0.0,0.0,0.0,0.0,0.0,0.0,0.0,0.0,0.0,0.0,0.0,0.0,0.0,0.0,0.0,0.0,0.0,0.0,0.0,0.0,0.0,0.0,0.0,0.0,0.0,0.0,0.0,0.0,0.0,0.0,0.0,0.0,0.0,0.0,0.0,0.0,0.0,0.0,0.0,0.0,0.0,0.0,0.0,0.0,0.0,0.0,0.0,0.0,0.0,0.0,0.0,0.0,0.0,0.0,0.0,0.0,0.0,0.0,0.0,0.0,0.0,0.0,0.0,0.0,0.0,0.0,0.0,0.0,0.0,0.0,0.0,0.0,0.0,0.0,0.0,0.0,0.0,0.0,0.0,0.0,0.0,0.0,0.0,0.0,0.0,0.0,0.0,0.0,0.0,0.0,0.0,0.0,0.0,0.0,0.0,0.0,0.0,0.0,0.0,0.0,0.0,0.0,0.0,0.0,0.0,0.0,0.0,0.0,0.0,0.0,0.0,0.0,0.0,0.0,0.0,0.0,0.0,0.0,0.0,0.0,0.0,0.0,0.0,0.0,0.0,0.0,0.0,0.0,0.0,0.0,0.0,0.0,0.0,0.0,0.0,0.0,0.0,0.0,0.0,0.0,0.0,0.0,0.0,0.0,0.0,0.0,0.0,0.0,0.0,0.0,0.0,0.0,0.0,0.0,0.0,0.0,0.0,0.0,0.0,0.0,0.0,0.0,0.0,0.0,0.0,0.0,0.0,0.0,0.0,0.0,0.0,0.0,0.0,0.0,0.0,0.0,0.0,0.0,0.0,0.0,0.0,0.0,0.0,0.0,0.0,0.0,0.0,0.0,0.0,0.0,0.0,0.0,0.0,0.0,0.0,0.0,0.0,0.0,0.0,0.0,0.0,0.0,0.0,0.0,0.0,0.0,0.0,0.0,0.0,0.0,0.0,0.0,0.0,0.0,0.0,0.0,0.0,0.0,0.0,0.0,0.0,0.0,0.0,0.0,0.0,0.0,0.0,0.0,0.0,0.0,0.0,0.0,0.0,0.0,0.0,0.0,0.0,0.0,0.0,0.0,0.0,0.0,0.0,0.0,0.0,0.0,0.0,0.0,0.0,0.0,0.0,0.0,0.0,0.0,0.0,0.0,0.0,0.0,0.0,0.0,0.0,0.0,0.0,0.0,0.0,0.0,0.0,0.0,0.0,0.0,0.0,0.0,0.0,0.0,0.0,0.0,0.0,0.0,0.0,0.0,0.0,0.0,0.0,0.0,0.0,0.0,0.0,0.0,0.0,0.0,0.0,0.0,0.0,0.0,0.0,0.0,0.0,0.0,0.0,0.0,0.0,0.0,0.0,0.0,0.0,0.0,0.0,0.0,0.0,0.0,0.0,0.0,0.0,0.0,0.0,0.0,0.0,0.0,0.0,0.0,0.0,0.0,0.0,0.0,0.0,0.0,0.0,0.0,0.0,0.0,0.0,0.0,0.0,0.0,0.0,0.0,0.0,0.0,0.0,0.0,0.0,0.0,0.0,0.0,0.0,0.0,0.0,0.0,0.0,0.0,0.0,0.0,0.0,0.0,0.0,0.0,0.0,0.0,0.0,0.0,0.0,0.0,0.0,0.0,0.0,0.0,0.0,0.0,0.0,0.0,0.0,0.0,0.0,0.0,0.0,0.0,0.0,0.0,0.0,0.0,0.0,0.0,0.0,0.0,0.0,0.0,0.0,0.0,0.0,0.0,0.0,0.0,0.0,0.0,0.0,0.0,0.0,0.0,0.0,0.0,0.0,0.0,0.0,0.0,0.0,0.0,0.0,0.0,0.0,0.0,0.0,0.0,0.0,0.0,0.0,0.0,0.0,0.0,0.0,0.0,0.0,0.0,0.0,0.0,0.0,0.0,0.0,0.0,0.0,0.0,0.0,0.0,0.0,0.0,0.0,0.0,0.0,0.0,0.0,0.0,0.0,0.0,0.0,0.0,0.0,0.0,0.0,0.0,0.0,0.0,0.0,0.0,0.0,0.0,0.0,0.0,0.0,0.0,0.0,0.0,0.0,0.0,0.0,0.0,0.0,0.0,0.0,0.0,0.0,0.0,0.0,0.0,0.0,0.0,0.0,0.0,0.0,0.0,0.0,0.0,0.0,0.0,0.0,0.0,0.0,0.0,0.0,0.0,0.0,0.0,0.0,0.0,0.0,0.0,0.0,0.0,0.0,0.0,0.0,0.0,0.0,0.0,0.0,0.0,0.0,0.0,0.0,0.0,0.0,0.0,0.0,0.0,0.0,0.0,0.0,0.0,0.0,0.0,0.0,0.0,0.0,0.0,0.0,0.0,0.0,0.0,0.0,0.0,0.0,0.0,0.0,0.0,0.0,0.0,0.0,0.0,0.0,0.0,0.0,0.0,0.0,0.0,0.0,0.0,0.0,0.0,0.0,0.0,0.0,0.0,0.0,0.0,0.0,0.0,0.0,0.0,0.0,0.0,0.0,0.0,0.0,0.0,0.0,0.0,0.0,0.0,0.0,0.0,0.0,0.0,0.0,0.0,0.0,0.0,0.0,0.0,0.0,0.0,0.0,0.0,0.0,0.0,0.0,0.0,0.0,0.0,0.0,0.0,0.0,0.0,0.0,0.0,0.0,0.0,0.0,0.0,0.0,0.0,0.0,0.0,0.0,0.0,0.0,0.0,0.0,0.0,0.0,0.0,0.0,0.0,0.0,0.0,0.0,0.0,0.0,0.0,0.0,0.0,0.0,0.0,0.0,0.0,0.0,0.0,0.0,0.0,0.0,0.0,0.0,0.0,0.0,0.0,0.0,0.0,0.0,0.0,0.0,0.0,0.0,0.0,0.0,0.0,0.0,0.0,0.0,0.0,0.0,0.0,0.0,0.0,0.0,0.0,0.0,0.0,0.0,0.0,0.0,0.0,0.0,0.0,0.0,0.0,0.0,0.0,0.0,0.0,0.0,0.0,0.0,0.0,0.0,0.0,0.0,0.0,0.0,0.0,0.0,0.0,0.0,0.0,0.0,0.0,0.0,0.0,0.0,0.0,0.0,0.0,0.0,0.0,0.0,0.0,0.0,0.0,0.0,0.0,0.0,0.0,0.0,0.0,0.0,0.0,0.0,0.0,0.0,0.0,0.0,0.0,0.0,0.0,0.0,0.0,0.0,0.0,0.0,0.0,0.0,0.0,0.0,0.0,0.0,0.0,0.0,0.0,0.0,0.0,0.0,0.0,0.0,0.0,0.0,0.0,0.0,0.0,0.0,0.0,0.0,0.0,0.0,0.0,0.0,0.0,0.0,0.0,0.0,0.0,0.0,0.0,0.0]}],[{"header":{"parameterUnit":"kt","parameterCategory":2,"dx":1,"dy":1,"la1":29.587661999999998,"la2":31.0,"lo1":-88.76705300000003,"lo2":-86.6583820000003,"nx":115,"ny":88,"refTime":"2022-10-07T00:00:00:Z","depth":0,"parameterNumber":2,"parameterNumberName":"V-component_of_WINDS"},"data":[15.2184,15.2184,15.2184,15.2256,15.24,15.3484,15.4278,15.5001,15.7673,15.919,15.9695,16.0779,16.1573,16.1689,16.1689,16.1689,16.1689,16.1689,16.1689,16.1689,16.1689,16.1689,16.1689,16.1689,16.1689,16.1689,16.1689,16.1689,16.1689,16.1689,16.1689,16.1689,16.1689,16.1689,16.1689,16.1689,16.1689,16.1689,16.1689,16.1689,16.1689,16.1689,16.1689,16.1689,16.1689,16.1689,16.1689,16.1689,16.1689,16.1901,16.2364,16.2849,16.3436,16.4064,16.503,16.6139,16.7099,16.8622,17.016,17.203,17.3991,17.4813,17.5636,17.6533,17.7206,17.7206,17.7206,17.7206,17.7281,17.7281,17.7281,17.7281,17.7281,17.7281,17.7281,17.7281,17.7281,17.7281,17.7281,17.7281,17.7281,17.7281,17.7281,17.7281,17.7281,17.7281,17.7281,17.7281,17.7281,17.7281,17.7281,17.7281,17.7281,17.7281,17.7281,17.7281,17.7281,17.7281,17.7281,17.7281,17.7281,17.7281,17.7281,17.7281,17.7281,17.7281,17.7281,17.7281,17.7281,17.7281,17.7281,17.6982,17.6475,17.5129,17.3202,15.2256,15.2256,15.2256,15.2256,15.2256,15.2473,15.3267,15.4639,15.6417,15.7962,15.9118,15.9479,16.0562,16.1357,16.1689,16.1689,16.1689,16.1689,16.1689,16.1689,16.1689,16.1689,16.1689,16.1689,16.1689,16.1689,16.1689,16.1689,16.1689,16.1689,16.1689,16.1689,16.1689,16.1689,16.1689,16.1689,16.1689,16.1689,16.1689,16.1689,16.1689,16.1689,16.1689,16.1689,16.1689,16.1689,16.1689,16.1689,16.1689,16.186,16.1901,16.2409,16.2823,16.3183,16.432,16.5294,16.6203,16.7546,16.9196,17.0502,17.2288,17.3841,17.4589,17.5636,17.6849,17.7148,17.7223,17.7223,17.7206,17.7281,17.7281,17.7281,17.7281,17.7281,17.7281,17.7281,17.7281,17.7281,17.7281,17.7281,17.7281,17.7281,17.7281,17.7281,17.7281,17.7281,17.7281,17.7281,17.7281,17.7281,17.7281,17.7281,17.7281,17.7281,17.7281,17.7281,17.7281,17.7281,17.7281,17.7281,17.7281,17.7281,17.7281,17.7281,17.7281,17.7281,17.7281,17.7281,17.7281,17.7281,17.6982,17.6533,17.5877,17.4456,17.2903,15.3484,15.3484,15.3484,15.305,15.2328,15.2184,15.2545,15.3484,15.4928,15.6012,15.6806,15.854,15.9768,16.0273,16.1328,16.1689,16.1689,16.1689,16.1689,16.1689,16.1689,16.1689,16.1689,16.1689,16.1689,16.1689,16.1689,16.1689,16.1689,16.1689,16.1689,16.1689,16.1689,16.1689,16.1689,16.1689,16.1689,16.1689,16.1689,16.1689,16.1689,16.1689,16.1689,16.1689,16.1689,16.1689,16.1689,16.1689,16.1689,16.1689,16.1689,16.2052,16.2218,16.2436,16.3158,16.4181,16.5167,16.598,16.7508,16.9087,17.0643,17.2138,17.3185,17.4589,17.586,17.6159,17.6176,17.7223,17.7281,17.7281,17.7281,17.7281,17.7281,17.7281,17.7281,17.7281,17.7281,17.7281,17.7281,17.7281,17.7281,17.7281,17.7281,17.7281,17.7281,17.7281,17.7281,17.7281,17.7281,17.7281,17.7281,17.7281,17.7281,17.7281,17.7281,17.7281,17.7281,17.7281,17.7281,17.7281,17.7281,17.7281,17.7281,17.7281,17.7281,17.7281,17.7281,17.7281,17.7281,17.6832,17.6458,17.5935,17.4664,17.326,17.1764,15.3989,15.3989,15.4351,15.4134,15.3339,15.2906,15.2834,15.2906,15.4395,15.529,15.5578,15.7601,15.8973,15.9551,16.0634,16.1357,16.1573,16.1689,16.1689,16.1689,16.1689,16.1689,16.1689,16.1689,16.1689,16.1689,16.1689,16.1689,16.1689,16.1689,16.1689,16.1689,16.1689,16.1689,16.1689,16.1689,16.1689,16.1689,16.1689,16.1689,16.1689,16.1689,16.1689,16.1689,16.1689,16.1689,16.1689,16.1689,16.1689,16.1689,16.1689,16.1689,16.1689,16.1718,16.2218,16.3081,16.4204,16.5231,16.6575,16.8014,16.9381,17.0717,17.1839,17.3393,17.444,17.4664,17.5337,17.6608,17.7281,17.7281,17.7281,17.7281,17.7281,17.7281,17.7281,17.7281,17.7281,17.7281,17.7281,17.7281,17.7281,17.7281,17.7281,17.7281,17.7281,17.7281,17.7281,17.7281,17.7281,17.7281,17.7281,17.7281,17.7281,17.7281,17.7281,17.7281,17.7281,17.7281,17.7281,17.7281,17.7281,17.7281,17.7281,17.7281,17.7131,17.7281,17.7281,17.7057,17.6458,17.6084,17.5561,17.4456,17.326,17.1615,17.0344,15.24,15.2617,15.3917,15.5217,15.6156,15.4901,15.4423,15.4567,15.5912,15.6662,15.6634,15.7023,15.8251,15.9334,16.0057,16.0851,16.1429,16.1689,16.1689,16.1689,16.1689,16.1689,16.1689,16.1689,16.1689,16.1689,16.1689,16.1689,16.1689,16.1689,16.1689,16.1689,16.1689,16.1689,16.1689,16.1689,16.1689,16.1689,16.1689,16.1689,16.1689,16.1689,16.1689,16.1689,16.1689,16.1689,16.1689,16.1689,16.1689,16.1689,16.1689,16.1689,16.1689,16.1718,16.2163,16.2952,16.3802,16.4725,16.5711,16.6928,16.8191,16.9198,17.0194,17.1839,17.3318,17.3991,17.5038,17.6234,17.7131,17.7281,17.7281,17.7281,17.7281,17.7281,17.7281,17.7281,17.7281,17.7281,17.7281,17.7281,17.7281,17.7281,17.7281,17.7281,17.7281,17.7281,17.7281,17.7281,17.7281,17.7281,17.7281,17.7281,17.7281,17.7281,17.7281,17.7281,17.7281,17.7206,17.7281,17.7281,17.7281,17.7281,17.7281,17.67,17.6176,17.6625,17.6401,17.5578,17.4905,17.4681,17.4008,17.2961,17.1465,16.9671,16.8624,15.3628,15.3701,15.4278,15.5434,15.6634,15.6229,15.659,15.7312,15.6995,15.6879,15.7023,15.7962,15.8756,15.9479,16.0273,16.1068,16.1689,16.1689,16.1689,16.1689,16.1689,16.1689,16.1689,16.1689,16.1689,16.1689,16.1689,16.1689,16.1689,16.1689,16.1689,16.1689,16.1689,16.1689,16.1689,16.1689,16.1689,16.1689,16.1689,16.1689,16.1689,16.1689,16.1689,16.1689,16.1689,16.1689,16.1689,16.1689,16.1689,16.1689,16.1689,16.1689,16.1689,16.1689,16.2069,16.23,16.3234,16.3993,16.4703,16.5842,16.6708,16.7706,16.903,17.0485,17.1764,17.3036,17.4307,17.5728,17.6533,17.7206,17.7281,17.7281,17.7281,17.7281,17.7281,17.7281,17.7281,17.7281,17.7281,17.7281,17.7281,17.7281,17.7281,17.7281,17.7281,17.7281,17.7281,17.7281,17.7281,17.7281,17.7281,17.7281,17.7281,17.7281,17.7281,17.7281,17.7131,17.7057,17.6982,17.6907,17.7281,17.6982,17.6251,17.5728,17.5204,17.4606,17.4157,17.3559,17.326,17.2736,17.2213,17.0942,16.9446,16.8175,16.7876,15.3845,15.3917,15.4351,15.519,15.6156,15.6156,15.7456,15.9262,15.8756,15.7934,15.7673,15.8901,15.9262,15.9479,16.0562,16.1212,16.1545,16.1689,16.1689,16.1689,16.1689,16.1689,16.1689,16.1689,16.1689,16.1689,16.1689,16.1689,16.1689,16.1689,16.1689,16.1689,16.1689,16.1689,16.1689,16.1689,16.1689,16.1689,16.1689,16.1689,16.1689,16.1689,16.1689,16.1689,16.1689,16.1689,16.1689,16.1689,16.1689,16.1689,16.1689,16.1689,16.1689,16.1689,16.1718,16.1832,16.2544,16.331,16.3754,16.5115,16.6281,16.711,16.8076,16.9131,17.0044,17.1241,17.2736,17.4382,17.5711,17.6683,17.7057,17.7131,17.7281,17.7281,17.7281,17.7281,17.7281,17.7281,17.7281,17.7281,17.7281,17.7281,17.7281,17.7281,17.7281,17.7281,17.7281,17.7281,17.7281,17.7281,17.7281,17.7281,17.7281,17.7281,17.7281,17.6832,17.6832,17.6608,17.6309,17.6159,17.5802,17.5279,17.5055,17.4531,17.3933,17.3127,17.223,17.1856,17.1615,17.1166,17.0493,16.8998,16.7876,16.7652,16.7427,15.2256,15.2473,15.3917,15.4567,15.4639,15.4784,15.6445,15.9262,16.0779,16.049,15.9334,15.9479,15.9695,15.9623,15.9623,16.049,16.1573,16.1689,16.1689,16.1689,16.1689,16.1689,16.1689,16.1689,16.1689,16.1689,16.1689,16.1689,16.1689,16.1689,16.1689,16.1689,16.1689,16.1689,16.1689,16.1689,16.1689,16.1689,16.1689,16.1689,16.1689,16.1689,16.1689,16.1689,16.1689,16.1689,16.1689,16.1689,16.1689,16.1689,16.1689,16.1689,16.1689,16.1689,16.1689,16.1929,16.2525,16.341,16.4134,16.503,16.6036,16.6963,16.7587,16.8383,16.9297,17.0119,17.1764,17.3484,17.4963,17.5935,17.6907,17.7131,17.7281,17.7281,17.7281,17.7281,17.7281,17.7281,17.7281,17.7281,17.7281,17.7281,17.7281,17.7281,17.7281,17.7281,17.7281,17.7281,17.7281,17.7281,17.7281,17.7206,17.7057,17.7131,17.6757,17.6326,17.5952,17.498,17.483,17.4681,17.3634,17.2977,17.2961,17.2886,17.2454,17.1856,17.0958,17.0418,17.0119,16.9521,16.8923,16.7876,16.7652,16.7427,16.7203,15.2184,15.2256,15.2834,15.3601,15.4495,15.4567,15.5073,15.6517,15.8973,16.0562,16.0779,16.0851,16.0851,16.0851,16.0923,16.1429,16.1646,16.1689,16.1689,16.1689,16.1689,16.1689,16.1689,16.1689,16.1689,16.1689,16.1689,16.1689,16.1689,16.1689,16.1689,16.1689,16.1689,16.1689,16.1689,16.1689,16.1689,16.1689,16.1689,16.1689,16.1689,16.1689,16.1689,16.1689,16.1689,16.1689,16.1689,16.1689,16.1689,16.1689,16.1689,16.1689,16.1689,16.1689,16.1689,16.1718,16.2152,16.2632,16.3657,16.4569,16.592,16.7064,16.732,16.7652,16.81,16.9222,17.1017,17.2662,17.4157,17.5486,17.6832,17.7131,17.7281,17.7281,17.7281,17.7281,17.7281,17.7281,17.7281,17.7281,17.7281,17.7281,17.7281,17.7281,17.7057,17.7131,17.7206,17.7281,17.7281,17.7281,17.7281,17.6849,17.655,17.5877,17.5354,17.5204,17.4456,17.3409,17.3185,17.3202,17.223,17.1407,17.1257,17.1108,17.0809,17.0344,16.9521,16.8998,16.8698,16.8175,16.7726,16.7652,16.7427,16.7128,16.6829,15.2184,15.2184,15.2184,15.2834,15.3701,15.3773,15.4134,15.4928,15.6734,15.8612,15.9984,16.0779,16.0923,16.1212,16.1212,16.1646,16.1689,16.1689,16.1689,16.1689,16.1689,16.1689,16.1689,16.1689,16.1689,16.1689,16.1689,16.1689,16.1689,16.1689,16.1689,16.1689,16.1689,16.1689,16.1689,16.1689,16.1689,16.1689,16.1689,16.1689,16.1689,16.1689,16.1689,16.1689,16.1689,16.1689,16.1689,16.1689,16.1689,16.1689,16.1689,16.1689,16.1689,16.1689,16.1689,16.1718,16.1746,16.2069,16.2659,16.397,16.5304,16.6355,16.7081,16.7352,16.7427,16.8549,16.982,17.1316,17.2811,17.4531,17.6309,17.6683,17.7057,17.7057,17.7057,17.7131,17.6907,17.6907,17.6849,17.6774,17.7206,17.7281,17.7281,17.7281,17.6683,17.6533,17.6924,17.7074,17.6234,17.6309,17.6251,17.5728,17.5129,17.4382,17.3858,17.3709,17.3127,17.1914,17.154,17.1407,17.0867,17.0119,16.9745,16.9371,16.9072,16.8773,16.8474,16.81,16.7577,16.7352,16.7427,16.7427,16.6605,16.614,16.5857,15.2184,15.2184,15.2184,15.2256,15.24,15.2256,15.305,15.4278,15.4856,15.5867,15.7529,15.8973,15.9623,15.9912,16.1212,16.1646,16.1689,16.1689,16.1689,16.1689,16.1689,16.1689,16.1689,16.1689,16.1689,16.1689,16.1689,16.1689,16.1689,16.1689,16.1689,16.1689,16.1689,16.1689,16.1689,16.1689,16.1689,16.1689,16.1689,16.1689,16.1689,16.1689,16.1689,16.1689,16.1689,16.1689,16.1689,16.1689,16.1689,16.1689,16.1689,16.1689,16.1689,16.1689,16.1689,16.1689,16.1689,16.1718,16.1917,16.3584,16.4922,16.6036,16.7031,16.732,16.7427,16.7577,16.8399,17.0344,17.1465,17.2961,17.4606,17.5935,17.6401,17.6625,17.6683,17.6608,17.6176,17.6027,17.5802,17.5653,17.6475,17.7057,17.6982,17.6757,17.5952,17.5877,17.655,17.6101,17.4963,17.4589,17.4382,17.3858,17.3052,17.2512,17.2288,17.2155,17.1556,17.0493,16.9671,16.9371,16.8848,16.8773,16.8399,16.7726,16.7726,16.8025,16.7726,16.7352,16.7352,16.7352,16.7352,16.653,16.5617,16.4719,16.3987,15.2184,15.2184,15.2184,15.2184,15.2184,15.2184,15.2473,15.305,15.3989,15.5406,15.6995,15.8612,15.9407,15.984,16.0996,16.1646,16.1718,16.1689,16.1689,16.1689,16.1689,16.1689,16.1689,16.1689,16.1689,16.1689,16.1689,16.1689,16.1689,16.1689,16.1689,16.1689,16.1689,16.1689,16.1689,16.1689,16.1689,16.1689,16.1689,16.1689,16.1689,16.1689,16.1689,16.1689,16.1689,16.1689,16.1689,16.1689,16.1689,16.1689,16.1689,16.1689,16.1689,16.1689,16.1689,16.1689,16.1689,16.1689,16.1985,16.3025,16.4274,16.5709,16.6825,16.7271,16.7352,16.7427,16.8025,16.9596,17.0269,17.1316,17.2961,17.4456,17.5204,17.4905,17.5129,17.5279,17.4905,17.4755,17.4606,17.4473,17.4099,17.4157,17.4232,17.4456,17.3783,17.3709,17.4082,17.3709,17.3036,17.2886,17.2587,17.1839,17.1108,17.0883,17.0643,17.0119,16.9596,16.8624,16.8474,16.7876,16.7801,16.7726,16.7502,16.7352,16.7352,16.7352,16.7278,16.7053,16.7128,16.7203,16.6156,16.5109,16.4212,16.3389,16.2417,15.2184,15.2184,15.2184,15.2184,15.2184,15.2184,15.2184,15.24,15.3195,15.4278,15.5073,15.6734,15.7818,15.8684,15.9984,16.1068,16.1718,16.1689,16.1689,16.1689,16.1689,16.1689,16.1689,16.1689,16.1689,16.1689,16.1689,16.1689,16.1689,16.1689,16.1689,16.1689,16.1689,16.1689,16.1689,16.1689,16.1689,16.1689,16.1689,16.1689,16.1689,16.1689,16.1689,16.1689,16.1689,16.1689,16.1689,16.1689,16.1689,16.1689,16.1689,16.1689,16.1689,16.1689,16.1689,16.1689,16.1689,16.1689,16.1873,16.2659,16.3778,16.5366,16.6592,16.7352,16.7352,16.7352,16.8025,16.8698,16.9521,17.0269,17.1556,17.2736,17.3559,17.3036,17.2961,17.3185,17.3202,17.3202,17.3127,17.3277,17.2753,17.2005,17.208,17.2155,17.1856,17.154,17.1465,17.139,17.139,17.1316,17.0643,16.9895,16.9297,16.8998,16.8923,16.825,16.7502,16.7502,16.7577,16.7502,16.7502,16.7352,16.7352,16.7352,16.7352,16.7352,16.7203,16.6829,16.638,16.5932,16.496,16.3763,16.2866,16.2043,16.0847,15.2076,15.1994,15.2049,15.2049,15.2049,15.2157,15.2184,15.2184,15.2256,15.24,15.2906,15.3845,15.5434,15.6879,15.8684,16.0345,16.1501,16.1689,16.1689,16.1689,16.1689,16.1689,16.1689,16.1689,16.1689,16.1689,16.1689,16.1689,16.1689,16.1689,16.1689,16.1689,16.1689,16.1689,16.1689,16.1689,16.1689,16.1689,16.1689,16.1689,16.1689,16.1689,16.1689,16.1689,16.1689,16.1689,16.1689,16.1689,16.1689,16.1689,16.1689,16.1689,16.1689,16.1689,16.1689,16.1689,16.1689,16.1689,16.1901,16.2579,16.3633,16.4791,16.6055,16.7172,16.732,16.7352,16.7352,16.7652,16.8624,16.9446,17.0044,17.1033,17.1764,17.154,17.139,17.1407,17.1166,17.1257,17.1482,17.193,17.1706,17.1033,17.0883,17.0584,17.0269,16.982,16.9671,16.9671,16.9745,16.9671,16.8923,16.8474,16.7876,16.7652,16.7486,16.7486,16.7352,16.7352,16.7352,16.7352,16.7352,16.7352,16.7352,16.7352,16.7352,16.7352,16.7203,16.5782,16.4735,16.4436,16.3763,16.2641,16.1595,16.0548,15.9276,15.0538,14.9945,15.0725,15.1042,15.1099,15.1912,15.2157,15.2184,15.2184,15.2184,15.2328,15.2689,15.3701,15.5434,15.7818,15.9334,16.0057,16.1212,16.1646,16.1689,16.1689,16.1689,16.1689,16.1689,16.1689,16.1689,16.1689,16.1689,16.1689,16.1689,16.1689,16.1689,16.1689,16.1689,16.1689,16.1689,16.1689,16.1689,16.1689,16.1689,16.1689,16.1689,16.1689,16.1689,16.1689,16.1689,16.1689,16.1689,16.1689,16.1689,16.1689,16.1689,16.1689,16.1689,16.1689,16.1689,16.1689,16.1689,16.1957,16.2685,16.3584,16.4592,16.5744,16.686,16.7239,16.7352,16.7352,16.7352,16.8025,16.8025,16.8325,16.9521,16.9895,16.982,16.9895,16.9371,16.8998,16.8998,16.9147,16.9596,16.9671,16.9297,16.9371,16.8998,16.8624,16.8175,16.7951,16.7951,16.8025,16.81,16.7801,16.7876,16.7502,16.7502,16.7427,16.7427,16.7352,16.7352,16.7352,16.7352,16.7352,16.7352,16.7352,16.7352,16.7352,16.6979,16.6081,16.4511,16.309,16.2567,16.1968,16.1071,16.0249,15.9052,15.8005,14.8992,14.8547,14.9581,14.9975,15.0095,15.107,15.1537,15.162,15.1994,15.2184,15.2184,15.2184,15.2617,15.3845,15.6012,15.7673,15.854,15.9912,16.0707,16.0634,16.1357,16.1689,16.1689,16.1689,16.1689,16.1689,16.1689,16.1689,16.1689,16.1689,16.1689,16.1689,16.1689,16.1689,16.1689,16.1689,16.1689,16.1689,16.1689,16.1689,16.1689,16.1689,16.1689,16.1689,16.1689,16.1689,16.1689,16.1689,16.1689,16.1689,16.1689,16.1689,16.1689,16.1689,16.1689,16.1689,16.1689,16.1689,16.1917,16.3128,16.3972,16.4843,16.5862,16.6681,16.7131,16.7352,16.7352,16.7352,16.7352,16.7427,16.7726,16.825,16.8025,16.7951,16.8399,16.81,16.7951,16.7427,16.7352,16.7352,16.7502,16.7876,16.81,16.8025,16.7951,16.7726,16.7652,16.7577,16.7502,16.7352,16.7352,16.7352,16.7352,16.7352,16.7352,16.7352,16.7352,16.7352,16.7352,16.7352,16.7352,16.7278,16.7352,16.7352,16.6455,16.5558,16.496,16.3405,16.1669,16.0772,16.0114,15.9501,15.8903,15.7856,15.7856,14.7538,14.7605,14.8585,14.8929,14.9086,15.0035,15.045,15.0567,15.1537,15.2021,15.1912,15.2175,15.2256,15.2689,15.3917,15.519,15.6662,15.8251,15.9262,15.984,16.0707,16.1284,16.1646,16.1689,16.1689,16.1689,16.1689,16.1689,16.1689,16.1689,16.1689,16.1689,16.1689,16.1689,16.1689,16.1689,16.1689,16.1689,16.1689,16.1689,16.1689,16.1689,16.1689,16.1689,16.1689,16.1689,16.1689,16.1689,16.1689,16.1689,16.1689,16.1689,16.1689,16.1689,16.1689,16.1689,16.1689,16.1718,16.1957,16.3107,16.4254,16.4479,16.5959,16.6946,16.7172,16.7189,16.7352,16.7352,16.7352,16.7352,16.7352,16.7427,16.7427,16.7502,16.7577,16.7502,16.7427,16.7352,16.7352,16.7352,16.7352,16.7352,16.7352,16.7352,16.7352,16.7352,16.7352,16.7352,16.7352,16.7352,16.7352,16.7352,16.7352,16.7352,16.7352,16.7352,16.7352,16.7352,16.7278,16.7262,16.6888,16.6439,16.6754,16.5782,16.4735,16.3688,16.2791,16.1595,16.0249,15.9426,15.8977,15.8304,15.7706,15.7631,15.7706,14.6473,14.6578,14.7605,14.8037,14.8131,14.8992,14.9427,14.9642,15.0479,15.0985,15.107,15.173,15.213,15.2328,15.2735,15.3556,15.5073,15.6662,15.8034,15.8973,15.9768,16.0634,16.1357,16.1689,16.1689,16.1689,16.1689,16.1689,16.1689,16.1689,16.1689,16.1689,16.1689,16.1689,16.1689,16.1689,16.1689,16.1689,16.1689,16.1689,16.1689,16.1689,16.1689,16.1689,16.1689,16.1689,16.1689,16.1689,16.1689,16.1689,16.1689,16.1689,16.1689,16.1689,16.1689,16.1689,16.1689,16.1689,16.1985,16.2974,16.3706,16.3826,16.5324,16.6093,16.6502,16.7031,16.7352,16.7352,16.7352,16.7352,16.7352,16.7352,16.7352,16.7352,16.7352,16.7352,16.7352,16.7352,16.7352,16.7352,16.7352,16.7352,16.7352,16.7352,16.7352,16.7352,16.7352,16.7352,16.7352,16.7352,16.7352,16.7352,16.7352,16.7352,16.7352,16.7352,16.6829,16.6679,16.653,16.6081,16.5707,16.5483,16.4287,16.3314,16.2342,16.152,16.0473,15.9426,15.8903,15.8529,15.8005,15.7706,15.7631,15.7631,15.7646,14.6189,14.6191,14.6753,14.6925,14.7131,14.8033,14.8457,14.8618,14.9458,14.9915,15.0184,15.0956,15.1481,15.1592,15.1868,15.2545,15.3701,15.5001,15.6156,15.7312,15.8684,15.9984,16.049,16.1429,16.1646,16.1718,16.1689,16.1689,16.1689,16.1689,16.1689,16.1689,16.1689,16.1689,16.1689,16.1689,16.1689,16.1689,16.1689,16.1689,16.1689,16.1689,16.1689,16.1689,16.1689,16.1689,16.1689,16.1689,16.1689,16.1689,16.1689,16.1689,16.1689,16.1689,16.1689,16.1689,16.1689,16.1689,16.1816,16.303,16.3682,16.3993,16.5609,16.6556,16.6768,16.6997,16.732,16.7352,16.7352,16.7352,16.7352,16.7352,16.7352,16.7352,16.7352,16.7352,16.7352,16.7352,16.7352,16.7352,16.7352,16.7352,16.7352,16.7352,16.7352,16.7352,16.7352,16.7352,16.7352,16.7352,16.7352,16.7352,16.7352,16.7352,16.7352,16.6679,16.5857,16.5633,16.5333,16.4511,16.3987,16.3838,16.2732,16.1236,16.0099,15.9276,15.8603,15.8603,15.8155,15.7706,15.7646,15.7646,15.7631,15.7646,15.7692,14.6189,14.6189,14.6189,14.6189,14.6297,14.7062,14.747,14.7638,14.8521,14.8865,14.9023,14.9915,15.0362,15.0596,15.1481,15.194,15.2273,15.3474,15.4423,15.5362,15.6951,15.8973,15.9551,16.0634,16.114,16.1357,16.1646,16.1718,16.1689,16.1689,16.1689,16.1689,16.1689,16.1689,16.1689,16.1689,16.1689,16.1689,16.1689,16.1689,16.1689,16.1689,16.1689,16.1689,16.1689,16.1689,16.1689,16.1689,16.1689,16.1689,16.1689,16.1689,16.1689,16.1689,16.1689,16.1689,16.1689,16.1689,16.186,16.318,16.3995,16.4725,16.5649,16.661,16.7014,16.7271,16.7401,16.7416,16.7416,16.7385,16.7352,16.7352,16.7352,16.7352,16.7352,16.7352,16.7352,16.7352,16.7352,16.7352,16.7352,16.7352,16.7352,16.7352,16.7352,16.7352,16.7352,16.7352,16.7352,16.7352,16.7203,16.7203,16.7128,16.6979,16.6979,16.5707,16.466,16.4361,16.3913,16.3106,16.2358,16.2208,16.1311,15.9681,15.8394,15.8036,15.7946,15.7856,15.7631,15.7646,15.7662,15.7677,15.7736,15.781,15.7824,14.6189,14.6189,14.6189,14.6189,14.6156,14.6332,14.6473,14.6578,14.7504,14.7901,14.8099,14.8897,14.9366,14.9581,15.0391,15.087,15.1199,15.2124,15.3221,15.4069,15.5351,15.6879,15.8612,15.9334,15.9623,15.9912,16.0923,16.1646,16.1718,16.1689,16.1689,16.1689,16.1689,16.1689,16.1689,16.1689,16.1689,16.1689,16.1689,16.1689,16.1689,16.1689,16.1689,16.1689,16.1689,16.1689,16.1689,16.1689,16.1689,16.1689,16.1689,16.1689,16.1689,16.1689,16.1689,16.1689,16.1689,16.1689,16.1889,16.229,16.2869,16.3312,16.4592,16.5427,16.6392,16.7048,16.7373,16.7542,16.7511,16.748,16.7369,16.7352,16.7352,16.7352,16.7352,16.7352,16.7352,16.7352,16.7352,16.7352,16.7352,16.7352,16.7352,16.7352,16.7352,16.7352,16.7352,16.7352,16.7352,16.7278,16.6904,16.6754,16.5782,16.5408,16.5184,16.4212,16.3314,16.2956,16.2582,16.161,16.0622,16.0459,15.9996,15.8245,15.7721,15.7796,15.7721,15.7736,15.7721,15.7662,15.7707,15.7795,15.7882,15.7864,15.7921,14.6189,14.6189,14.6189,14.6189,14.6189,14.6189,14.6189,14.6262,14.6753,14.6926,14.7097,14.7934,14.8359,14.8418,14.9366,15.0154,15.0538,15.0696,15.1271,15.256,15.4086,15.5334,15.6806,15.6879,15.789,15.9479,16.0273,16.1068,16.1573,16.1689,16.1689,16.1689,16.1689,16.1689,16.1689,16.1689,16.1689,16.1689,16.1689,16.1689,16.1689,16.1689,16.1689,16.1689,16.1689,16.1689,16.1689,16.1689,16.1689,16.1689,16.1689,16.1689,16.1689,16.1689,16.1689,16.1689,16.1689,16.1689,16.2097,16.2579,16.3259,16.3535,16.523,16.6055,16.6556,16.7056,16.7467,16.7495,16.7464,16.7448,16.7369,16.7336,16.7352,16.7352,16.7352,16.7352,16.7352,16.7352,16.7352,16.7352,16.7352,16.7352,16.7352,16.7352,16.7352,16.7085,16.7085,16.6546,16.6621,16.6113,16.5873,16.5365,16.4302,16.3704,16.348,16.2881,16.185,16.1386,16.0952,15.9995,15.9352,15.9053,15.8752,15.8346,15.7939,15.7836,15.7853,15.7822,15.7822,15.7882,15.7882,15.7954,15.801,15.799,15.8045,14.6189,14.6189,14.6189,14.6189,14.6189,14.6189,14.6189,14.6189,14.6225,14.6226,14.6368,14.7064,14.7369,14.7437,14.8424,14.9211,14.9673,14.955,14.9673,15.0869,15.3071,15.388,15.3759,15.4557,15.6201,15.8251,15.919,16.0273,16.14,16.1689,16.1689,16.1689,16.1689,16.1689,16.1689,16.1689,16.1689,16.1689,16.1689,16.1689,16.1689,16.1689,16.1689,16.1689,16.1689,16.1689,16.1689,16.1689,16.1689,16.1689,16.1689,16.1689,16.1689,16.1689,16.1689,16.1689,16.1689,16.1689,16.1957,16.3055,16.4064,16.385,16.5455,16.7006,16.6684,16.7164,16.7436,16.7432,16.718,16.699,16.6997,16.6929,16.661,16.6592,16.6751,16.6997,16.7139,16.7255,16.7336,16.7352,16.7352,16.7369,16.7401,16.7192,16.6743,16.6818,16.6369,16.5755,16.5172,16.4589,16.4156,16.3723,16.2734,16.2046,16.1746,16.1073,16.022,15.9681,15.9053,15.826,15.8363,15.815,15.837,15.8215,15.8045,15.8004,15.7935,15.7962,15.7949,15.799,15.8017,15.8045,15.8147,15.8112,15.8165,14.6189,14.6189,14.6189,14.6189,14.6189,14.6189,14.6189,14.6189,14.6189,14.6189,14.626,14.6262,14.6473,14.6403,14.7437,14.7934,14.8202,14.8611,14.952,15.0622,15.1471,15.194,15.1573,15.3104,15.5096,15.6884,15.8728,16.0057,16.114,16.1617,16.1689,16.1689,16.1689,16.1689,16.1689,16.1689,16.1689,16.1689,16.1689,16.1689,16.1689,16.1689,16.1689,16.1689,16.1689,16.1689,16.1689,16.1689,16.1689,16.1689,16.1689,16.1689,16.1689,16.1689,16.1689,16.1689,16.1689,16.1689,16.1873,16.2711,16.331,16.3609,16.5157,16.6093,16.6336,16.6922,16.7436,16.7436,16.678,16.6571,16.6391,16.5549,16.5283,16.5304,16.5674,16.6019,16.6262,16.6895,16.7352,16.7352,16.7278,16.7432,16.7152,16.645,16.5461,16.5327,16.4653,16.3979,16.338,16.3005,16.2631,16.1957,16.1119,16.04,15.9951,15.9412,15.8874,15.841,15.796,15.7882,15.7982,15.8017,15.8072,15.8125,15.8178,15.8165,15.8112,15.8058,15.8031,15.8072,15.8165,15.8191,15.8204,15.8243,15.8268,14.6189,14.6189,14.6189,14.6189,14.6189,14.6189,14.6189,14.6189,14.6189,14.6189,14.6189,14.6189,14.6189,14.6156,14.6648,14.7097,14.7605,14.7468,14.8359,14.952,14.9571,14.9632,15.0106,15.1314,15.3065,15.4704,15.6843,15.87,16.0173,16.1357,16.1646,16.1573,16.1689,16.1689,16.1545,16.1689,16.1689,16.1689,16.1689,16.1689,16.1689,16.1689,16.1689,16.1689,16.1689,16.1689,16.1689,16.1689,16.1689,16.1718,16.1718,16.1689,16.1689,16.1689,16.1689,16.1689,16.1689,16.1718,16.1917,16.2552,16.3136,16.3706,16.4518,16.5569,16.6355,16.6553,16.704,16.7342,16.7147,16.6606,16.6207,16.5709,16.5199,16.4651,16.4164,16.3946,16.4245,16.4616,16.4772,16.4788,16.4788,16.4818,16.4802,16.4292,16.3992,16.3692,16.3017,16.2343,16.1593,16.1518,16.1144,16.0019,15.9106,15.9077,15.8853,15.8703,15.8314,15.8239,15.7921,15.7976,15.8098,15.823,15.8268,15.8294,15.8319,15.8319,15.8306,15.8281,15.823,15.8217,15.8294,15.8331,15.8331,15.8356,15.8369,14.5149,14.5601,14.5601,14.5773,14.612,14.6189,14.6189,14.6189,14.6189,14.6189,14.6189,14.6189,14.6189,14.6225,14.6225,14.6578,14.6995,14.6578,14.7199,14.8283,14.7033,14.6674,14.76,14.8584,14.9803,15.1434,15.3437,15.5882,15.7767,15.9079,16.0016,16.0389,16.0173,16.0345,16.049,16.0273,16.0634,16.1068,16.1068,16.1184,16.1545,16.1689,16.1689,16.1689,16.1689,16.1689,16.1689,16.1689,16.1602,16.1382,16.1656,16.1929,16.2152,16.218,16.2208,16.2208,16.2152,16.2125,16.2345,16.3077,16.3534,16.3803,16.49,16.5689,16.6503,16.661,16.6973,16.7245,16.7197,16.6803,16.6207,16.5669,16.5072,16.4213,16.2587,16.1769,16.2387,16.2567,16.2778,16.2864,16.3014,16.3192,16.3145,16.2784,16.2348,16.2273,16.1748,16.1059,16.0234,15.9947,15.9797,15.8508,15.8133,15.812,15.8045,15.8133,15.8133,15.8058,15.8085,15.8138,15.8243,15.8344,15.8381,15.8418,15.8381,15.8369,15.8394,15.8406,15.8418,15.8356,15.8394,15.8381,15.8406,15.8418,15.8418,14.2687,14.3901,14.397,14.4733,14.5878,14.5912,14.5773,14.5981,14.5981,14.5878,14.5912,14.5739,14.5878,14.5981,14.567,14.5741,14.6157,14.5809,14.6299,14.6182,14.4308,14.2951,14.394,14.4859,14.609,14.7591,14.9398,15.148,15.3997,15.5807,15.627,15.7445,15.7601,15.724,15.7601,15.724,15.8179,15.9334,15.9551,16.0201,16.1284,16.1501,16.1501,16.1429,16.1357,16.1385,16.1269,16.1354,16.1044,16.0414,16.1366,16.2135,16.2875,16.3176,16.2708,16.2583,16.3004,16.2781,16.3209,16.3315,16.37,16.3218,16.4682,16.6627,16.5571,16.6027,16.6711,16.702,16.6582,16.6124,16.5742,16.4963,16.3924,16.2973,16.118,16.0206,16.0841,16.1583,16.1942,16.24,16.2817,16.2859,16.2545,16.1508,16.107,16.062,15.9719,15.9255,15.873,15.8805,15.8429,15.8279,15.8279,15.8191,15.8152,15.8165,15.8191,15.8191,15.823,15.8281,15.8369,15.8394,15.8418,15.8418,15.8406,15.8406,15.8418,15.8418,15.8418,15.8418,15.8418,15.8418,15.8418,15.8418,15.8418,14.1855,14.234,14.241,14.2757,14.3242,14.3242,14.3242,14.3242,14.3242,14.3242,14.3242,14.3242,14.3242,14.3242,14.3242,14.3242,14.3242,14.3242,14.3485,14.3447,14.1992,14.1713,14.2153,14.2549,14.3324,14.4969,14.8403,15.079,15.1887,15.4747,15.6542,15.6823,15.6879,15.6806,15.6879,15.6879,15.7095,15.7673,15.7818,15.8106,15.8512,15.8656,15.8684,15.8684,15.8684,15.8852,15.9182,15.9459,15.9432,15.9223,15.9566,16.0007,16.021,16.0333,16.0235,16.0235,16.0235,16.0333,16.0286,16.0875,16.08,16.113,16.1445,16.1874,16.2855,16.2718,16.3467,16.4084,16.4019,16.3561,16.3335,16.2766,16.2134,16.1241,16.0178,15.9723,15.9294,15.9628,15.992,16.0076,16.0169,16.0097,16.0135,15.9471,15.9396,15.9246,15.872,15.8344,15.8344,15.8344,15.8344,15.8419,15.8331,15.8306,15.8268,15.8281,15.8306,15.8319,15.8331,15.8381,15.8418,15.8418,15.8418,15.8418,15.8418,15.8418,15.8418,15.8418,15.8418,15.8418,15.8418,15.8418,15.8418,15.8418,15.8192,14.0398,14.0814,14.0814,14.1092,14.1508,14.1508,14.1508,14.1508,14.1508,14.1508,14.1508,14.1508,14.1508,14.1508,14.1508,14.1508,14.1369,14.0467,14.0121,14.0155,14.0085,14.0016,14.0085,14.0085,14.0456,14.1798,14.5416,14.7508,14.8601,15.1759,15.4196,15.4774,15.5073,15.5434,15.529,15.5434,15.5723,15.6084,15.6129,15.6528,15.7054,15.7126,15.7235,15.7344,15.737,15.7057,15.6748,15.7338,15.7731,15.7976,15.8365,15.8731,15.8949,15.8972,15.8996,15.8972,15.8996,15.8972,15.8996,15.9044,15.9519,15.9782,15.9692,15.9963,16.092,16.0974,16.1188,16.1869,16.1962,16.1879,16.1583,16.146,16.0612,15.8951,15.8868,15.8409,15.7656,15.7619,15.7732,15.784,15.7956,15.7956,15.7956,15.8178,15.8253,15.8266,15.8407,15.8406,15.8418,15.8406,15.8418,15.8418,15.8418,15.8394,15.8356,15.8356,15.8369,15.8369,15.8381,15.8418,15.8418,15.8418,15.8418,15.8418,15.8418,15.8418,15.8418,15.8418,15.8418,15.8418,15.8192,15.8192,15.8418,15.8192,15.7741,13.797,13.9288,13.9391,14.0051,14.1022,14.1092,14.13,14.1161,14.123,14.1022,14.0884,14.123,14.1022,14.123,14.0953,14.123,14.0676,13.8595,13.7554,13.7554,13.7415,13.7415,13.7485,13.7554,13.7654,13.7823,13.9004,14.0786,14.3082,14.6393,14.889,15.0155,15.1832,15.2653,15.24,15.2816,15.3294,15.436,15.4703,15.557,15.7274,15.7254,15.7364,15.7944,15.7997,15.7026,15.4885,15.5684,15.6415,15.7011,15.8157,15.9364,15.9554,15.962,15.9906,15.962,15.9906,16.0002,15.9885,15.9715,15.9451,15.9625,16.0278,16.009,16.0253,16.0687,16.1013,16.1113,16.1205,16.1354,16.1127,16.0706,15.9324,15.6824,15.6502,15.6379,15.5849,15.5926,15.6324,15.6899,15.7063,15.6948,15.7046,15.7452,15.7771,15.7942,15.8142,15.8418,15.8418,15.8418,15.8418,15.8418,15.8418,15.8418,15.8418,15.8418,15.8343,15.8268,15.8042,15.8268,15.8192,15.8418,15.8418,15.8343,15.8268,15.7666,15.7666,15.714,15.7365,15.729,15.7741,15.7591,15.729,15.6914,15.6764,13.6342,13.7693,13.7832,13.804,13.8456,13.8456,13.8456,13.8525,13.8456,13.8456,13.8456,13.8525,13.8525,13.8525,13.8456,13.8525,13.8317,13.7554,13.7068,13.7068,13.7068,13.7068,13.7068,13.7068,13.7068,13.7138,13.7554,13.8976,14.1407,14.5075,14.7534,14.883,15.0366,15.1509,15.2157,15.2556,15.2931,15.3397,15.3825,15.4295,15.4882,15.5052,15.5054,15.5371,15.5961,15.5876,15.5147,15.5384,15.5604,15.5861,15.625,15.6632,15.6856,15.6856,15.6877,15.6877,15.6877,15.6877,15.6877,15.6877,15.6951,15.6898,15.7014,15.7138,15.7138,15.7247,15.7601,15.7829,15.7921,15.8101,15.8119,15.7639,15.6769,15.5862,15.5567,15.5628,15.5813,15.6007,15.6214,15.649,15.6534,15.6881,15.7346,15.7437,15.7668,15.8129,15.8244,15.8418,15.8418,15.8418,15.8418,15.8418,15.8192,15.8117,15.7967,15.6463,15.5711,15.6463,15.6538,15.7365,15.7816,15.8268,15.8418,15.8192,15.7741,15.6989,15.6313,15.5711,15.5335,15.5047,15.5561,15.6087,15.5636,15.5411,15.5047,13.4502,13.5334,13.5334,13.5334,13.5334,13.5334,13.5334,13.5334,13.5404,13.5404,13.5334,13.5334,13.5681,13.6134,13.5612,13.5334,13.5334,13.5404,13.5334,13.5334,13.5334,13.5334,13.5334,13.5404,13.5334,13.5404,13.5334,13.6653,13.9313,14.3295,14.5837,14.7,14.8809,15.0119,15.0922,15.1329,15.1795,15.2353,15.2697,15.3204,15.4028,15.4051,15.356,15.2719,15.3244,15.354,15.354,15.354,15.3614,15.354,15.354,15.3561,15.3614,15.4056,15.4645,15.5256,15.5309,15.5309,15.5309,15.5309,15.5309,15.5309,15.5309,15.5424,15.5309,15.533,15.5497,15.5768,15.5867,15.5189,15.4805,15.3994,15.354,15.354,15.3487,15.3579,15.3974,15.4092,15.4153,15.4415,15.4598,15.4649,15.4686,15.5383,15.5701,15.6075,15.6453,15.6514,15.6614,15.6689,15.6463,15.6614,15.6689,15.6689,15.6701,15.4595,15.3768,15.4671,15.5197,15.5786,15.6012,15.6238,15.6463,15.6087,15.5711,15.5122,15.5047,15.4445,15.437,15.4069,15.3994,15.4295,15.3543,15.4295,15.3843,13.2314,13.2421,13.2352,13.256,13.2421,13.249,13.2421,13.2698,13.249,13.2421,13.2629,13.256,13.3253,13.4261,13.3045,13.2352,13.2421,13.256,13.2629,13.2629,13.2592,13.2421,13.2352,13.2352,13.2522,13.2768,13.2837,13.3804,13.611,14.0004,14.2718,14.4261,14.6452,14.8082,14.886,14.9005,14.9681,15.1016,15.1329,15.2197,15.3904,15.4192,15.2923,15.0911,15.052,15.0667,15.0593,15.052,15.052,15.052,15.0667,15.0593,15.0667,15.1919,15.3319,15.4719,15.494,15.494,15.4866,15.4793,15.4793,15.494,15.4666,15.4961,15.4645,15.4666,15.4687,15.4982,15.475,15.3697,15.1399,15.1117,15.0908,15.0814,15.0667,15.0667,15.0708,15.1064,15.054,15.0769,15.0997,15.1245,15.085,15.1355,15.2271,15.2605,15.311,15.3784,15.3985,15.382,15.3919,15.3994,15.3919,15.3543,15.3317,15.2565,15.2791,15.3392,15.3392,15.3618,15.3543,15.3618,15.3768,15.3768,15.3618,15.3467,15.3467,15.3242,15.2866,15.2716,15.2565,15.264,15.2039,15.2941,15.2565,13.138,13.2282,13.2352,13.2352,13.2352,13.2352,13.2352,13.2352,13.2352,13.2352,13.2352,13.2352,13.2074,13.145,13.1034,13.1482,13.2282,13.2352,13.2352,13.2352,13.2352,13.2352,13.2352,13.2352,13.2352,13.2352,13.2282,13.272,13.3563,13.6086,13.8521,14.0847,14.2717,14.4894,14.7339,14.8035,14.8857,15.0015,15.0486,15.0921,15.1416,15.1584,15.1206,15.0499,15.0446,15.0446,15.0446,15.0446,15.0446,15.0446,15.0446,15.0446,15.0446,15.0814,15.1256,15.1698,15.1772,15.1772,15.1772,15.1772,15.1772,15.1772,15.1772,15.1772,15.1772,15.1772,15.1772,15.1772,15.1772,15.1551,15.052,15.0446,15.0446,15.0446,15.0446,15.0446,15.0372,15.0446,15.0299,15.0446,15.0151,15.0446,15.0494,15.082,15.1339,15.1723,15.2441,15.2966,15.3068,15.3223,15.3467,15.3618,15.3543,15.2565,15.0396,15.017,15.0546,15.1073,15.175,15.2114,15.3317,15.3467,15.3543,15.249,15.2039,15.1813,15.175,15.0622,14.9858,14.987,14.987,14.9858,15.0321,15.0009,14.9708,12.8259,12.9577,12.9577,12.9924,13.0479,13.0548,13.0548,13.0548,13.0548,13.0548,13.0409,12.9161,12.812,12.7457,12.8051,12.8744,12.9577,13.0271,13.0548,13.0548,13.0548,13.0548,13.0548,13.0548,13.0643,13.0668,13.0668,13.1078,13.1931,13.2993,13.5432,13.8623,14.0139,14.2502,14.5538,14.6122,14.712,14.8905,14.9271,14.8457,14.6762,14.6487,14.6467,14.6467,14.6467,14.6487,14.6487,14.6487,14.6762,14.7331,14.7499,14.772,14.8457,14.9046,14.9414,14.9488,15.0078,15.0446,15.0446,15.0446,15.0446,15.0446,15.0446,15.0446,15.0446,15.0446,14.9857,14.8825,14.8457,14.8457,14.8457,14.8457,14.8457,14.8457,14.8457,14.8457,14.8457,14.8457,14.8457,14.8457,14.8457,14.8457,14.8517,14.872,14.9117,14.9606,15.0306,15.0542,15.072,15.1196,15.1489,15.1512,15.1512,15.0546,14.9193,14.8516,14.8967,14.9719,15.002,15.017,15.1137,15.1437,15.1512,15.1437,15.061,15.002,14.9945,14.9043,14.8516,14.8667,14.8516,14.8516,14.8516,14.8516,14.7678,12.4166,12.5246,12.5523,12.6178,12.7427,12.7496,12.7427,12.7496,12.7496,12.7496,12.728,12.4543,12.3403,12.3433,12.4791,12.5454,12.5592,12.6872,12.7496,12.7496,12.7496,12.7496,12.7427,12.7427,12.7581,12.7826,12.8026,12.8983,13.0482,13.0923,13.3065,13.6715,13.8025,14.0063,14.2888,14.3267,14.4532,14.7164,14.7278,14.5141,14.1035,14.074,14.074,14.074,14.0814,14.074,14.1108,14.074,14.1403,14.2691,14.2912,14.3575,14.5068,14.6447,14.7184,14.7278,14.8604,14.9562,14.9414,14.9562,14.9267,14.9562,14.9414,14.9488,14.9562,14.9488,14.8236,14.5952,14.5141,14.5121,14.5141,14.5141,14.5141,14.5141,14.5141,14.5141,14.5141,14.5121,14.5141,14.5121,14.5141,14.5141,14.5141,14.5278,14.5453,14.5943,14.7064,14.7846,14.7873,14.8493,14.8967,14.8291,14.8065,14.799,14.7839,14.799,14.7764,14.7839,14.799,14.799,14.799,14.8065,14.8065,14.8129,14.7915,14.7839,14.7903,14.8065,14.7828,14.7377,14.7452,14.7828,14.799,14.7764,14.6504,12.3503,12.375,12.375,12.3958,12.4236,12.4335,12.4335,12.4266,12.4266,12.4455,12.4635,12.3731,12.3225,12.3294,12.3641,12.375,12.385,12.4097,12.4305,12.4335,12.4335,12.4305,12.4305,12.4335,12.4296,12.4525,12.5947,12.6833,12.7441,12.8936,13.026,13.1242,13.2902,13.5542,13.8896,13.9017,14.0115,14.219,14.2361,14.1845,14.074,14.074,14.074,14.074,14.0666,14.074,14.074,14.074,14.0887,14.1256,14.1256,14.1403,14.1752,14.214,14.2361,14.2361,14.2729,14.295,14.295,14.295,14.295,14.295,14.4036,14.4753,14.4606,14.3668,14.2582,14.1992,14.1992,14.1919,14.1992,14.1919,14.1845,14.1845,14.1845,14.1992,14.1845,14.1845,14.1845,14.1845,14.1845,14.1919,14.1922,14.2074,14.2401,14.2886,14.4483,14.5784,14.6088,14.7442,14.7215,14.5647,14.4745,14.4896,14.4745,14.482,14.4896,14.4745,14.482,14.5046,14.4971,14.482,14.482,14.4971,14.4896,14.5046,14.4896,14.4896,14.4971,14.5046,14.5121,14.4971,14.5046,14.5035,14.399,12.1629,12.2254,12.2254,12.267,12.3225,12.3443,12.3562,12.3541,12.2247,12.1736,12.1921,12.1777,12.165,12.1691,12.2358,12.2636,12.2636,12.3332,12.368,12.368,12.368,12.368,12.368,12.368,12.3768,12.3914,12.4996,12.5561,12.5804,12.6862,12.7806,12.8579,13.0199,13.3014,13.665,13.7396,13.8424,13.9928,13.9002,13.8529,13.8529,13.7719,13.735,13.7332,13.6613,13.6245,13.6319,13.6319,13.6982,13.8456,13.8529,13.9192,14.0592,14.0003,13.9561,13.9561,13.9561,13.9266,13.8529,13.9856,14.074,14.074,14.1531,14.1384,13.9891,14.0371,14.074,14.074,14.074,14.074,14.074,14.074,14.074,14.074,14.074,14.074,14.074,14.074,14.074,14.074,14.074,14.074,14.074,14.0929,14.1038,14.1184,14.2338,14.3631,14.4172,14.5403,14.5572,14.4068,14.3606,14.3606,14.3692,14.3606,14.3606,14.3606,14.3606,14.3606,14.3606,14.3681,14.3681,14.3606,14.3681,14.3606,14.3681,14.3606,14.3606,14.3606,14.3606,14.3606,14.3584,14.3482,14.2413,11.9663,12.0943,12.0943,12.1637,12.2818,12.3152,12.3385,12.3406,12.096,11.9798,11.9813,11.9786,11.9688,11.9828,12.103,12.1589,12.1659,12.2958,12.3616,12.3616,12.3616,12.3587,12.3587,12.3616,12.3689,12.3915,12.4182,12.4631,12.5092,12.5429,12.6302,12.785,12.9188,13.1631,13.4952,13.6397,13.7228,13.7893,13.6259,13.5544,13.5803,13.4458,13.3722,13.3648,13.2543,13.1585,13.1364,13.1438,13.2616,13.5361,13.5287,13.654,13.9413,13.8013,13.7184,13.7203,13.7203,13.6595,13.5361,13.7792,13.934,13.9413,13.9782,13.8677,13.5656,13.7792,13.934,13.934,13.934,13.9708,13.9708,13.9782,13.9856,13.9929,14.0003,14.0003,13.9856,13.9856,13.9782,13.9782,14.0077,13.9929,13.9727,13.9895,13.997,14.0209,14.0515,14.1318,14.2327,14.2812,14.2919,14.2941,14.293,14.2941,14.2565,14.2865,14.264,14.2941,14.2715,14.2489,14.2489,14.2489,14.2489,14.279,14.2565,14.264,14.2715,14.2941,14.264,14.2489,14.2489,14.2565,14.2554,14.1551,14.0332,11.9731,11.994,11.9968,12.015,12.0387,12.0415,12.0471,12.0485,0.0,0.0,0.0,11.9868,11.9688,11.9758,11.9968,12.008,12.0177,12.0387,12.0527,12.0499,12.0527,12.0527,12.0527,12.0527,12.0555,12.068,12.2163,12.3564,12.4884,12.6401,12.785,12.9329,12.9751,13.0189,13.0981,13.2716,13.3065,13.2088,13.2403,13.3779,13.5766,13.5582,13.5416,13.5434,13.514,13.4385,13.2985,13.2911,13.3206,13.3722,13.2561,13.269,13.4458,13.3132,13.2248,13.2322,13.2322,13.2174,13.188,13.2395,13.2764,13.269,13.5213,13.5342,13.2101,13.2413,13.2764,13.2708,13.3869,13.4679,13.4698,13.5877,13.6761,13.6761,13.6761,13.6761,13.6761,13.6761,13.6834,13.6761,13.6834,13.6761,13.6908,13.7141,13.7365,13.7799,13.8472,13.9257,14.0796,14.048,13.9782,13.9782,13.9933,13.9643,13.9557,13.9632,13.9482,13.9793,13.9707,13.9482,13.9482,13.9482,13.9482,13.9782,13.9482,13.9557,13.9557,13.9557,13.9482,13.9482,13.9482,13.9492,13.9235,13.7025,13.4913,11.8569,11.8639,11.9408,11.9688,0.0,11.9826,12.006,12.0126,12.0395,12.0422,12.0358,12.0153,12.0169,12.0099,12.0099,12.0169,12.0169,12.0169,12.0099,12.0099,12.0169,12.0099,12.0099,12.0099,12.0169,12.0169,12.1077,12.1834,12.2704,12.3544,12.4753,12.6302,12.6302,12.6724,12.7456,12.8458,12.8022,12.6237,12.9244,13.1426,13.2645,13.236,13.2101,13.2101,13.1364,0.0,0.0,0.0,0.0,0.0,0.0,0.0,0.0,0.0,0.0,12.8638,12.8564,12.7827,12.6354,12.8343,12.9375,12.8638,13.1585,13.2027,12.8785,13.0111,13.0996,13.0996,13.1732,13.2174,13.2174,13.2911,13.3445,13.3445,13.3445,13.3371,13.3519,13.409,13.455,13.4679,13.5361,13.5877,13.5877,13.6212,13.6574,13.6845,13.7537,13.8372,13.9253,13.8997,13.8579,13.8579,13.8579,13.8579,13.8579,13.8579,13.8579,13.8579,13.8579,13.8579,13.8579,13.8579,13.8579,13.8504,13.7838,13.7312,13.7312,13.6624,13.6098,13.6173,13.6173,13.6173,13.6012,13.4474,13.293,11.7753,11.8076,11.9363,11.9923,11.9853,11.9441,11.9586,12.008,12.008,12.022,12.0502,12.022,12.008,12.008,12.008,12.0264,12.0502,12.0572,12.0572,12.0572,12.0572,12.0572,12.0572,12.0572,12.0572,12.0572,12.0572,12.0643,12.0995,12.0995,12.1796,12.3231,12.3301,12.3794,12.471,0.0,0.0,0.0,12.6343,12.902,12.9618,12.8995,12.8791,12.8933,12.7736,0.0,12.6631,12.6631,12.7164,12.8399,12.8196,0.0,0.0,0.0,0.0,0.0,0.0,0.0,0.0,0.0,0.0,0.0,12.6501,12.687,12.4659,12.7017,12.8859,12.9154,12.9743,13.0111,13.0111,13.0627,13.0996,13.0996,13.0996,13.0996,13.0996,13.1806,13.2543,13.2837,13.3795,13.4606,13.5158,13.5664,13.5972,13.6451,13.725,13.7783,13.7672,13.7934,13.8266,13.8653,13.8714,13.8704,13.8653,13.8611,13.8515,13.8139,13.8139,13.7903,13.7602,13.7527,13.7602,13.7527,13.6549,13.5647,13.5657,13.4594,13.3907,13.3757,13.3757,13.3477,13.2519,13.2064,13.1825,11.8848,12.0114,12.0325,12.0466,12.0184,11.7564,11.7168,11.8461,11.8461,11.9235,12.0432,11.9094,11.8531,11.8461,11.8461,11.9235,12.0502,12.0572,12.0572,12.0572,12.0572,12.0572,12.0572,12.0572,12.0572,12.0572,12.0572,12.1206,12.25,12.2597,12.3345,12.4823,12.4921,12.4358,12.3161,12.1796,12.1004,12.074,12.3626,12.653,12.9504,12.9572,12.9889,13.0665,13.048,12.9743,12.827,12.8178,12.827,12.8399,12.7238,12.6575,12.6722,12.5158,12.2874,0.0,11.9739,0.0,0.0,0.0,0.0,0.0,0.0,0.0,0.0,11.9297,12.0976,12.2432,12.5084,12.6796,12.6796,12.9301,13.0996,13.0996,13.0996,13.0996,13.0922,12.989,12.9669,13.1143,13.0185,13.0627,13.3132,13.3702,13.4486,13.5866,13.6582,13.6539,13.6354,13.6286,13.6958,13.8785,13.9007,13.8186,13.8277,13.8413,13.7784,13.657,13.6215,13.5958,13.4615,13.4454,13.4444,13.4444,13.4293,13.3982,13.4058,13.3832,13.3606,13.3456,13.3251,13.2032,12.8777,12.7736,12.7491,11.5223,11.6701,11.7546,11.6912,11.5293,11.4756,11.4967,11.5671,11.649,11.6772,11.656,11.5882,11.5575,11.56,11.56,11.649,11.7898,11.7898,11.839,11.9235,11.9235,11.9657,12.0502,12.0572,12.0572,12.0572,12.0572,12.0854,12.1514,12.1585,12.1937,12.2543,12.257,12.0951,11.7783,11.6093,11.6208,11.7898,11.9098,12.1752,12.59,12.7165,12.7931,12.8252,12.8343,12.7975,12.7238,12.7238,12.6796,12.5821,12.5158,12.3906,12.2154,12.0534,11.8176,0.0,0.0,0.0,0.0,0.0,0.0,0.0,0.0,0.0,0.0,0.0,11.6481,11.7218,11.9428,12.1123,12.2007,12.3407,12.4586,12.5526,12.56,12.5249,12.4308,12.5986,12.6779,12.5747,12.7312,12.8712,12.9227,13.039,13.1529,13.2608,13.2132,13.1626,13.1561,13.1857,13.2486,13.3408,13.3667,13.3683,13.361,13.3525,13.3095,13.2492,13.2266,13.2417,13.2568,13.2486,13.2797,13.355,13.301,13.2338,13.2328,13.1662,13.0985,13.0714,12.9644,12.7761,12.574,12.518,12.5056,11.1869,11.2925,11.2714,11.1447,10.9687,11.0884,11.1799,11.2503,11.37,11.3559,11.2362,11.208,11.1728,11.1376,11.1728,11.2784,11.4192,11.4544,11.5575,11.7053,11.7053,11.7898,11.9376,11.9376,11.9376,11.9446,11.9376,11.9446,11.9376,11.9024,11.9024,11.9376,11.8672,11.649,11.3066,11.2151,11.2925,11.5223,11.5645,11.7821,12.1759,12.4129,12.5458,12.5668,12.5685,12.5464,12.5079,12.5045,12.4234,12.2646,12.2556,12.0877,11.7282,11.5986,0.0,0.0,0.0,0.0,0.0,0.0,0.0,0.0,0.0,10.7226,10.7535,0.0,11.1887,0.0,11.398,11.5792,11.6939,11.7782,0.0,0.0,12.023,11.973,11.8461,12.1262,12.2482,12.0386,12.3333,12.547,12.5011,12.6739,12.7762,12.7171,12.6659,12.6587,12.7494,12.8007,12.8515,12.9335,12.9567,12.9347,12.9538,12.9304,12.9509,12.9252,12.969,13.0075,13.0913,13.0961,13.1179,13.1858,13.1064,13.0087,12.955,12.8563,12.7668,12.7452,12.5498,12.3654,12.3647,12.341,12.3172,11.1236,11.0884,10.5463,10.3843,10.4899,10.504,10.6683,10.9218,10.9359,10.9359,10.9147,10.7856,10.6425,10.5251,10.6589,0.0,10.95,11.0884,11.2362,11.3911,11.3911,11.4685,11.6234,11.6208,11.6234,11.6208,11.6234,11.6208,11.6138,11.4801,11.4826,11.6068,11.3348,11.1728,11.1447,11.2644,11.3418,11.37,11.5108,11.6559,11.7908,12.1292,12.3428,12.4155,12.4171,12.3433,12.1941,12.1795,12.1041,11.9578,11.9489,11.7333,11.2699,0.0,0.0,0.0,0.0,0.0,0.0,0.0,0.0,0.0,0.0,0.0,0.0,0.0,0.0,0.0,10.9523,0.0,11.215,11.4984,0.0,0.0,0.0,11.7043,11.6847,11.5888,11.5621,11.6734,0.0,0.0,12.1327,12.3055,12.291,11.9884,12.2056,12.4639,12.6578,12.6812,12.7641,12.8838,12.9414,12.9453,12.8806,12.8851,12.8729,12.8549,13.0468,13.0264,12.9365,12.9192,12.8656,12.7742,12.7282,12.6731,12.507,12.4685,12.4542,12.4391,12.309,12.1975,12.1824,12.1654,12.1573,10.4639,10.2801,10.0532,9.938,9.9061,9.9886,10.0878,10.2035,10.2951,10.3373,10.328,10.2717,10.1661,10.0275,10.1802,0.0,0.0,0.0,10.7011,10.9405,10.9405,11.0743,11.2925,11.2996,11.3066,11.2996,11.2996,11.3066,11.2996,11.2362,11.0602,10.7504,0.0,0.0,10.5859,10.7363,10.9127,11.1153,11.2586,11.4698,11.7708,11.9631,12.1223,12.2585,12.2632,12.1819,12.0267,12.0131,11.849,11.5004,11.4841,11.2624,0.0,0.0,0.0,0.0,0.0,0.0,0.0,0.0,0.0,0.0,0.0,9.7204,9.787,0.0,0.0,0.0,10.4388,10.6403,10.7382,10.8679,0.0,0.0,0.0,0.0,0.0,0.0,0.0,11.0927,11.4265,11.6527,11.6044,11.5565,11.5444,11.6138,11.7365,11.8609,11.977,0.0,12.2218,12.3083,12.3505,12.3675,12.3629,12.3436,12.2991,12.2168,12.1731,12.1731,12.3093,12.3488,12.3891,12.4943,12.5254,12.4963,12.4359,12.1025,11.8484,11.8408,11.7916,11.7568,11.7492,11.7462,11.7814,9.8984,0.0,0.0,0.0,0.0,9.6608,9.717,9.7473,9.8601,9.8839,9.8422,9.8352,0.0,0.0,0.0,0.0,0.0,0.0,10.2176,10.4688,10.4759,10.6096,10.849,10.856,10.856,10.856,10.8584,10.856,10.8514,10.7787,10.5247,10.0944,0.0,0.0,0.0,0.0,10.521,10.7563,10.9408,11.2274,11.6347,11.7416,11.8736,12.039,12.0005,11.8954,11.7325,11.6837,11.4677,11.0858,11.0192,0.0,0.0,0.0,0.0,0.0,0.0,0.0,0.0,0.0,0.0,0.0,0.0,0.0,0.0,0.0,0.0,0.0,0.0,0.0,10.2508,10.3544,10.4506,0.0,0.0,0.0,0.0,0.0,0.0,0.0,0.0,0.0,11.0153,10.9984,11.1002,0.0,0.0,11.5513,11.5903,11.7145,11.7923,11.7783,11.7844,0.0,11.7996,11.7819,11.7731,11.7754,11.692,11.726,12.0588,12.0293,12.0386,12.2586,12.2586,12.1838,12.0786,11.7257,11.4439,11.3394,11.3546,11.3692,11.3243,11.3087,11.3662,0.0,0.0,0.0,0.0,0.0,0.0,0.0,0.0,9.7473,9.6571,0.0,9.5184,0.0,0.0,0.0,0.0,0.0,9.6824,0.0,0.0,9.9923,10.0838,10.2294,10.2435,10.2365,10.2365,10.2387,10.2387,10.2128,9.9699,0.0,0.0,0.0,0.0,0.0,0.0,10.2744,10.2979,10.5884,10.9061,11.2446,11.414,11.5827,11.7402,11.5849,11.4149,11.2444,11.0885,10.9183,10.7491,10.5995,0.0,0.0,0.0,0.0,0.0,0.0,0.0,0.0,0.0,0.0,0.0,0.0,0.0,0.0,0.0,0.0,0.0,0.0,0.0,0.0,10.0646,0.0,0.0,0.0,0.0,0.0,0.0,0.0,0.0,0.0,0.0,10.3904,10.7863,11.1334,11.1772,0.0,0.0,0.0,0.0,11.6143,11.4632,11.4126,11.4019,11.3952,11.4185,11.5407,11.8455,0.0,0.0,12.3694,12.172,11.9594,11.9826,11.8529,11.6413,11.3228,11.3237,11.2883,11.0093,11.0616,11.1196,10.9849,10.9453,10.9866,0.0,0.0,0.0,0.0,0.0,0.0,0.0,0.0,0.0,9.0474,0.0,9.0892,0.0,0.0,0.0,0.0,0.0,0.0,0.0,0.0,9.5176,9.6521,9.9007,9.9007,9.9073,0.0,9.9132,9.7057,0.0,0.0,0.0,0.0,0.0,0.0,0.0,0.0,10.0455,10.1646,10.3512,10.6151,10.9454,11.108,11.2101,11.2721,11.3109,11.1998,10.9326,10.7642,10.4971,0.0,0.0,0.0,0.0,0.0,0.0,0.0,0.0,0.0,0.0,0.0,0.0,0.0,0.0,0.0,0.0,0.0,0.0,0.0,0.0,0.0,0.0,0.0,9.6178,0.0,0.0,0.0,0.0,0.0,0.0,0.0,0.0,0.0,10.3036,10.3761,10.5109,10.7173,10.8696,11.0331,11.227,0.0,0.0,0.0,0.0,0.0,0.0,0.0,11.4766,11.1901,11.2237,11.2993,11.329,11.3316,11.3927,11.6048,0.0,0.0,10.8166,10.7731,10.7684,10.6558,10.6603,10.6652,10.6053,10.5834,10.6411,0.0,0.0,0.0,0.0,0.0,0.0,0.0,0.0,0.0,8.6129,8.7066,0.0,0.0,0.0,0.0,0.0,0.0,0.0,0.0,0.0,0.0,0.0,9.4404,9.4475,0.0,0.0,0.0,0.0,0.0,0.0,0.0,0.0,0.0,0.0,0.0,0.0,9.8542,10.0321,10.1889,10.4406,10.788,10.9224,10.9951,11.0175,11.0622,10.9625,10.6939,0.0,0.0,0.0,0.0,0.0,0.0,0.0,0.0,0.0,0.0,0.0,0.0,0.0,0.0,0.0,0.0,0.0,0.0,0.0,0.0,0.0,0.0,0.0,0.0,0.0,9.1715,0.0,0.0,0.0,0.0,0.0,0.0,0.0,0.0,0.0,0.0,0.0,10.1723,10.4353,10.5445,10.6766,10.8799,11.017,11.153,0.0,0.0,0.0,0.0,0.0,0.0,0.0,0.0,0.0,0.0,0.0,0.0,0.0,0.0,10.777,10.4373,10.4149,10.4076,10.2875,0.0,0.0,0.0,0.0,0.0,0.0,0.0,0.0,0.0,0.0,0.0,0.0,0.0,0.0,0.0,8.3878,0.0,0.0,8.1912,0.0,0.0,0.0,0.0,0.0,0.0,0.0,0.0,0.0,0.0,0.0,0.0,0.0,0.0,0.0,0.0,0.0,0.0,0.0,0.0,0.0,0.0,9.7058,9.8699,10.0806,10.3827,10.7553,10.8575,10.9228,10.9697,10.8424,10.6877,10.5021,0.0,0.0,0.0,0.0,0.0,0.0,0.0,0.0,0.0,0.0,0.0,0.0,0.0,0.0,0.0,0.0,0.0,0.0,0.0,0.0,0.0,0.0,0.0,0.0,0.0,0.0,9.2161,9.2755,9.2755,0.0,0.0,0.0,0.0,0.0,0.0,0.0,0.0,0.0,0.0,10.5272,10.6576,10.7107,10.69,10.6332,10.4842,10.5658,10.6364,10.6297,10.7937,10.9029,0.0,0.0,0.0,0.0,0.0,0.0,0.0,0.0,0.0,0.0,0.0,0.0,0.0,0.0,0.0,0.0,0.0,0.0,0.0,0.0,0.0,0.0,0.0,0.0,0.0,0.0,0.0,0.0,0.0,0.0,0.0,0.0,0.0,0.0,0.0,0.0,0.0,0.0,0.0,0.0,0.0,0.0,0.0,0.0,0.0,0.0,0.0,0.0,0.0,0.0,0.0,0.0,0.0,0.0,9.4399,9.7058,9.8861,10.1059,10.3735,10.5656,10.631,10.5817,10.586,10.4575,0.0,0.0,0.0,0.0,0.0,0.0,0.0,0.0,0.0,0.0,0.0,0.0,0.0,0.0,0.0,0.0,0.0,0.0,0.0,0.0,0.0,0.0,0.0,0.0,0.0,0.0,0.0,0.0,8.7111,8.867,9.0898,0.0,0.0,0.0,0.0,0.0,0.0,0.0,0.0,0.0,0.0,9.9448,10.3888,10.4452,10.5112,10.7063,10.7482,10.685,10.4669,10.5966,10.5959,10.23,0.0,0.0,0.0,0.0,0.0,0.0,0.0,0.0,0.0,0.0,0.0,0.0,0.0,0.0,0.0,0.0,0.0,0.0,0.0,0.0,0.0,0.0,0.0,0.0,0.0,0.0,0.0,0.0,0.0,0.0,0.0,0.0,0.0,0.0,0.0,0.0,0.0,0.0,0.0,0.0,0.0,0.0,0.0,0.0,0.0,0.0,0.0,0.0,0.0,0.0,0.0,0.0,0.0,9.2544,9.6363,9.8221,10.0216,10.2517,10.4716,10.5416,10.4482,10.4241,10.3015,0.0,0.0,0.0,0.0,0.0,0.0,0.0,0.0,0.0,0.0,0.0,0.0,0.0,0.0,0.0,0.0,0.0,0.0,0.0,0.0,0.0,0.0,0.0,0.0,0.0,0.0,0.0,0.0,8.4066,8.57,8.8225,0.0,0.0,0.0,0.0,0.0,0.0,0.0,0.0,0.0,0.0,9.7353,10.1322,10.1909,0.0,0.0,10.5582,10.5138,10.338,10.4577,10.4374,10.0367,10.0563,0.0,0.0,0.0,0.0,0.0,0.0,0.0,0.0,0.0,0.0,0.0,0.0,0.0,0.0,0.0,0.0,0.0,0.0,0.0,0.0,0.0,0.0,0.0,0.0,0.0,0.0,0.0,0.0,0.0,0.0,0.0,0.0,0.0,0.0,0.0,0.0,0.0,0.0,0.0,0.0,0.0,0.0,0.0,0.0,0.0,0.0,0.0,0.0,0.0,0.0,0.0,0.0,0.0,9.6173,9.8452,10.0652,10.3101,10.5137,10.5844,10.4996,10.3312,10.1678,0.0,0.0,0.0,0.0,0.0,0.0,0.0,0.0,0.0,0.0,0.0,0.0,0.0,0.0,0.0,0.0,0.0,0.0,0.0,0.0,0.0,0.0,0.0,0.0,0.0,0.0,0.0,0.0,0.0,0.0,0.0,0.0,0.0,0.0,0.0,0.0,0.0,0.0,0.0,0.0,0.0,9.8749,9.9436,9.9531,9.9578,0.0,10.0788,10.1678,10.196,10.3335,10.3595,10.145,0.0,0.0,0.0,0.0,0.0,0.0,0.0,0.0,0.0,0.0,0.0,0.0,0.0,0.0,0.0,0.0,0.0,0.0,0.0,0.0,0.0,0.0,0.0,0.0,0.0,0.0,0.0,0.0,0.0,0.0,0.0,0.0,0.0,0.0,0.0,0.0,0.0,0.0,0.0,0.0,0.0,0.0,0.0,0.0,0.0,0.0,0.0,0.0,0.0,0.0,0.0,0.0,0.0,0.0,9.5104,9.6953,9.92,10.1948,10.262,10.3038,10.3226,10.1678,0.0,0.0,0.0,0.0,0.0,0.0,0.0,0.0,0.0,0.0,0.0,0.0,0.0,0.0,0.0,0.0,0.0,0.0,0.0,0.0,0.0,0.0,0.0,0.0,0.0,0.0,0.0,7.7169,0.0,0.0,0.0,0.0,0.0,0.0,0.0,0.0,0.0,0.0,0.0,0.0,0.0,0.0,9.4976,9.8947,9.9336,9.9331,0.0,0.0,9.9381,9.9449,9.971,9.9763,0.0,0.0,0.0,0.0,0.0,0.0,0.0,0.0,0.0,0.0,0.0,0.0,0.0,0.0,0.0,0.0,0.0,0.0,0.0,0.0,0.0,0.0,0.0,0.0,0.0,0.0,0.0,0.0,0.0,0.0,0.0,0.0,0.0,0.0,0.0,0.0,0.0,0.0,0.0,0.0,0.0,0.0,0.0,0.0,0.0,0.0,0.0,0.0,0.0,0.0,0.0,0.0,0.0,0.0,8.9026,9.3296,9.5702,9.7963,10.0158,10.0907,10.1378,10.1667,10.0033,9.7668,0.0,0.0,0.0,0.0,0.0,0.0,0.0,0.0,0.0,0.0,0.0,0.0,0.0,0.0,0.0,0.0,0.0,0.0,0.0,0.0,0.0,0.0,0.0,0.0,0.0,0.0,0.0,0.0,0.0,0.0,0.0,0.0,0.0,0.0,0.0,0.0,0.0,0.0,0.0,0.0,0.0,0.0,9.7831,9.8211,0.0,0.0,0.0,9.8571,9.8704,0.0,0.0,0.0,0.0,0.0,0.0,0.0,0.0,0.0,0.0,0.0,0.0,0.0,0.0,0.0,0.0,0.0,0.0,0.0,0.0,0.0,0.0,0.0,0.0,0.0,0.0,0.0,0.0,0.0,0.0,0.0,0.0,0.0,0.0,0.0,0.0,0.0,0.0,0.0,0.0,0.0,0.0,0.0,0.0,0.0,0.0,0.0,0.0,0.0,0.0,0.0,0.0,0.0,0.0,0.0,0.0,0.0,9.1082,9.4333,9.6704,9.819,9.9459,10.0069,9.9998,9.8353,9.5892,0.0,0.0,0.0,0.0,0.0,0.0,0.0,0.0,0.0,0.0,0.0,0.0,0.0,0.0,0.0,0.0,0.0,0.0,0.0,0.0,0.0,0.0,0.0,0.0,0.0,0.0,0.0,0.0,0.0,0.0,0.0,0.0,0.0,0.0,0.0,0.0,0.0,0.0,0.0,0.0,0.0,9.4635,9.6324,9.6597,9.7089,0.0,0.0,9.8345,9.8314,9.8485,0.0,0.0,0.0,0.0,0.0,0.0,0.0,0.0,0.0,0.0,0.0,0.0,0.0,0.0,0.0,0.0,0.0,0.0,0.0,0.0,0.0,0.0,0.0,0.0,0.0,0.0,0.0,0.0,0.0,0.0,0.0,0.0,0.0,0.0,0.0,0.0,0.0,0.0,0.0,0.0,0.0,0.0,0.0,0.0,0.0,0.0,0.0,0.0,0.0,0.0,0.0,0.0,0.0,0.0,0.0,0.0,8.8617,9.1677,9.4558,9.7165,9.6935,9.7307,9.8204,9.6218,9.3828,0.0,0.0,0.0,0.0,0.0,0.0,0.0,0.0,0.0,0.0,0.0,0.0,0.0,0.0,0.0,0.0,0.0,0.0,0.0,0.0,0.0,0.0,0.0,0.0,0.0,0.0,0.0,0.0,0.0,0.0,0.0,0.0,0.0,0.0,0.0,0.0,0.0,0.0,0.0,0.0,0.0,9.2851,9.4507,9.5912,0.0,0.0,0.0,0.0,9.4846,9.4611,0.0,0.0,0.0,0.0,0.0,0.0,0.0,0.0,0.0,0.0,0.0,0.0,0.0,0.0,0.0,0.0,0.0,0.0,0.0,0.0,0.0,0.0,0.0,0.0,0.0,0.0,0.0,0.0,0.0,0.0,0.0,0.0,0.0,0.0,0.0,0.0,0.0,0.0,0.0,0.0,0.0,0.0,0.0,0.0,0.0,0.0,0.0,0.0,0.0,0.0,0.0,0.0,0.0,0.0,0.0,0.0,8.8151,8.9528,9.2008,9.5605,9.4356,9.453,9.6509,9.3992,9.1526,0.0,0.0,0.0,0.0,0.0,0.0,0.0,0.0,0.0,0.0,0.0,0.0,0.0,0.0,0.0,0.0,0.0,0.0,0.0,0.0,0.0,0.0,0.0,0.0,0.0,0.0,0.0,0.0,0.0,0.0,0.0,0.0,0.0,0.0,0.0,0.0,0.0,0.0,0.0,0.0,8.9837,9.0992,9.2699,0.0,0.0,0.0,0.0,0.0,0.0,9.3706,9.3752,0.0,0.0,0.0,0.0,0.0,0.0,0.0,0.0,0.0,0.0,0.0,0.0,0.0,0.0,0.0,0.0,0.0,0.0,0.0,0.0,0.0,0.0,0.0,0.0,0.0,0.0,0.0,0.0,0.0,0.0,0.0,0.0,0.0,0.0,0.0,0.0,0.0,0.0,0.0,0.0,0.0,0.0,0.0,0.0,0.0,0.0,0.0,0.0,0.0,0.0,0.0,0.0,0.0,0.0,0.0,8.7179,8.7179,8.9194,9.3241,9.1789,9.212,9.4255,9.1459,8.9191,8.7641,0.0,0.0,0.0,0.0,0.0,0.0,0.0,0.0,0.0,0.0,0.0,0.0,0.0,0.0,0.0,0.0,0.0,0.0,0.0,0.0,0.0,0.0,0.0,0.0,0.0,0.0,0.0,0.0,0.0,0.0,0.0,0.0,0.0,0.0,0.0,0.0,0.0,0.0,0.0,8.7191,8.899,0.0,0.0,0.0,0.0,0.0,0.0,0.0,0.0,9.3048,0.0,0.0,0.0,0.0,0.0,0.0,0.0,0.0,0.0,0.0,0.0,0.0,0.0,0.0,0.0,0.0,0.0,0.0,0.0,0.0,0.0,0.0,0.0,0.0,0.0,0.0,0.0,0.0,0.0,0.0,0.0,0.0,0.0,0.0,0.0,0.0,0.0,0.0,0.0,0.0,0.0,0.0,0.0,0.0,0.0,0.0,0.0,0.0,0.0,0.0,0.0,0.0,0.0,0.0,0.0,0.0,8.375,8.6274,8.8756,8.9807,9.0438,9.0448,8.863,8.7032,8.5903,0.0,0.0,0.0,0.0,0.0,0.0,0.0,0.0,0.0,0.0,0.0,0.0,0.0,0.0,0.0,0.0,0.0,0.0,0.0,0.0,0.0,0.0,0.0,0.0,0.0,0.0,0.0,0.0,0.0,0.0,0.0,0.0,0.0,0.0,0.0,0.0,0.0,0.0,8.1974,8.4731,0.0,0.0,0.0,0.0,0.0,0.0,0.0,0.0,8.9929,0.0,0.0,0.0,0.0,0.0,0.0,0.0,0.0,0.0,0.0,0.0,0.0,0.0,0.0,0.0,0.0,0.0,0.0,0.0,0.0,0.0,0.0,0.0,0.0,0.0,0.0,0.0,0.0,0.0,0.0,0.0,0.0,0.0,0.0,0.0,0.0,0.0,0.0,0.0,0.0,0.0,0.0,0.0,0.0,0.0,0.0,0.0,0.0,0.0,0.0,0.0,0.0,0.0,0.0,0.0,0.0,0.0,0.0,8.4578,8.7831,8.8349,8.9027,8.9869,8.639,8.4465,0.0,0.0,0.0,0.0,0.0,0.0,0.0,0.0,0.0,0.0,0.0,0.0,0.0,0.0,0.0,0.0,0.0,0.0,0.0,0.0,0.0,0.0,0.0,0.0,0.0,0.0,0.0,0.0,0.0,0.0,0.0,0.0,0.0,0.0,0.0,0.0,0.0,0.0,0.0,0.0,0.0,0.0,0.0,0.0,0.0,0.0,0.0,0.0,0.0,0.0,0.0,0.0,0.0,0.0,0.0,0.0,0.0,0.0,0.0,0.0,0.0,0.0,0.0,0.0,0.0,0.0,0.0,0.0,0.0,0.0,0.0,0.0,0.0,0.0,0.0,0.0,0.0,0.0,0.0,0.0,0.0,0.0,0.0,0.0,0.0,0.0,0.0,0.0,0.0,0.0,0.0,0.0,0.0,0.0,0.0,0.0,0.0,0.0,0.0,0.0,0.0,0.0,0.0,0.0,0.0,0.0,0.0,0.0,8.2984,8.6884,8.6818,8.759,8.9493,8.4594,8.1934,0.0,0.0,0.0,0.0,0.0,0.0,0.0,0.0,0.0,0.0,0.0,0.0,0.0,0.0,0.0,0.0,0.0,0.0,0.0,0.0,0.0,0.0,0.0,0.0,0.0,0.0,0.0,0.0,0.0,0.0,0.0,0.0,0.0,0.0,0.0,0.0,0.0,0.0,0.0,0.0,0.0,0.0,0.0,0.0,0.0,0.0,0.0,0.0,8.4558,0.0,0.0,0.0,0.0,0.0,0.0,0.0,0.0,0.0,0.0,0.0,0.0,0.0,0.0,0.0,0.0,0.0,0.0,0.0,0.0,0.0,0.0,0.0,0.0,0.0,0.0,0.0,0.0,0.0,0.0,0.0,0.0,0.0,0.0,0.0,0.0,0.0,0.0,0.0,0.0,0.0,0.0,0.0,0.0,0.0,0.0,0.0,0.0,0.0,0.0,0.0,0.0,0.0,0.0,0.0,0.0,0.0,0.0,0.0,8.1173,8.3497,8.4916,8.6017,8.6607,8.2936,8.0176,0.0,0.0,0.0,0.0,0.0,0.0,0.0,0.0,0.0,0.0,0.0,0.0,0.0,0.0,0.0,0.0,0.0,0.0,0.0,0.0,0.0,0.0,0.0,0.0,0.0,0.0,0.0,0.0,0.0,0.0,0.0,0.0,0.0,0.0,0.0,0.0,0.0,0.0,0.0,0.0,0.0,0.0,0.0,0.0,0.0,0.0,0.0,0.0,0.0,0.0,0.0,0.0,0.0,0.0,0.0,0.0,0.0,0.0,0.0,0.0,0.0,0.0,0.0,0.0,0.0,0.0,0.0,0.0,0.0,0.0,0.0,0.0,0.0,0.0,0.0,0.0,0.0,0.0,0.0,0.0,0.0,0.0,0.0,0.0,0.0,0.0,0.0,0.0,0.0,0.0,0.0,0.0,0.0,0.0,0.0,0.0,0.0,0.0,0.0,0.0,0.0,0.0,0.0,0.0,0.0,0.0,0.0,0.0,8.07,8.336,8.4569,8.4116,8.2221,7.8794,7.6461,0.0,0.0,0.0,0.0,0.0,0.0,0.0,0.0,0.0,0.0,0.0,0.0,0.0,0.0,0.0,0.0,0.0,0.0,0.0,0.0,0.0,0.0,0.0,0.0,0.0,0.0,0.0,0.0,0.0,0.0,0.0,0.0,0.0,0.0,0.0,0.0,0.0,0.0,0.0,0.0,0.0,0.0,0.0,0.0,0.0,0.0,0.0,0.0,0.0,0.0,0.0,0.0,0.0,0.0,0.0,0.0,0.0,0.0,0.0,0.0,0.0,0.0,0.0,0.0,0.0,0.0,0.0,0.0,0.0,0.0,0.0,0.0,0.0,0.0,0.0,0.0,0.0,0.0,0.0,0.0,0.0,0.0,0.0,0.0,0.0,0.0,0.0,0.0,0.0,0.0,0.0,0.0,0.0,0.0,0.0,0.0,0.0,0.0,0.0,0.0,0.0,0.0,0.0,0.0,0.0,0.0,0.0,0.0,0.0,8.2414,8.2597,8.1359,7.8756,7.5602,7.3572,0.0,0.0,0.0,0.0,0.0,0.0,0.0,0.0,0.0,0.0,0.0,0.0,0.0,0.0,0.0,0.0,0.0,0.0,0.0,0.0,0.0,0.0,0.0,0.0,0.0,0.0,0.0,0.0,0.0,0.0,0.0,0.0,0.0,0.0,0.0,0.0,0.0,0.0,0.0,0.0,0.0,0.0,0.0,0.0,0.0,0.0,0.0,0.0,0.0,0.0,0.0,0.0,0.0,0.0,0.0,0.0,0.0,0.0,0.0,0.0,0.0,0.0,0.0,0.0,0.0,0.0,0.0,0.0,0.0,0.0,0.0,0.0,0.0,0.0,0.0,0.0,0.0,0.0,0.0,0.0,0.0,0.0,0.0,0.0,0.0,0.0,0.0,0.0,0.0,0.0,0.0,0.0,0.0,0.0,0.0,0.0,0.0,0.0,0.0,0.0,0.0,0.0,0.0,0.0,0.0,0.0,0.0,0.0,0.0,7.9338,7.7965,7.7229,7.7357,7.4706,7.267,0.0,0.0,0.0,0.0,0.0,0.0,0.0,0.0,0.0,0.0,0.0,0.0,0.0,0.0,0.0,0.0,0.0,0.0,0.0,0.0,0.0,0.0,0.0,0.0,0.0,0.0,0.0,0.0,0.0,0.0,0.0,0.0,0.0,0.0,0.0,0.0,0.0,0.0,0.0,0.0,0.0,0.0,0.0,0.0,0.0,0.0,0.0,0.0,0.0,0.0,0.0,0.0,0.0,0.0,0.0,0.0,0.0,0.0,0.0,0.0,0.0,0.0,0.0,0.0,0.0,0.0,0.0,0.0,0.0,0.0,0.0,0.0,0.0,0.0,0.0,0.0,0.0,0.0,0.0,0.0,0.0,0.0,0.0,0.0,0.0,0.0,0.0,0.0,0.0,0.0,0.0,0.0,0.0,0.0,0.0,0.0,0.0,0.0,0.0,0.0,0.0,0.0,0.0,0.0,0.0,0.0,0.0,0.0,0.0,7.6154,7.4057,7.2719,7.2324,7.0408,6.9348,6.933,0.0,0.0,0.0,0.0,0.0,0.0,0.0,0.0,0.0,0.0,0.0,0.0,0.0,0.0,0.0,0.0,0.0,0.0,0.0,0.0,0.0,0.0,0.0,0.0,0.0,0.0,0.0,0.0,0.0,0.0,0.0,0.0,0.0,0.0,0.0,0.0,0.0,0.0,0.0,0.0,0.0,0.0,0.0,0.0,0.0,0.0,0.0,0.0,0.0,0.0,0.0,0.0,0.0,0.0,0.0,0.0,0.0,0.0,0.0,0.0,0.0,0.0,0.0,0.0,0.0,0.0,0.0,0.0,0.0,0.0,0.0,0.0,0.0,0.0,0.0,0.0,0.0,0.0,0.0,0.0,0.0,0.0,0.0,0.0,0.0,0.0,0.0,0.0,0.0,0.0,0.0,0.0,0.0,0.0,0.0,0.0,0.0,0.0,0.0,0.0,0.0,0.0,0.0,0.0,0.0,0.0,0.0,0.0,7.4656,7.2395,7.0751,6.9823,6.8343,6.7809,0.0,0.0,0.0,0.0,0.0,0.0,0.0,0.0,0.0,0.0,0.0,0.0,0.0,0.0,0.0,0.0,0.0,0.0,0.0,0.0,0.0,0.0,0.0,0.0,0.0,0.0,0.0,0.0,0.0,0.0,0.0,0.0,0.0,0.0,0.0,0.0,0.0,0.0,0.0,0.0,0.0,0.0,0.0,0.0,0.0,0.0,0.0,0.0,0.0,0.0,0.0,0.0,0.0,0.0,0.0,0.0,0.0,0.0,0.0,0.0,0.0,0.0,0.0,0.0,0.0,0.0,0.0,0.0,0.0,0.0,0.0,0.0,0.0,0.0,0.0,0.0,0.0,0.0,0.0,0.0,0.0,0.0,0.0,0.0,0.0,0.0,0.0,0.0,0.0,0.0,0.0,0.0,0.0,0.0,0.0,0.0,0.0,0.0,0.0,0.0,0.0,0.0,0.0,0.0,0.0,0.0,0.0,0.0,7.6193,7.4993,7.3344,7.1853,7.0946,6.9223,6.8373,0.0,0.0,0.0,0.0,0.0,0.0,0.0,0.0,0.0,0.0,0.0,0.0,0.0,0.0,0.0,0.0,0.0,0.0,0.0,0.0,0.0,0.0,0.0,0.0,0.0,0.0,0.0,0.0,0.0,0.0,0.0,0.0,0.0,0.0,0.0,0.0,0.0,0.0,0.0,0.0,0.0,0.0,0.0,0.0,0.0,0.0,0.0,0.0,0.0,0.0,0.0,0.0,0.0,0.0,0.0,0.0,0.0,0.0,0.0,0.0,0.0,0.0,0.0,0.0,0.0,0.0,0.0,0.0,0.0,0.0,0.0,0.0,0.0,0.0,0.0,0.0,0.0,0.0,0.0,0.0,0.0,0.0,0.0,0.0,0.0,0.0,0.0,0.0,0.0,0.0,0.0,0.0,0.0,0.0,0.0,0.0,0.0,0.0,0.0,0.0,0.0,0.0,0.0,0.0,0.0,0.0,0.0,0.0,0.0,7.5618,0.0,7.1025,0.0,6.8703,6.8157,0.0,0.0,0.0,0.0,0.0,0.0,0.0,0.0,0.0,0.0,0.0,0.0,0.0,0.0,0.0,0.0,0.0,0.0,0.0,0.0,0.0,0.0,0.0,0.0,0.0,0.0,0.0,0.0,0.0,0.0,0.0,0.0,0.0,0.0,0.0,0.0,0.0,0.0,0.0,0.0,0.0,0.0,0.0,0.0,0.0,0.0,0.0,0.0,0.0,0.0,0.0,0.0,0.0,0.0,0.0,0.0,0.0,0.0,0.0,0.0,0.0,0.0,0.0,0.0,0.0,0.0,0.0,0.0,0.0,0.0,0.0,0.0,0.0,0.0,0.0,0.0,0.0,0.0,0.0,0.0,0.0,0.0,0.0,0.0,0.0,0.0,0.0,0.0,0.0,0.0,0.0,0.0,0.0,0.0,0.0,0.0,0.0,0.0,0.0,0.0,0.0,0.0,0.0,0.0,0.0,0.0,0.0,0.0,0.0,7.5344,7.3521,7.1726,6.9988,6.8011,6.7454,0.0,0.0,0.0,0.0,0.0,0.0,0.0,0.0,0.0,0.0,0.0,0.0,0.0,0.0,0.0,0.0,0.0,0.0,0.0,0.0,0.0,0.0,0.0,0.0,0.0,0.0,0.0,0.0,0.0,0.0,0.0,0.0,0.0,0.0,0.0,0.0,0.0,0.0,0.0,0.0,0.0,0.0,0.0,0.0,0.0,0.0,0.0,0.0,0.0,0.0,0.0,0.0,0.0,0.0,0.0,0.0,0.0,0.0,0.0,0.0,0.0,0.0,0.0,0.0,0.0,0.0,0.0,0.0,0.0,0.0,0.0,0.0,0.0,0.0,0.0,0.0,0.0,0.0,0.0,0.0,0.0,0.0,0.0,0.0,0.0,0.0,0.0,0.0,0.0,0.0,0.0,0.0,0.0,0.0,0.0,0.0,0.0,0.0,0.0,0.0,0.0,0.0,0.0,0.0,0.0,0.0,0.0,0.0,0.0,0.0,7.4697,7.3657,7.0912,6.7349,6.6314,0.0,0.0,0.0,0.0,0.0,0.0,0.0,0.0,0.0,0.0,0.0,0.0,0.0,0.0,0.0,0.0,0.0,0.0,0.0,0.0,0.0,0.0,0.0,0.0,0.0,0.0,0.0,0.0,0.0,0.0,0.0,0.0,0.0,0.0,0.0,0.0,0.0,0.0,0.0,0.0,0.0,0.0,0.0,0.0,0.0,0.0,0.0,0.0,0.0,0.0,0.0,0.0,0.0,0.0,0.0,0.0,0.0,0.0,0.0,0.0,0.0,0.0,0.0,0.0,0.0,0.0,0.0,0.0,0.0,0.0,0.0,0.0,0.0,0.0,0.0,0.0,0.0,0.0,0.0,0.0,0.0,0.0,0.0,0.0,0.0,0.0,0.0,0.0,0.0,0.0,0.0,0.0,0.0,0.0,0.0,0.0,0.0,0.0,0.0,0.0,0.0,0.0,0.0,0.0,0.0,0.0,0.0,0.0,0.0,0.0,7.4407,0.0,7.0391,6.6299,6.4369,6.4891,0.0,0.0,0.0,0.0,0.0,0.0,0.0,0.0,0.0,0.0,0.0,0.0,0.0,0.0,0.0,0.0,0.0,0.0,0.0,0.0,0.0,0.0,0.0,0.0,0.0,0.0,0.0,0.0,0.0,0.0,0.0,0.0,0.0,0.0,0.0,0.0,0.0,0.0,0.0,0.0,0.0,0.0,0.0,0.0,0.0,0.0,0.0,0.0,0.0,0.0,0.0,0.0,0.0,0.0,0.0,0.0,0.0,0.0,0.0,0.0,0.0,0.0,0.0,0.0,0.0,0.0,0.0,0.0,0.0,0.0,0.0,0.0,0.0,0.0,0.0,0.0,0.0,0.0,0.0,0.0,0.0,0.0,0.0,0.0,0.0,0.0,0.0,0.0,0.0,0.0,0.0,0.0,0.0,0.0,0.0,0.0,0.0,0.0,0.0,0.0,0.0,0.0,0.0,0.0,0.0,0.0,0.0,0.0,0.0,0.0,0.0,6.8973,6.6701,6.4899,0.0,0.0,0.0,0.0,0.0,0.0,0.0,0.0,0.0,0.0,0.0,0.0,0.0,0.0,0.0,0.0,0.0,0.0,0.0,0.0,0.0,0.0,0.0,0.0,0.0,0.0,0.0,0.0,0.0,0.0,0.0,0.0,0.0,0.0,0.0,0.0,0.0,0.0,0.0,0.0,0.0,0.0,0.0,0.0,0.0,0.0,0.0,0.0,0.0,0.0,0.0,0.0,0.0,0.0,0.0,0.0,0.0,0.0,0.0,0.0,0.0,0.0,0.0,0.0,0.0,0.0,0.0,0.0,0.0,0.0,0.0,0.0,0.0,0.0,0.0,0.0,0.0,0.0,0.0,0.0,0.0,0.0,0.0,0.0,0.0,0.0,0.0,0.0,0.0,0.0,0.0,0.0,0.0,0.0,0.0,0.0,0.0,0.0,0.0,0.0,0.0,0.0,0.0,0.0,0.0,0.0,0.0,0.0,0.0,0.0,0.0,7.1648,6.7067,6.7714,0.0,6.3339,0.0,0.0,0.0,0.0,0.0,0.0,0.0,0.0,0.0,0.0,0.0,0.0,0.0,0.0,0.0,0.0,0.0,0.0,0.0,0.0,0.0,0.0,0.0,0.0,0.0,0.0,0.0,0.0,0.0,0.0,0.0,0.0,0.0,0.0,0.0,0.0,0.0,0.0,0.0,0.0,0.0,0.0,0.0,0.0,0.0,0.0,0.0,0.0,0.0,0.0,0.0,0.0,0.0,0.0,0.0,0.0,0.0,0.0,0.0,0.0,0.0,0.0,0.0,0.0,0.0,0.0,0.0,0.0,0.0,0.0,0.0,0.0,0.0,0.0,0.0,0.0,0.0,0.0,0.0,0.0,0.0,0.0,0.0,0.0,0.0,0.0,0.0,0.0,0.0,0.0,0.0,0.0,0.0,0.0,0.0,0.0,0.0,0.0,0.0,0.0,0.0,0.0,0.0,0.0,0.0,0.0,0.0,0.0,0.0,0.0,0.0,0.0,6.5902,6.4039,6.0072,0.0,0.0,0.0,0.0,0.0,0.0,0.0,0.0,0.0,0.0,0.0,0.0,0.0,0.0,0.0,0.0,0.0,0.0,0.0,0.0,0.0,0.0,0.0,0.0,0.0,0.0,0.0,0.0,0.0,0.0,0.0,0.0,0.0,0.0,0.0,0.0,0.0,0.0,0.0,0.0,0.0,0.0,0.0,0.0,0.0,0.0,0.0,0.0,0.0,0.0,0.0,0.0,0.0,0.0,0.0,0.0,0.0,0.0,0.0,0.0,0.0,0.0,0.0,0.0,0.0,0.0,0.0,0.0,0.0,0.0,0.0,0.0,0.0,0.0,0.0,0.0,0.0,0.0,0.0,0.0,0.0,0.0,0.0,0.0,0.0,0.0,0.0,0.0,0.0,0.0,0.0,0.0,0.0,0.0,0.0,0.0,0.0,0.0,0.0,0.0,0.0,0.0,0.0,0.0,0.0,0.0,0.0,0.0,0.0,0.0,6.7975,6.5739,6.4261,6.1972,5.8898,0.0,0.0,0.0,0.0,0.0,0.0,0.0,0.0,0.0,0.0,0.0,0.0,0.0,0.0,0.0,0.0,0.0,0.0,0.0,0.0,0.0,0.0,0.0,0.0,0.0,0.0,0.0,0.0,0.0,0.0,0.0,0.0,0.0,0.0,0.0,0.0,0.0,0.0,0.0,0.0,0.0,0.0,0.0,0.0,0.0,0.0,0.0,0.0,0.0,0.0,0.0,0.0,0.0,0.0,0.0,0.0,0.0,0.0,0.0,0.0,0.0,0.0,0.0,0.0,0.0,0.0,0.0,0.0,0.0,0.0,0.0,0.0,0.0,0.0,0.0,0.0,0.0,0.0,0.0,0.0,0.0,0.0,0.0,0.0,0.0,0.0,0.0,0.0,0.0,0.0,0.0,0.0,0.0,0.0,0.0,0.0,0.0,0.0,0.0,0.0,0.0,0.0,0.0,0.0,0.0,0.0,0.0,0.0,0.0,0.0,0.0,0.0,0.0,0.0,5.912,0.0,0.0,0.0,0.0,0.0,0.0,0.0,0.0,0.0,0.0,0.0,0.0,0.0,0.0,0.0,0.0,0.0,0.0,0.0,0.0,0.0,0.0,0.0,0.0,0.0,0.0,0.0,0.0,0.0,0.0,0.0,0.0,0.0,0.0,0.0,0.0,0.0,0.0,0.0,0.0,0.0,0.0,0.0,0.0,0.0,0.0,0.0,0.0,0.0,0.0,0.0,0.0,0.0,0.0,0.0,0.0,0.0,0.0,0.0,0.0,0.0,0.0,0.0,0.0,0.0,0.0,0.0,0.0,0.0,0.0,0.0,0.0,0.0,0.0,0.0,0.0,0.0,0.0,0.0,0.0,0.0,0.0,0.0,0.0,0.0,0.0,0.0,0.0,0.0,0.0,0.0,0.0,0.0,0.0,0.0,0.0,0.0,0.0,0.0,0.0,0.0,0.0,0.0,0.0,0.0,0.0,0.0,0.0,0.0,0.0,0.0,0.0,0.0,0.0,0.0,0.0,0.0,0.0,0.0,0.0,0.0,0.0,0.0,0.0,0.0,0.0,0.0,0.0,0.0,0.0,0.0,0.0,0.0,0.0,0.0,0.0,0.0,0.0,0.0,0.0,0.0,0.0,0.0,0.0,0.0,0.0,0.0,0.0,0.0,0.0,0.0,0.0,0.0,0.0,0.0,0.0,0.0,0.0,0.0,0.0,0.0,0.0,0.0,0.0,0.0,0.0,0.0,0.0,0.0,0.0,0.0,0.0,0.0,0.0,0.0,0.0,0.0,0.0,0.0,0.0,0.0,0.0,0.0,0.0,0.0,0.0,0.0,0.0,0.0,0.0,0.0,0.0,0.0,0.0,0.0,0.0,0.0,0.0,0.0,0.0,0.0,0.0,0.0,0.0,0.0,0.0,0.0,0.0,0.0,0.0,0.0,0.0,0.0,0.0,0.0,0.0,0.0,0.0,0.0,0.0,0.0,0.0,0.0,0.0,0.0,0.0,0.0,0.0,0.0,0.0,0.0,0.0,0.0,0.0,0.0,0.0,0.0,0.0,0.0,0.0,0.0,0.0,0.0,0.0,0.0,0.0,0.0,0.0,0.0,0.0,0.0,0.0,0.0,0.0,0.0,0.0,0.0,0.0,0.0,0.0,0.0,0.0,0.0,0.0,0.0,0.0,0.0,0.0,0.0,0.0,0.0,0.0,0.0,0.0,0.0,0.0,0.0,0.0,0.0,0.0,0.0,0.0,0.0,0.0,0.0,0.0,0.0,0.0,0.0,0.0,0.0,0.0,0.0,0.0,0.0,0.0,0.0,0.0,0.0,0.0,0.0,0.0,0.0,0.0,0.0,0.0,0.0,0.0,0.0,0.0,0.0,0.0,0.0,0.0,0.0,0.0,0.0,0.0,0.0,0.0,0.0,0.0,0.0,0.0,0.0,0.0,0.0,0.0,0.0,0.0,0.0,0.0,0.0,0.0,0.0,0.0,0.0,0.0,0.0,0.0,0.0,0.0,0.0,0.0,0.0,0.0,0.0,0.0,0.0,0.0,0.0,0.0,0.0,0.0,0.0,0.0,0.0,0.0,0.0,0.0,0.0,0.0,0.0,0.0,0.0,0.0,0.0,0.0,0.0,0.0,0.0,0.0,0.0,0.0,0.0,0.0,0.0,0.0,0.0,0.0,0.0,0.0,0.0,0.0,0.0,0.0,0.0,0.0,0.0,0.0,0.0,0.0,0.0,0.0,0.0,0.0,0.0,0.0,0.0,0.0,0.0,0.0,0.0,0.0,0.0,0.0,0.0,0.0,0.0,0.0,0.0,0.0,0.0,0.0,0.0,0.0,0.0,0.0,0.0,0.0,0.0,0.0,0.0,0.0,0.0,0.0,0.0,0.0,0.0,0.0,0.0,0.0,0.0,0.0,0.0,0.0,0.0,0.0,0.0,0.0,0.0,0.0,0.0,0.0,0.0,0.0,0.0,0.0,0.0,0.0,0.0,0.0,0.0,0.0,0.0,0.0,0.0,0.0,0.0,0.0,0.0,0.0,0.0,0.0,0.0,0.0,0.0,0.0,0.0,0.0,0.0,0.0,0.0,0.0,0.0,0.0,0.0,0.0,0.0,0.0,0.0,0.0,0.0,0.0,0.0,0.0,0.0,0.0,0.0,0.0,0.0,0.0,0.0,0.0,0.0,0.0,0.0,0.0,0.0,0.0,0.0,0.0,0.0,0.0,0.0,0.0,0.0,0.0,0.0,0.0,0.0,0.0,0.0,0.0,0.0,0.0,0.0,0.0,0.0,0.0,0.0,0.0,0.0,0.0,0.0,0.0,0.0,0.0,0.0,0.0,0.0,0.0,0.0,0.0,0.0,0.0,0.0,0.0,0.0,0.0,0.0,0.0,0.0,0.0,0.0,0.0,0.0,0.0,0.0,0.0,0.0,0.0,0.0,0.0,0.0,0.0,0.0,0.0,0.0,0.0,0.0,0.0,0.0,0.0,0.0,0.0,0.0,0.0,0.0,0.0,0.0,0.0,0.0,0.0,0.0,0.0,0.0,0.0,0.0,0.0,0.0,0.0,0.0,0.0,0.0,0.0,0.0,0.0,0.0,0.0,0.0,0.0,0.0,0.0,0.0,0.0,0.0,0.0,0.0,0.0,0.0,0.0,0.0,0.0,0.0,0.0,0.0,0.0,0.0,0.0,0.0,0.0,0.0,0.0,0.0,0.0,0.0,0.0,0.0,0.0,0.0,0.0,0.0,0.0,0.0,0.0,0.0,0.0,0.0,0.0,0.0,0.0,0.0,0.0,0.0,0.0,0.0,0.0,0.0,0.0,0.0,0.0,0.0,0.0,0.0,0.0,0.0,0.0,0.0,0.0,0.0,0.0,0.0,0.0,0.0,0.0,0.0,0.0,0.0,0.0,0.0,0.0,0.0,0.0,0.0,0.0,0.0,0.0,0.0,0.0,0.0,0.0,0.0,0.0,0.0,0.0,0.0,0.0,0.0,0.0,0.0,0.0,0.0,0.0,0.0,0.0,0.0,0.0,0.0,0.0,0.0,0.0,0.0,0.0,0.0,0.0,0.0,0.0,0.0,0.0,0.0,0.0,0.0,0.0,0.0,0.0,0.0,0.0,0.0,0.0,0.0,0.0,0.0,0.0,0.0,0.0,0.0,0.0,0.0,0.0,0.0,0.0,0.0,0.0,0.0,0.0,0.0,0.0,0.0,0.0,0.0,0.0,0.0,0.0,0.0,0.0,0.0,0.0,0.0,0.0,0.0,0.0,0.0,0.0,0.0,0.0,0.0,0.0,0.0,0.0,0.0,0.0,0.0,0.0,0.0,0.0,0.0,0.0,0.0,0.0,0.0,0.0,0.0,0.0,0.0,0.0,0.0,0.0,0.0,0.0,0.0,0.0,0.0,0.0,0.0,0.0,0.0,0.0,0.0,0.0,0.0,0.0,0.0,0.0,0.0,0.0,0.0,0.0,0.0,0.0,0.0,0.0,0.0,0.0,0.0,0.0,0.0,0.0,0.0,0.0,0.0,0.0,0.0,0.0,0.0,0.0,0.0,0.0,0.0,0.0,0.0,0.0,0.0,0.0,0.0,0.0,0.0,0.0,0.0,0.0,0.0,0.0,0.0,0.0,0.0,0.0,0.0,0.0,0.0,0.0,0.0,0.0,0.0,0.0,0.0,0.0,0.0,0.0,0.0,0.0,0.0,0.0,0.0,0.0,0.0,0.0,0.0,0.0,0.0,0.0,0.0,0.0,0.0,0.0,0.0,0.0,0.0,0.0,0.0,0.0,0.0,0.0,0.0,0.0,0.0,0.0,0.0,0.0,0.0,0.0,0.0,0.0,0.0,0.0,0.0,0.0,0.0,0.0,0.0,0.0,0.0,0.0,0.0,0.0,0.0,0.0,0.0,0.0,0.0,0.0,0.0,0.0,0.0,0.0,0.0,0.0,0.0,0.0,0.0,0.0,0.0,0.0,0.0,0.0,0.0,0.0,0.0,0.0,0.0,0.0,0.0,0.0,0.0,0.0,0.0,0.0,0.0,0.0,0.0,0.0,0.0,0.0,0.0,0.0,0.0,0.0,0.0,0.0,0.0,0.0,0.0,0.0,0.0,0.0,0.0,0.0,0.0,0.0,0.0,0.0,0.0,0.0,0.0,0.0,0.0,0.0,0.0,0.0,0.0,0.0,0.0,0.0,0.0,0.0,0.0,0.0,0.0,0.0,0.0,0.0,0.0,0.0,0.0,0.0,0.0,0.0,0.0,0.0,0.0,0.0,0.0,0.0,0.0,0.0,0.0,0.0,0.0,0.0,0.0,0.0,0.0,0.0,0.0,0.0,0.0,0.0,0.0,0.0]}]]]